[[{"header":{"parameterUnit":"m.s-1","parameterCategory":1,"la1":30.6,"la2":29.2853,"lo1":-89.7004,"lo2":-87.6739,"dy":0.0162,"dx":0.0183,"nx":112,"ny":82,"refTime":"2023-03-24T06:00:00:Z","depth":0,"parameterNumber":2,"parameterNumberName":"U-component_of_WINDS"},"data":[0.0,0.0,0.0,0.0,0.0,0.0,0.0,0.0,0.0,0.0,0.0,0.0,0.0,0.0,0.0,0.0,0.0,0.0,0.0,0.0,0.0,0.0,0.0,0.0,0.0,0.0,0.0,0.0,0.0,0.0,0.0,0.0,0.0,0.0,0.0,0.0,0.0,0.0,0.0,0.0,0.0,0.0,0.0,0.0,0.0,0.0,0.0,0.0,0.0,0.0,0.0,0.0,0.0,0.0,0.0,0.0,0.0,0.0,0.0,0.0,0.0,0.0,0.0,0.0,0.0,0.0,0.0,0.0,0.0,0.0,0.0,0.0,0.0,0.0,0.0,0.0,0.0,0.0,0.0,0.0,0.0,0.0,0.0,0.0,0.0,0.0,0.0,0.0,0.0,0.0,-4.5594,-4.5594,-4.6259,-4.6701,-4.6701,-4.7317,-4.7105,-4.5691,0.0,0.0,0.0,0.0,0.0,0.0,0.0,0.0,0.0,0.0,0.0,0.0,0.0,0.0,0.0,0.0,0.0,0.0,0.0,0.0,0.0,0.0,0.0,0.0,0.0,0.0,0.0,0.0,0.0,0.0,0.0,0.0,0.0,0.0,0.0,0.0,0.0,0.0,0.0,0.0,0.0,0.0,0.0,0.0,0.0,0.0,0.0,0.0,0.0,0.0,0.0,0.0,0.0,0.0,0.0,0.0,0.0,0.0,0.0,0.0,0.0,0.0,0.0,0.0,0.0,0.0,0.0,0.0,0.0,0.0,0.0,0.0,0.0,0.0,0.0,0.0,0.0,0.0,0.0,0.0,0.0,0.0,0.0,0.0,0.0,0.0,0.0,0.0,0.0,0.0,0.0,0.0,0.0,0.0,0.0,0.0,0.0,0.0,0.0,0.0,0.0,0.0,0.0,0.0,-4.5594,-4.5594,-4.5729,-4.5806,-4.5806,-4.5922,-4.5864,-4.5614,0.0,0.0,0.0,0.0,0.0,0.0,0.0,0.0,0.0,0.0,0.0,0.0,0.0,0.0,0.0,0.0,0.0,0.0,0.0,0.0,0.0,0.0,0.0,0.0,0.0,0.0,0.0,0.0,0.0,0.0,0.0,0.0,0.0,0.0,0.0,0.0,0.0,0.0,0.0,0.0,0.0,0.0,0.0,0.0,0.0,0.0,0.0,0.0,0.0,0.0,0.0,0.0,0.0,0.0,0.0,0.0,0.0,0.0,0.0,0.0,0.0,0.0,0.0,0.0,0.0,0.0,0.0,0.0,0.0,0.0,0.0,0.0,0.0,0.0,0.0,0.0,0.0,0.0,0.0,0.0,0.0,0.0,0.0,0.0,0.0,0.0,0.0,0.0,0.0,0.0,0.0,0.0,0.0,0.0,0.0,0.0,0.0,0.0,0.0,0.0,0.0,0.0,0.0,-4.5594,-4.5594,-4.5594,-4.5594,-4.5594,-4.5594,-4.5594,-4.5594,-4.5594,-4.597,0.0,0.0,0.0,0.0,0.0,0.0,0.0,0.0,0.0,0.0,0.0,0.0,0.0,0.0,0.0,0.0,0.0,0.0,0.0,0.0,0.0,0.0,0.0,0.0,0.0,0.0,0.0,0.0,0.0,0.0,0.0,0.0,0.0,0.0,0.0,0.0,0.0,0.0,0.0,0.0,0.0,0.0,0.0,0.0,0.0,0.0,0.0,0.0,0.0,0.0,0.0,0.0,0.0,0.0,0.0,0.0,0.0,0.0,0.0,0.0,0.0,0.0,0.0,0.0,0.0,0.0,0.0,0.0,0.0,0.0,0.0,0.0,0.0,0.0,0.0,0.0,0.0,0.0,0.0,0.0,0.0,0.0,0.0,0.0,0.0,0.0,0.0,0.0,0.0,0.0,0.0,0.0,0.0,0.0,0.0,0.0,0.0,0.0,0.0,0.0,0.0,0.0,-4.5594,-4.5594,-4.5594,-4.5594,-4.5594,-4.5594,-4.5594,-4.5594,-4.5594,-4.5594,0.0,0.0,0.0,0.0,0.0,0.0,0.0,0.0,0.0,0.0,0.0,0.0,0.0,0.0,0.0,0.0,0.0,0.0,0.0,0.0,0.0,0.0,0.0,0.0,0.0,0.0,0.0,0.0,0.0,0.0,0.0,0.0,0.0,0.0,0.0,0.0,0.0,0.0,0.0,0.0,0.0,0.0,0.0,0.0,0.0,0.0,0.0,0.0,0.0,0.0,0.0,0.0,0.0,0.0,0.0,0.0,0.0,0.0,0.0,0.0,0.0,0.0,0.0,0.0,0.0,0.0,0.0,0.0,0.0,0.0,0.0,0.0,0.0,0.0,0.0,0.0,0.0,0.0,0.0,0.0,0.0,0.0,0.0,0.0,0.0,0.0,0.0,0.0,0.0,0.0,0.0,0.0,0.0,0.0,0.0,0.0,0.0,0.0,0.0,0.0,0.0,0.0,-4.5594,-4.5594,-4.5594,-4.5594,-4.5594,-4.5594,-4.5594,-4.5594,-4.5594,-4.5594,0.0,0.0,0.0,0.0,0.0,0.0,0.0,0.0,0.0,0.0,0.0,0.0,0.0,0.0,0.0,0.0,0.0,0.0,0.0,0.0,0.0,0.0,0.0,0.0,0.0,0.0,0.0,0.0,0.0,0.0,0.0,0.0,0.0,0.0,0.0,0.0,0.0,0.0,0.0,0.0,0.0,0.0,0.0,0.0,0.0,0.0,0.0,0.0,0.0,0.0,0.0,0.0,0.0,0.0,0.0,0.0,0.0,0.0,0.0,0.0,0.0,0.0,0.0,0.0,0.0,0.0,0.0,0.0,0.0,0.0,0.0,0.0,0.0,0.0,0.0,0.0,0.0,0.0,0.0,0.0,0.0,0.0,0.0,0.0,0.0,0.0,0.0,0.0,0.0,0.0,0.0,0.0,0.0,0.0,0.0,0.0,0.0,0.0,0.0,0.0,0.0,0.0,-4.5594,-4.5594,-4.5594,-4.5594,-4.5594,-4.5594,-4.5594,-4.5594,-4.5594,0.0,0.0,0.0,0.0,0.0,0.0,0.0,0.0,0.0,0.0,0.0,0.0,0.0,0.0,0.0,0.0,0.0,0.0,0.0,0.0,0.0,0.0,0.0,0.0,0.0,0.0,0.0,0.0,0.0,0.0,0.0,0.0,0.0,0.0,0.0,0.0,0.0,0.0,0.0,0.0,0.0,0.0,0.0,0.0,0.0,0.0,0.0,0.0,0.0,0.0,0.0,0.0,0.0,0.0,0.0,0.0,0.0,0.0,0.0,0.0,0.0,0.0,0.0,0.0,0.0,0.0,0.0,0.0,0.0,0.0,0.0,0.0,0.0,0.0,0.0,0.0,0.0,0.0,0.0,0.0,0.0,0.0,0.0,0.0,0.0,0.0,0.0,0.0,0.0,0.0,0.0,0.0,0.0,0.0,0.0,0.0,0.0,0.0,0.0,0.0,0.0,0.0,-4.5594,-4.5594,-4.5594,0.0,-4.5594,-4.5594,-4.5594,-4.5594,-4.5594,-4.5594,0.0,0.0,0.0,0.0,0.0,0.0,0.0,0.0,0.0,0.0,0.0,0.0,0.0,0.0,0.0,0.0,0.0,0.0,0.0,0.0,0.0,0.0,0.0,0.0,0.0,0.0,0.0,0.0,0.0,0.0,0.0,0.0,0.0,0.0,0.0,0.0,0.0,0.0,0.0,0.0,0.0,0.0,0.0,0.0,0.0,0.0,0.0,0.0,0.0,0.0,0.0,0.0,0.0,0.0,0.0,0.0,0.0,0.0,0.0,0.0,0.0,0.0,0.0,0.0,0.0,0.0,0.0,0.0,0.0,0.0,0.0,0.0,0.0,0.0,0.0,0.0,0.0,0.0,0.0,0.0,0.0,0.0,0.0,0.0,0.0,0.0,0.0,0.0,0.0,0.0,0.0,0.0,0.0,0.0,0.0,0.0,0.0,0.0,0.0,0.0,0.0,0.0,-4.5594,-4.5594,-4.5594,-4.5594,-4.5594,-4.5594,-4.5594,-4.5594,-4.5594,0.0,0.0,0.0,0.0,0.0,0.0,0.0,0.0,0.0,0.0,0.0,0.0,0.0,0.0,0.0,0.0,0.0,0.0,0.0,0.0,0.0,0.0,0.0,0.0,0.0,0.0,0.0,0.0,0.0,0.0,0.0,0.0,0.0,0.0,0.0,0.0,0.0,0.0,0.0,0.0,0.0,0.0,0.0,0.0,0.0,0.0,0.0,0.0,0.0,0.0,0.0,0.0,0.0,0.0,0.0,0.0,0.0,0.0,0.0,0.0,0.0,0.0,0.0,0.0,0.0,0.0,0.0,0.0,0.0,0.0,0.0,0.0,0.0,0.0,0.0,0.0,0.0,0.0,0.0,0.0,0.0,0.0,0.0,0.0,0.0,0.0,0.0,0.0,0.0,0.0,0.0,0.0,0.0,0.0,0.0,0.0,0.0,0.0,0.0,0.0,0.0,0.0,0.0,-4.5594,-4.5594,-4.5594,-4.5594,-4.5594,-4.5594,-4.5594,-4.5594,-4.5594,-4.5594,0.0,0.0,0.0,0.0,0.0,0.0,0.0,0.0,0.0,0.0,0.0,0.0,0.0,0.0,0.0,0.0,0.0,0.0,0.0,0.0,0.0,0.0,0.0,0.0,0.0,0.0,0.0,0.0,0.0,0.0,0.0,0.0,0.0,0.0,0.0,0.0,0.0,0.0,0.0,0.0,0.0,0.0,0.0,0.0,0.0,0.0,0.0,0.0,0.0,0.0,0.0,0.0,0.0,0.0,0.0,0.0,0.0,0.0,0.0,0.0,0.0,0.0,0.0,0.0,0.0,0.0,0.0,0.0,0.0,0.0,0.0,0.0,0.0,0.0,0.0,0.0,0.0,0.0,0.0,0.0,0.0,0.0,0.0,0.0,0.0,0.0,0.0,0.0,0.0,0.0,0.0,0.0,0.0,0.0,0.0,0.0,0.0,0.0,0.0,0.0,0.0,0.0,-4.5594,-4.5594,-4.5594,-4.5594,-4.5594,-4.5594,-4.5594,-4.5594,-4.5594,-4.5594,0.0,0.0,0.0,0.0,0.0,0.0,0.0,0.0,0.0,0.0,0.0,0.0,0.0,0.0,0.0,0.0,0.0,0.0,0.0,0.0,0.0,0.0,0.0,0.0,0.0,0.0,0.0,0.0,0.0,0.0,0.0,0.0,0.0,0.0,0.0,0.0,0.0,0.0,0.0,0.0,0.0,0.0,0.0,0.0,0.0,0.0,0.0,0.0,0.0,0.0,0.0,0.0,0.0,0.0,0.0,0.0,0.0,0.0,0.0,0.0,0.0,0.0,0.0,0.0,0.0,0.0,0.0,0.0,0.0,0.0,0.0,0.0,0.0,0.0,0.0,0.0,0.0,0.0,0.0,0.0,0.0,0.0,0.0,0.0,0.0,0.0,0.0,0.0,0.0,0.0,0.0,0.0,0.0,0.0,0.0,0.0,0.0,0.0,0.0,0.0,0.0,0.0,-4.5594,-4.5594,-4.5594,-4.5594,-4.5594,-4.5594,-4.5594,-4.5594,-4.5594,-4.5594,0.0,0.0,0.0,0.0,0.0,0.0,0.0,0.0,0.0,0.0,0.0,0.0,0.0,0.0,0.0,0.0,0.0,0.0,0.0,0.0,0.0,0.0,0.0,0.0,0.0,0.0,0.0,0.0,0.0,0.0,0.0,0.0,0.0,0.0,0.0,0.0,0.0,0.0,0.0,0.0,0.0,0.0,0.0,0.0,0.0,0.0,0.0,0.0,0.0,0.0,0.0,0.0,0.0,0.0,0.0,0.0,0.0,0.0,0.0,0.0,-5.3952,0.0,0.0,0.0,0.0,0.0,0.0,0.0,0.0,0.0,0.0,0.0,0.0,0.0,0.0,0.0,0.0,0.0,0.0,0.0,0.0,0.0,0.0,0.0,0.0,0.0,0.0,0.0,0.0,0.0,0.0,0.0,0.0,0.0,0.0,0.0,0.0,0.0,0.0,0.0,0.0,0.0,-4.5594,-4.5594,-4.5594,-4.5594,-4.5594,-4.5594,-4.5594,-4.5594,-4.5594,-4.5594,-4.5735,0.0,0.0,0.0,0.0,0.0,0.0,0.0,0.0,0.0,0.0,0.0,0.0,0.0,0.0,0.0,0.0,0.0,0.0,0.0,0.0,0.0,0.0,0.0,0.0,0.0,0.0,0.0,0.0,0.0,0.0,0.0,0.0,0.0,0.0,0.0,0.0,0.0,0.0,0.0,0.0,0.0,0.0,0.0,0.0,0.0,0.0,0.0,0.0,0.0,0.0,0.0,0.0,0.0,0.0,0.0,0.0,0.0,0.0,0.0,0.0,-5.5183,0.0,0.0,0.0,0.0,0.0,0.0,0.0,0.0,0.0,0.0,0.0,0.0,0.0,0.0,0.0,0.0,0.0,0.0,0.0,0.0,0.0,0.0,0.0,0.0,0.0,0.0,0.0,0.0,0.0,0.0,0.0,0.0,0.0,0.0,0.0,0.0,0.0,0.0,0.0,0.0,-4.5594,-4.5594,-4.5594,-4.5594,-4.5594,-4.5594,-4.5594,-4.5594,-4.5594,-4.5594,-4.5764,0.0,0.0,0.0,0.0,0.0,0.0,0.0,0.0,0.0,0.0,0.0,0.0,0.0,0.0,0.0,0.0,0.0,0.0,0.0,0.0,0.0,0.0,0.0,0.0,0.0,0.0,0.0,0.0,0.0,0.0,0.0,0.0,0.0,0.0,0.0,0.0,0.0,0.0,0.0,0.0,0.0,0.0,0.0,0.0,0.0,0.0,0.0,0.0,0.0,0.0,0.0,0.0,0.0,-5.463,-5.436,-5.3887,-5.3887,-5.3709,-5.3487,-5.5025,-5.5771,-5.5876,-5.5653,0.0,0.0,0.0,0.0,0.0,0.0,0.0,0.0,0.0,0.0,0.0,0.0,0.0,0.0,0.0,0.0,0.0,0.0,0.0,0.0,0.0,0.0,0.0,0.0,-5.8184,-5.7877,0.0,0.0,0.0,0.0,0.0,0.0,0.0,0.0,0.0,0.0,0.0,0.0,-4.5594,-4.5594,-4.5594,-4.5594,-4.5594,-4.5594,-4.5594,-4.5594,-4.5594,-4.5594,-4.5751,-4.5845,0.0,0.0,0.0,0.0,0.0,0.0,0.0,0.0,0.0,0.0,0.0,0.0,0.0,0.0,0.0,0.0,0.0,0.0,0.0,0.0,0.0,0.0,0.0,0.0,0.0,0.0,0.0,0.0,0.0,0.0,0.0,0.0,-5.2212,-5.3106,0.0,0.0,0.0,0.0,0.0,0.0,0.0,0.0,0.0,0.0,0.0,0.0,0.0,-5.5132,-5.5173,-5.5078,-5.5194,-5.5543,-5.5132,-5.4722,-5.4323,-5.4323,-5.428,-5.4289,-5.5214,0.0,-5.4659,-5.4965,0.0,0.0,0.0,0.0,0.0,0.0,0.0,0.0,0.0,0.0,0.0,0.0,0.0,0.0,0.0,0.0,0.0,0.0,0.0,0.0,0.0,0.0,-5.83,-5.83,-5.7723,-5.7137,0.0,-5.6329,-5.5434,-5.4511,-5.3722,0.0,0.0,0.0,0.0,0.0,0.0,0.0,-4.5594,-4.5594,-4.5594,-4.5594,-4.5594,-4.5594,-4.5594,-4.5594,-4.5594,-4.5594,-4.5627,-4.5708,-4.5886,-4.5859,0.0,0.0,0.0,0.0,0.0,0.0,0.0,0.0,0.0,0.0,0.0,0.0,0.0,0.0,0.0,0.0,0.0,0.0,0.0,0.0,0.0,0.0,0.0,0.0,0.0,0.0,0.0,0.0,0.0,-5.2414,-5.3126,-5.4453,-5.3433,-5.2779,0.0,0.0,0.0,0.0,0.0,0.0,0.0,0.0,0.0,-5.5121,-5.5088,-5.4993,-5.4779,-5.4497,-5.4455,-5.4644,-5.4201,-5.4021,-5.4063,-5.4063,-5.4201,-5.4503,-5.5305,-5.5454,-5.5137,-5.5289,-5.5896,-5.6662,0.0,0.0,0.0,0.0,-5.7952,-5.8719,-5.9064,-5.9754,0.0,-6.0292,0.0,0.0,0.0,0.0,0.0,0.0,0.0,0.0,0.0,0.0,0.0,-5.83,-5.7627,-5.6868,-5.6387,-5.5972,-5.5453,0.0,-5.3799,-5.2779,-5.1452,0.0,0.0,0.0,0.0,-4.5594,-4.5594,-4.5594,-4.5594,-4.5594,-4.5594,-4.5627,-4.5708,-4.5715,-4.5728,-4.5764,-4.5839,-4.5901,-4.5899,-4.6027,-4.6101,0.0,0.0,0.0,0.0,0.0,0.0,0.0,0.0,0.0,0.0,0.0,0.0,0.0,0.0,0.0,0.0,0.0,0.0,0.0,0.0,0.0,0.0,0.0,0.0,0.0,0.0,0.0,0.0,-5.3068,-5.376,-5.5222,-5.4299,-5.353,0.0,0.0,0.0,0.0,0.0,0.0,-5.5665,-5.5599,-5.5411,-5.5121,-5.5007,-5.4848,-5.4659,-5.4303,-5.4134,-5.4134,-5.3833,-5.3796,-5.3977,-5.3977,-5.417,-5.4541,-5.5355,-5.5694,-5.5701,-5.5637,-5.648,-5.7637,-5.6122,-5.6482,-5.7839,-5.8038,-5.8498,-5.9074,-5.9509,-6.0085,-6.0634,-6.0757,0.0,-5.9492,-5.9492,0.0,0.0,0.0,0.0,-5.8704,-5.9088,-5.8588,-5.7915,-5.7684,-5.7146,-5.6503,-5.5838,-5.5703,-5.5511,0.0,-5.3933,-5.2799,-5.1548,0.0,0.0,0.0,0.0,-4.5845,-4.5633,-4.5594,-4.5594,-4.5594,-4.5594,-4.5648,-4.5783,-4.5803,-4.5832,-4.5894,-4.5992,-4.6027,-4.5944,-4.6113,-4.6177,-4.6149,0.0,0.0,0.0,0.0,0.0,0.0,0.0,0.0,0.0,0.0,0.0,0.0,0.0,0.0,0.0,0.0,0.0,0.0,0.0,0.0,0.0,0.0,0.0,0.0,0.0,0.0,0.0,0.0,0.0,-5.4453,-5.4491,0.0,0.0,0.0,0.0,-5.4376,-5.4472,-5.4857,-5.5665,-5.5331,-5.5134,-5.5088,-5.4716,-5.4701,-5.5061,-5.5048,-5.5034,-5.5034,-5.5021,-5.4804,-5.4452,-5.4452,-5.4487,-5.4541,-5.5355,-5.5694,-5.5713,-5.5701,-5.6189,-5.6838,-5.5608,-5.5679,-5.6578,-5.7352,-5.7662,-5.791,-5.9522,-6.0094,-6.0222,-6.0666,-6.0204,-5.9492,-5.9492,-5.9473,0.0,0.0,-5.9435,-5.9281,-5.855,-5.7723,-5.6868,-5.603,-5.5799,-5.5742,-5.5703,-5.5703,-5.5684,0.0,-5.4318,-5.3164,-5.3087,0.0,-4.9048,-4.8163,-4.7355,-4.6547,-4.571,-4.5594,-4.5594,-4.5594,-4.5594,-4.5648,-4.5783,-4.5803,-4.5832,-4.5894,-4.5907,-4.5951,-4.6082,-4.5981,-4.6039,-4.6289,-4.7832,0.0,0.0,0.0,0.0,0.0,0.0,0.0,0.0,0.0,0.0,0.0,0.0,0.0,0.0,0.0,0.0,0.0,0.0,0.0,0.0,0.0,0.0,0.0,0.0,0.0,0.0,0.0,0.0,-5.5164,-5.4818,0.0,-5.4491,-5.3703,-5.3568,-5.4434,-5.4491,-5.4857,-5.5665,-5.5566,-5.5489,-5.5489,-5.5343,-5.5331,-5.5489,-5.5224,-5.5088,-5.5088,-5.4525,-5.4336,-5.4487,-5.4187,-5.4204,-5.4522,-5.4805,-5.506,-5.5299,-5.5299,-5.5947,-5.6805,-5.5867,-5.6525,-5.8033,-5.8325,-5.8959,-5.9747,-6.0342,-6.0553,-6.0578,-6.0746,-6.0589,-6.0339,-6.0339,-6.0339,-6.0339,-6.0339,-5.9935,-5.9435,-5.9146,-5.803,-5.6926,-5.6618,-5.6107,-5.5703,-5.5703,-5.5703,-5.5703,-5.5703,-5.4357,-5.3203,-5.3203,-5.1087,-4.9298,-4.8971,-4.7778,-4.6797,-4.649,-4.5951,-4.5594,-4.5594,-4.5594,-4.5658,-4.585,-4.5852,-4.5959,-4.6145,-4.617,-4.6175,-4.6224,-4.6723,-4.7041,-4.7129,-4.8711,-4.9609,0.0,0.0,0.0,0.0,0.0,0.0,0.0,0.0,0.0,0.0,0.0,0.0,0.0,0.0,0.0,0.0,0.0,0.0,0.0,0.0,0.0,0.0,0.0,0.0,0.0,-5.3953,-5.4703,-5.5222,-5.5049,-5.4895,-5.4895,-5.4376,-5.428,-5.4857,-5.4895,-5.5145,-5.5665,-5.5703,-5.5703,-5.5703,-5.5577,-5.5566,-5.5703,-5.5173,-5.4966,-5.5088,-5.451,-5.4401,-5.4705,-5.451,-5.4602,-5.489,-5.489,-5.5048,-5.5306,-5.5306,-5.5867,-5.6652,-5.5968,-5.7076,-5.9069,-5.8801,-5.9402,-6.0396,-6.0704,-6.08,-6.08,-6.08,-6.08,-6.08,-6.08,-6.08,-6.08,-6.08,-5.9973,-5.9108,-5.9108,-5.7819,-5.656,-5.656,-5.6107,-5.5703,-5.5703,-5.5703,-5.5703,-5.5703,-5.4357,-5.3203,-5.3203,-5.1337,-4.974,-4.9433,-4.8452,-4.7644,-4.7336,-4.6797,-4.6336,-4.6067,-4.6059,-4.6025,-4.59,-4.5936,-4.6053,-4.6289,-4.6308,-4.6308,-4.6308,-4.6855,-4.7168,-4.7168,-4.8799,-4.9951,-5.0605,0.0,0.0,0.0,0.0,0.0,0.0,0.0,0.0,0.0,0.0,0.0,0.0,0.0,0.0,0.0,0.0,0.0,0.0,0.0,0.0,0.0,0.0,0.0,-5.3472,-5.3991,-5.453,-5.453,-5.5222,-5.5703,-5.5703,-5.5703,-5.5703,-5.5703,-5.5703,-5.5703,-5.5703,-5.5703,-5.5703,-5.5703,-5.5319,-5.5306,-5.5703,-5.4938,-5.4731,-5.5121,-5.5121,-5.5088,-5.5101,-5.5508,-5.5701,-5.5701,-5.5739,-5.5739,-5.575,-5.575,-5.6053,-5.6452,-5.5907,-5.7269,-5.9385,-5.8615,-5.8846,-5.9665,-6.0512,-6.08,-6.08,-6.08,-6.08,-6.08,-6.08,-6.08,-6.08,-6.08,-5.9608,-5.8338,-5.8319,-5.703,-5.5722,-5.5703,-5.5703,-5.5703,-5.5703,-5.5703,-5.5703,-5.5703,-5.4376,-5.3241,-5.3203,-5.1837,-5.0442,-4.9567,-4.9413,0.0,-4.8259,-4.8125,-4.7798,-4.7019,-4.7001,-4.6745,-4.6046,-4.6108,-4.6248,-4.6367,-4.6387,-4.6387,-4.6387,-4.6406,-4.6426,-4.6465,-4.8125,-4.9785,-5.1445,0.0,0.0,0.0,0.0,0.0,0.0,0.0,0.0,0.0,0.0,0.0,0.0,0.0,0.0,0.0,0.0,0.0,0.0,0.0,0.0,0.0,-5.5184,-5.5338,-5.428,-5.4857,-5.5376,-5.5376,-5.5568,-5.5703,-5.5703,-5.5703,-5.5703,-5.5703,-5.5703,-5.5703,-5.5703,-5.5703,-5.5703,-5.5703,-5.5588,-5.5588,-5.5703,-5.5489,-5.5423,-5.5524,-5.5237,-5.5088,-5.5107,-5.5513,-5.5707,-5.5745,-5.6367,-5.6811,-5.7079,-5.7079,-5.7704,-5.8498,-5.6856,-5.7366,-5.9043,-5.8832,-5.9453,-6.0473,-6.0723,-6.08,-6.08,-6.08,-6.08,-6.08,-6.08,-6.08,-6.08,-6.08,-6.0012,-5.905,-5.8454,-5.7473,-5.6483,-5.5838,-5.5703,-5.5703,-5.5703,-5.5703,-5.5703,-5.5703,-5.4857,-5.3933,-5.3318,-5.2299,-5.1298,-5.0471,-4.9798,0.0,-4.9067,-4.849,-4.8029,-4.7798,-4.7867,-4.7901,-4.7796,-4.7905,-4.8045,-4.8183,-4.8183,-4.8183,-4.8183,-4.8789,-4.9394,-4.998,-5.0469,-5.125,0.0,0.0,0.0,0.0,0.0,0.0,0.0,0.0,0.0,0.0,0.0,0.0,0.0,0.0,0.0,0.0,0.0,0.0,0.0,0.0,0.0,0.0,-5.5395,-5.553,-5.5068,-5.5415,-5.5703,-5.5703,-5.5703,-5.5703,-5.5703,-5.5703,-5.5703,-5.5703,-5.5703,-5.5703,-5.5703,-5.5703,-5.5703,-5.5703,-5.5703,-5.5703,-5.5703,-5.5524,-5.5435,-5.5454,-5.5212,-5.5279,-5.5674,-5.6058,-5.6449,0.0,-5.732,-5.7679,-5.7889,-5.7889,-5.852,0.0,0.0,0.0,0.0,0.0,-6.0156,-6.08,-6.08,-6.08,-6.08,-6.08,-6.08,-6.08,-6.08,-6.08,-6.08,-6.08,-6.0165,-5.9396,-5.8915,-5.8184,-5.7319,-5.6453,-5.6252,-5.6126,-5.578,-5.5703,-5.5703,-5.5703,-5.5318,0.0,-5.3895,-5.2712,-5.1731,-5.1279,-5.0471,-4.9933,-4.9933,-4.9544,-4.9123,-4.8775,-4.8891,-4.89,-4.8615,-4.871,0.0,0.0,0.0,-4.8906,-4.8906,-4.9394,0.0,0.0,0.0,-5.1836,-5.2695,0.0,0.0,0.0,-5.3014,-5.3057,0.0,0.0,0.0,0.0,0.0,0.0,0.0,0.0,0.0,0.0,0.0,0.0,0.0,0.0,0.0,0.0,-5.5703,-5.5703,-5.5703,-5.5703,-5.5703,-5.5703,-5.5703,-5.5703,-5.5703,-5.5703,-5.5703,-5.5703,-5.5703,-5.5703,-5.5703,0.0,0.0,0.0,0.0,-5.5703,-5.5703,-5.5363,-5.5173,-5.5173,-5.5268,-5.5708,-5.6498,-5.7032,-5.7703,-5.8434,-5.855,-5.8588,-5.8588,-5.8588,-5.9011,-5.9588,-5.8858,-5.9492,-6.08,-6.08,-6.08,-6.08,-6.08,0.0,0.0,-6.08,-6.08,-6.08,-6.08,-6.08,-6.08,-6.08,-6.0242,-5.9627,-5.9531,-5.8973,-5.8223,-5.7349,-5.708,-5.6791,-5.6011,-5.5761,-5.5703,-5.5703,-5.5703,-5.5472,-5.4761,-5.3203,-5.2038,-5.2038,-5.1279,-5.0731,-5.0827,-5.088,-5.0598,-4.9824,0.0,0.0,-4.9059,-4.9095,-4.918,-4.918,-4.918,-4.9238,-4.9316,-4.9336,-4.9746,-5.0605,-5.1328,-5.2129,-5.2988,-5.3769,-5.459,-5.543,-5.4436,-5.4087,0.0,0.0,0.0,0.0,0.0,0.0,0.0,0.0,0.0,0.0,0.0,0.0,0.0,0.0,0.0,-5.5665,-5.5703,-5.5703,-5.5703,-5.5703,-5.5703,-5.5703,-5.5703,-5.5703,-5.5703,-5.5703,-5.5703,-5.5703,-5.5703,-5.5703,-5.5703,-5.5703,-5.5703,-5.5703,-5.5703,-5.5703,-5.5703,-5.561,-5.5588,-5.5588,0.0,0.0,-5.6933,-5.8354,-5.9108,-5.9319,-6.0012,-6.0319,-6.0319,-6.0319,-6.0416,-6.0531,-6.0377,-6.0512,-6.08,-6.08,-6.08,-6.08,-6.08,-6.08,-6.08,-6.08,-6.08,-6.08,-6.08,-6.08,0.0,-6.08,-6.0685,-6.0396,-5.9685,-5.9377,-5.9069,-5.8242,-5.7511,-5.6945,-5.6791,-5.6214,-5.5703,-5.5703,-5.5703,-5.5645,-5.5491,-5.4068,-5.2953,-5.2953,-5.1664,-5.0933,-5.1587,-5.1219,-5.0831,-5.0676,-5.0839,-5.0891,-5.0735,-5.0833,-5.0918,-5.0918,-5.0918,-5.123,-5.1933,-5.1973,-5.2383,-5.3242,-5.3418,-5.3926,-5.4805,-5.4961,-5.5508,-5.6328,-5.5429,-5.5409,0.0,0.0,0.0,0.0,0.0,0.0,0.0,0.0,0.0,0.0,0.0,-5.5222,-5.5626,0.0,-5.5222,-5.5626,-5.6069,-5.6214,-5.5761,-5.6069,-5.6349,-5.6349,-5.6349,-5.6349,-5.6349,-5.6349,-5.6175,-5.5722,-5.5703,-5.5703,-5.5703,-5.5703,-5.5703,-5.5703,-5.6107,-5.6126,-5.5703,-5.6569,-5.678,-5.6368,-5.7223,-5.7857,-5.828,-5.9127,-5.9742,-6.0165,-6.0608,-6.08,-6.08,-6.08,-6.08,-6.08,-6.08,-6.08,-6.08,-6.08,-6.08,-6.08,-6.08,-6.08,-6.08,-6.08,-6.08,-6.08,-6.08,-6.08,-6.08,-6.08,-6.08,-6.0704,-6.0262,-6.0146,-5.9935,-5.9108,-5.8261,-5.753,-5.7099,-5.6329,-5.5703,-5.5703,-5.5703,-5.5703,-5.5703,-5.4664,-5.3857,-5.3857,-5.276,-5.1963,-5.2006,-5.215,-5.2108,-5.1736,-5.2247,-5.2606,-5.2606,-5.2655,-5.2695,-5.2695,-5.2695,-5.2891,-5.332,-5.3359,-5.3555,-5.3984,-5.4433,-5.4863,-5.5293,-5.5742,-5.6172,-5.6582,-5.6152,-5.6172,0.0,0.0,0.0,0.0,0.0,0.0,0.0,-5.5703,-5.5703,-5.5703,-5.5184,-5.4934,-5.5568,-5.5164,-5.4991,-5.5818,-5.6541,-5.6753,-5.6049,-5.656,-5.7003,-5.7003,-5.6849,-5.6753,-5.6753,-5.6753,-5.6464,-5.5742,-5.5703,-5.5703,-5.5703,-5.5857,-5.5953,-5.5953,-5.681,-5.6915,-5.6203,-5.7607,-5.7953,-5.7272,-5.8127,-5.8877,-5.9511,-5.9685,-6.0146,-6.08,-6.08,-6.08,-6.08,-6.08,-6.08,-6.08,-6.08,-6.08,-6.08,-6.08,-6.08,-6.08,-6.08,-6.08,-6.08,-6.08,-6.08,-6.08,-6.08,-6.08,-6.08,-6.08,-6.08,-6.08,-6.08,-6.08,-6.0608,-5.9915,-5.9127,-5.83,-5.7434,-5.6703,-5.6107,-5.5761,-5.5838,-5.5895,-5.5722,-5.5164,-5.4722,-5.4722,-5.3888,-5.3088,-5.2667,-5.3207,-5.3409,-5.2818,-5.3508,-5.4004,-5.4004,-5.4004,-5.4004,-5.4004,-5.4004,-5.4082,-5.4258,-5.4258,-5.4336,-5.4492,-5.5195,-5.5547,-5.5547,-5.6269,-5.6699,-5.6855,-5.6855,-5.6855,-5.1697,-5.2376,-5.3525,-5.3494,-5.453,-5.5588,0.0,-5.5703,-5.5703,-5.5703,-5.5626,-5.5588,-5.5684,-5.5626,-5.5838,-5.6714,-5.6945,-5.6964,-5.6868,-5.6945,-5.7003,-5.7003,-5.6329,-5.5838,-5.5838,-5.5838,-5.5799,-5.5703,-5.5703,-5.5703,-5.5703,-5.6426,-5.6849,-5.6849,-5.7703,-5.8107,-5.8011,-5.8204,-5.8261,-5.8165,-5.8973,-5.9415,-5.9531,-6.03,-6.0704,-6.08,-6.08,-6.08,-6.08,-6.08,-6.08,-6.08,-6.08,-6.08,-6.08,-6.08,-6.08,-6.08,-6.08,-6.08,-6.08,-6.08,-6.08,-6.08,-6.08,-6.08,-6.08,-6.08,-6.08,-6.08,-6.08,-6.08,-6.0781,-6.0685,-5.9992,-5.9146,-5.8338,-5.8088,-5.755,-5.5992,-5.6329,-5.6618,-5.5818,-5.5626,-5.5568,-5.5568,-5.4311,-5.3623,-5.4324,-5.4042,-5.3755,-5.3665,-5.386,-5.4004,-5.4004,-5.4004,-5.4004,-5.4004,-5.4004,-5.4355,-5.5117,-5.5156,-5.5527,-5.6289,-5.6406,-5.6445,-5.6445,-5.6543,-5.6992,-5.7754,-5.7754,-5.7754,-5.3409,-5.3291,-5.3504,-5.4426,-5.5184,-5.5703,-5.5703,-5.5703,-5.5703,-5.5703,-5.5703,-5.5703,-5.5703,-5.6107,-5.6579,-5.6945,-5.783,-5.8107,-5.7137,-5.7003,-5.6637,-5.5665,-5.5222,-5.5376,-5.6368,-5.6464,-5.6252,-5.5742,-5.5703,-5.5915,-5.6426,-5.681,-5.7234,-5.7742,-5.8569,-5.8781,-5.83,-5.9261,-5.9492,-5.9011,-5.9858,-6.0262,-6.0262,-6.0627,-6.08,-6.08,-6.08,-6.08,-6.08,-6.08,-6.08,-6.08,-6.08,-6.08,-6.08,-6.08,-6.08,-6.08,-6.08,-6.08,-6.08,-6.08,-6.08,-6.08,-6.08,-6.08,-6.08,-6.08,-6.08,-6.08,-6.08,-6.08,-6.08,-6.08,-6.0127,-5.9415,-5.9069,-5.8627,-5.8088,-5.7357,-5.7088,-5.6887,-5.6522,-5.603,-5.5728,-5.5798,-5.5266,-5.4846,-5.4815,-5.5104,-5.5335,-5.542,-5.5487,-5.5508,-5.5508,-5.5508,-5.5508,-5.5508,-5.5508,-5.5683,-5.6035,-5.6055,-5.623,-5.6582,-5.6601,-5.6601,-5.6601,-5.7109,-5.7539,-5.791,-5.8418,-5.8906,-5.4007,-5.3734,-5.36,-5.5012,-5.553,-5.5703,-5.5703,-5.5703,-5.5703,-5.5703,-5.5703,-5.5703,-5.5703,-5.6233,-5.681,-5.728,-5.8377,-5.8742,-5.753,-5.7157,-5.6464,-5.4991,-5.4645,-5.5049,-5.6503,-5.6637,-5.6387,-5.5742,-5.5915,-5.6329,-5.6964,-5.7445,-5.7973,-5.8607,-5.9435,-5.9588,-5.8992,-6.0185,-6.0473,-5.9877,-6.0492,-6.08,-6.08,-6.08,-6.08,-6.08,-6.08,-6.08,-6.08,-6.08,-6.08,-6.08,-6.08,-6.08,-6.08,-6.08,-6.08,-6.08,-6.08,-6.08,-6.08,-6.08,-6.08,-6.08,-6.08,-6.08,-6.08,-6.08,-6.08,-6.08,-6.08,-6.08,-6.08,-6.08,-6.0319,-5.98,-5.955,-5.9223,-5.8858,-5.8396,-5.7973,-5.7541,-5.708,-5.6508,-5.6078,-5.591,-5.5976,-5.585,-5.5371,-5.5984,-5.6488,-5.6582,-5.6601,-5.6601,-5.6601,-5.6601,-5.6699,-5.6933,-5.6953,-5.707,-5.7305,-5.7324,-5.7207,-5.6953,-5.6953,-5.6953,-5.6953,-5.7598,-5.8144,-5.8594,-5.9238,-5.9961,-5.2173,-5.2874,-5.3567,-5.4341,-5.5126,-5.5703,-5.5703,-5.5703,-5.5703,-5.5703,-5.5703,-5.5703,-5.5703,-5.5722,-5.628,-5.7992,-5.83,-5.8319,-5.828,-5.753,-5.6676,-5.5761,-5.4972,-5.4818,0.0,-5.5742,-5.5722,-5.5703,-5.6483,-5.6964,-5.7003,-5.8531,-5.9435,-5.9454,-6.03,-6.0742,-6.0723,-6.0762,-6.0781,-6.0762,-6.0781,-6.08,-6.08,-6.08,-6.08,-6.08,-6.08,-6.08,-6.08,-6.08,-6.08,-6.08,-6.08,-6.08,-6.08,-6.08,-6.08,-6.08,-6.08,-6.08,-6.08,-6.08,-6.08,-6.08,-6.08,-6.08,-6.08,-6.08,-6.08,-6.08,-6.08,-6.08,-6.08,-6.08,-6.0781,-6.0531,-5.9685,-6.0146,-6.0242,-5.8627,-5.8915,-5.8915,-5.7291,-5.7091,-5.6875,-5.6032,-5.6173,-5.6383,-5.6366,-5.6493,-5.6601,-5.6601,-5.6601,-5.6601,-5.6601,-5.6601,-5.6953,-5.7812,-5.7851,-5.8242,-5.9082,-5.9121,-5.8711,-5.7871,-5.7851,-5.7851,-5.7851,-5.789,-5.873,-6.0312,-6.0351,-6.082,-5.2686,-5.3158,-5.36,-5.4955,-5.5491,-5.5703,-5.5703,-5.5703,-5.5703,-5.5703,-5.528,-5.4895,-5.4895,-5.5338,-5.5895,-5.6472,-5.7992,-5.8704,-5.7588,-5.7176,-5.6483,-5.5068,-5.4664,-5.4607,-5.4876,0.0,0.0,-5.5703,-5.6522,-5.7253,-5.7838,-5.8896,-5.9762,-6.0339,-6.0646,-6.08,-6.08,-6.08,-6.08,-6.08,-6.08,-6.08,-6.08,-6.08,-6.08,-6.08,-6.08,-6.08,-6.08,-6.08,-6.08,-6.08,-6.08,-6.08,-6.08,-6.08,-6.08,-6.08,-6.08,-6.08,-6.08,-6.08,-6.08,-6.08,-6.08,-6.08,-6.08,-6.08,-6.08,-6.08,-6.08,-6.08,-6.08,-6.08,-6.08,-6.0723,-6.0435,-6.0589,-6.0627,-6.0069,-5.983,-5.9524,-5.8954,-5.8017,-5.7086,-5.6339,-5.6822,-5.7285,-5.7374,-5.7948,-5.832,-5.832,-5.832,-5.832,-5.832,-5.832,-5.8457,-5.873,-5.8769,-5.8887,-5.9199,-5.9199,-5.9062,-5.8769,-5.8769,-5.8769,-5.8769,-5.9297,-5.9844,-6.041,-6.0996,-6.1426,-5.3042,-5.353,-5.3991,-5.5357,-5.5703,-5.5703,-5.5703,-5.5703,-5.5607,-5.5318,-5.4857,-5.4491,-5.4491,-5.4914,-5.5472,-5.6069,-5.753,-5.8223,-5.7157,-5.6733,-5.6137,-5.5049,-5.4684,-5.4607,-5.4895,-5.5395,0.0,-5.5703,-5.6799,-5.7703,-5.828,-5.9358,-6.0223,-6.0781,-6.08,-6.08,-6.08,-6.08,-6.08,-6.08,-6.08,-6.08,-6.08,-6.08,-6.08,-6.08,-6.08,-6.08,-6.08,-6.08,-6.08,-6.08,-6.08,-6.08,-6.08,-6.08,-6.08,-6.08,-6.08,-6.08,-6.08,-6.08,-6.08,-6.08,-6.08,-6.08,-6.08,-6.08,-6.08,-6.08,-6.08,-6.08,-6.08,-6.08,-6.08,-6.08,-6.08,-6.08,-6.0816,-6.0869,-6.0529,-6.014,-5.991,-5.8807,-5.7806,-5.745,-5.8123,-5.8483,-5.7968,-5.8652,-5.9199,-5.9199,-5.9199,-5.9199,-5.9199,-5.9199,-5.9316,-5.9609,-5.9629,-5.9765,-6.0078,-6.0098,-5.9941,-5.9629,-5.9629,-5.9629,-5.9629,-6.0156,-6.0566,-6.0879,-6.1445,-6.1699,-5.3267,-5.4042,-5.4761,-5.5626,-5.5799,-5.5761,-5.5761,-5.5722,-5.5472,-5.4664,-5.4491,-5.4491,-5.4434,-5.4472,-5.503,-5.6676,-5.7003,-5.708,-5.708,-5.6338,-5.5818,-5.5818,-5.5126,-5.4953,-5.5742,-5.5818,0.0,-5.5818,0.0,-5.8319,-5.8357,-5.9915,-6.08,-6.08,-6.08,-6.08,-6.08,-6.08,-6.08,-6.08,-6.08,-6.08,-6.08,-6.08,-6.08,-6.08,-6.08,-6.08,-6.08,-6.08,-6.08,-6.08,-6.08,-6.08,-6.08,-6.08,-6.08,-6.08,-6.08,-6.08,-6.08,-6.08,-6.08,-6.08,-6.08,-6.08,-6.08,-6.08,-6.08,-6.08,-6.08,-6.08,-6.08,-6.08,-6.08,-6.08,-6.08,-6.0812,-6.0856,-6.0972,-6.1004,-6.0814,-6.0147,-5.9451,-5.9035,-5.9179,-5.9883,-5.9824,-5.8223,-5.8789,-5.9336,-5.9336,-5.9336,-5.9336,-5.9336,-5.9336,-5.9648,-6.043,-6.0469,-6.084,-6.168,-6.1699,-6.1308,-6.0488,-6.0469,-6.0469,-6.0469,-6.0469,-6.0898,-6.1699,-6.1699,-6.1699,-5.4738,-5.5255,-5.5761,-5.7261,-5.7146,-5.6676,-5.6676,-5.6175,-5.5472,-5.4664,-5.4491,-5.4299,-5.3645,-5.4068,-5.4838,-5.5857,-5.7126,-5.7973,-5.7973,-5.778,-5.7646,-5.7646,-5.6876,-5.6703,-5.755,-5.7646,-5.7646,0.0,-5.805,-5.8569,-5.9165,-6.0204,-6.08,-6.08,-6.08,-6.08,-6.08,-6.08,-6.08,-6.08,-6.08,-6.08,-6.08,-6.08,-6.08,-6.08,-6.08,-6.08,-6.08,-6.08,-6.08,-6.08,-6.08,-6.08,-6.08,-6.08,-6.08,-6.08,-6.08,-6.08,-6.08,-6.08,-6.08,-6.08,-6.08,-6.08,-6.08,-6.08,-6.08,-6.08,-6.08,-6.08,-6.08,-6.08,-6.08,-6.08,-6.08,-6.0882,-6.0963,-6.0988,-6.1201,-6.1132,-6.0427,-6.0149,-5.9822,-5.9277,-5.9883,-6.0254,-5.9824,-6.0527,-6.1055,-6.1055,-6.1055,-6.1055,-6.1055,-6.1055,-6.1152,-6.1367,-6.1367,-6.1465,-6.1699,-6.1699,-6.1601,-6.1367,-6.1367,-6.1367,-6.1367,-6.1367,-6.1484,-6.1699,-6.1699,-6.1699,-5.5919,-5.6549,-5.7088,-5.8069,-5.7646,-5.7003,-5.7003,-5.6329,-5.5472,-5.4664,-5.4491,-5.4357,-5.3857,-5.4453,-5.5299,-5.6126,-5.7415,-5.83,-5.83,-5.83,-5.83,-5.83,-5.7877,-5.7761,-5.8261,-5.83,-5.8454,0.0,-5.8838,-5.9031,-5.9473,-6.0319,-6.08,-6.08,-6.08,-6.08,-6.08,-6.08,-6.08,-6.08,-6.08,-6.08,-6.08,-6.08,-6.08,-6.08,0.0,-6.08,-6.08,-6.08,-6.08,-6.08,-6.08,-6.08,-6.08,-6.08,-6.08,-6.08,-6.08,-6.08,-6.08,-6.08,-6.08,-6.08,-6.08,-6.08,-6.08,-6.08,-6.08,-6.08,-6.08,-6.08,-6.08,-6.08,-6.08,-6.08,-6.08,-6.0914,-6.1037,-6.1195,-6.1428,-6.1453,-6.1035,-6.0976,-6.082,-6.0371,-6.0683,-6.0976,-6.0976,-6.1406,-6.1699,-6.1699,-6.1699,-6.1699,-6.1699,-6.1699,-6.1699,-6.1699,-6.1699,-6.1699,-6.1699,-6.1699,-6.1699,-6.1699,-6.1699,-6.1699,-6.1699,-6.1699,-6.1699,-6.1699,-6.1699,-6.1699,-5.708,-5.7877,-5.8492,-5.8607,-5.7896,-5.7176,-5.7176,-5.6428,-5.5476,-5.4675,-5.4599,-5.4648,-5.4521,-5.5164,-5.6011,-5.7022,-5.7819,-5.8377,-5.8607,-5.8531,-5.8511,-5.8627,-5.8531,-5.8511,-5.8627,-5.8627,-5.8915,-5.9627,-5.9665,-5.9665,-5.9665,-6.0396,-6.08,-6.08,-6.08,-6.08,-6.08,-6.08,-6.08,-6.08,-6.08,-6.08,-6.08,-6.08,-6.08,-6.08,0.0,0.0,-6.08,-6.08,-6.08,-6.08,-6.08,-6.08,-6.08,-6.08,-6.08,-6.08,-6.08,-6.08,-6.08,-6.08,-6.08,-6.08,-6.08,-6.08,-6.08,-6.08,-6.08,-6.08,-6.08,-6.08,-6.08,-6.08,-6.08,-6.0793,-6.0819,-6.0954,-6.1161,-6.1469,-6.1612,-6.1699,-6.1699,-6.1699,-6.1699,-6.1699,-6.1699,-6.1699,-6.1699,-6.1699,-6.1699,-6.1699,-6.1699,-6.1699,-6.1699,-6.1699,-6.1699,-6.1699,-6.1699,-6.1699,-6.1699,-6.1699,-6.1699,-6.1699,-6.1699,-6.1699,-6.1699,-6.1699,-6.1699,-6.1699,-6.1699,-6.1699,-5.8646,-5.9184,-5.9454,-6.0185,-5.9204,-5.8069,-5.8069,-5.6927,-5.5611,-5.4697,-5.5133,-5.5418,-5.4629,-5.5164,-5.6222,-5.7819,-5.8204,-5.8781,-6.0165,-5.9742,-5.9569,-6.0281,-5.9723,-5.9569,-6.03,-6.0358,-6.0416,0.0,-6.0569,-6.0569,-6.0569,-6.0723,-6.08,-6.08,-6.08,-6.08,-6.08,-6.08,-6.08,-6.08,-6.08,-6.08,-6.08,-6.08,-6.08,-6.08,-6.08,0.0,-6.08,-6.08,-6.08,-6.08,-6.08,-6.08,-6.08,-6.08,-6.08,-6.08,-6.08,-6.08,-6.08,-6.08,-6.08,-6.08,-6.08,-6.08,-6.08,-6.08,-6.08,-6.08,-6.08,-6.08,-6.08,-6.08,-6.08,-6.0831,-6.0935,-6.1201,-6.1449,-6.1634,-6.1679,-6.1699,-6.1699,-6.1699,-6.1699,-6.1699,-6.1699,-6.1699,-6.1699,-6.1699,-6.1699,-6.1699,-6.1699,-6.1699,-6.1699,-6.1699,-6.1699,-6.1699,-6.1699,-6.1699,-6.1699,-6.1699,-6.1699,-6.1699,-6.1699,-6.1699,-6.1699,-6.1699,-6.1699,-6.1699,-6.1699,-6.1699,-5.9908,-6.0943,-6.1523,-6.103,-5.9978,-5.8954,-5.851,-5.7116,-5.5775,-5.5314,-5.5945,-5.6274,-5.5294,-5.6184,-5.7338,-5.8165,-5.8646,-5.9358,-6.0608,-6.0435,-6.0319,-6.0742,-6.0435,-6.0339,-6.0762,-6.08,-6.08,-6.08,-6.08,-6.08,-6.08,-6.08,-6.08,-6.08,-6.08,-6.08,-6.08,-6.08,-6.08,-6.08,-6.08,-6.08,-6.08,-6.08,-6.08,-6.08,-6.08,0.0,-6.08,-6.08,-6.08,-6.08,-6.08,-6.08,-6.08,-6.08,-6.08,-6.08,-6.08,-6.08,-6.08,-6.08,-6.08,-6.08,-6.08,-6.08,-6.08,-6.08,-6.08,-6.08,-6.08,-6.08,-6.08,-6.08,-6.0847,-6.0963,-6.1208,-6.14,-6.1544,-6.1679,-6.1699,-6.1699,-6.1699,-6.1699,-6.1699,-6.1699,-6.1699,-6.1699,-6.1699,-6.1699,-6.1699,-6.1699,-6.1699,-6.1699,-6.1699,-6.1699,-6.1699,-6.1699,-6.1699,-6.1699,-6.1699,-6.1699,-6.1699,-6.1699,-6.1699,-6.1699,-6.1699,-6.1699,-6.1699,-6.1699,-6.1699,-6.1699,-6.0519,-6.1926,-6.2779,-6.1402,-6.0292,-5.9346,-5.8692,-5.7207,-5.5966,-5.5966,-5.6645,-5.6989,-5.6174,-5.7266,-5.8357,-5.8531,-5.9088,-5.98,-6.0685,-6.08,-6.08,-6.08,-6.08,-6.08,-6.08,-6.08,0.0,-6.08,-6.08,0.0,-6.08,-6.08,-6.08,-6.08,-6.08,-6.08,-6.08,-6.08,-6.08,-6.08,-6.08,-6.08,-6.08,-6.08,-6.08,-6.08,-6.08,0.0,0.0,-6.08,-6.08,-6.08,-6.08,-6.08,-6.08,-6.08,-6.08,-6.08,-6.08,-6.08,-6.08,-6.08,-6.08,-6.08,-6.08,-6.08,-6.08,-6.08,-6.08,-6.08,-6.08,-6.08,-6.0804,-6.0853,-6.0982,-6.1182,-6.1435,-6.1515,-6.1579,-6.1679,-6.1699,-6.1699,-6.1699,-6.1699,-6.1699,-6.1699,-6.1699,-6.1699,-6.1699,-6.1699,-6.1699,-6.1699,-6.1699,-6.1699,-6.1699,-6.1699,-6.1699,-6.1699,-6.1699,-6.1699,-6.1699,-6.1699,-6.1699,-6.1699,-6.1699,-6.1699,-6.1699,-6.1699,-6.1699,-6.1699,-6.1699,-6.1699,-5.9853,-6.0792,-6.1479,-6.1304,-5.9947,-5.8622,-5.8668,-5.7381,-5.6175,-5.6175,-5.6831,-5.7321,-5.7105,-5.7737,-5.855,-5.9281,-5.9454,-5.98,-6.0685,-6.08,-6.08,-6.08,-6.08,-6.08,-6.08,-6.08,-6.08,-6.08,0.0,0.0,-6.08,-6.08,-6.08,-6.08,-6.08,-6.08,-6.08,-6.08,-6.08,-6.08,-6.08,-6.08,-6.08,-6.08,-6.08,-6.08,-6.08,0.0,0.0,-6.08,-6.08,-6.08,-6.08,-6.08,-6.08,-6.08,-6.08,-6.08,-6.08,-6.08,-6.08,-6.08,-6.08,-6.08,-6.08,-6.08,-6.08,-6.08,-6.08,-6.08,-6.08,-6.08,-6.0831,-6.0954,-6.1226,-6.1465,-6.1481,-6.1605,-6.1699,-6.1699,-6.1699,-6.1699,-6.1699,-6.1699,-6.1699,-6.1699,-6.1699,-6.1699,-6.1699,-6.1699,-6.1699,-6.1699,-6.1699,-6.1699,-6.1699,-6.1699,-6.1699,-6.1699,-6.1699,-6.1699,-6.1699,-6.1699,-6.1699,-6.1699,-6.1699,-6.1699,-6.1699,-6.1699,-6.1699,-6.1699,-6.1699,-6.1699,-5.9999,-6.1521,-6.273,-6.1681,-6.0462,-5.9411,-5.8921,-5.7525,-5.6476,-5.6983,-5.7744,-5.8248,-5.8021,-5.8642,-5.9272,-5.9469,-5.9492,-5.98,-6.0685,-6.08,-6.08,-6.08,-6.08,-6.08,-6.08,0.0,-6.08,-6.08,0.0,0.0,-6.08,-6.08,-6.08,-6.08,-6.08,-6.08,-6.08,-6.08,-6.08,-6.08,-6.08,-6.08,-6.08,-6.08,-6.08,-6.0819,-6.1339,0.0,0.0,-6.2108,-6.23,-6.23,-6.23,-6.23,-6.23,-6.23,-6.23,-6.23,-6.23,-6.1993,-6.1581,-6.1581,-6.1223,-6.08,-6.08,-6.08,-6.08,-6.08,-6.08,-6.08,-6.08,-6.0858,-6.0972,-6.1238,-6.1389,-6.1515,-6.1608,-6.1658,-6.1699,-6.1699,-6.1699,-6.1699,-6.1699,-6.1699,-6.1699,-6.1699,-6.1699,-6.1699,-6.1699,-6.1699,-6.1699,-6.1699,-6.1699,-6.1699,-6.1699,-6.1699,-6.1699,-6.1699,-6.1699,-6.1699,-6.1699,-6.1699,-6.1699,-6.1699,-6.2226,-6.2226,-6.1699,-6.2226,-6.2207,-6.1719,-6.2246,-6.248,-5.9881,-6.161,-6.3093,-6.1863,-6.0878,-5.999,-5.9165,-5.7848,-5.6963,-5.7625,-5.8373,-5.8925,-5.8979,-5.9642,-6.012,-5.9965,-5.9914,-6.0108,-6.0704,-6.08,-6.08,-6.08,-6.08,-6.08,-6.08,-6.08,-6.08,-6.08,0.0,0.0,-6.08,-6.08,-6.08,-6.08,-6.08,-6.08,-6.08,-6.08,-6.08,-6.08,-6.08,-6.08,-6.08,-6.08,-6.08,-6.0839,0.0,0.0,0.0,-6.2974,-6.3288,-6.3288,-6.3288,-6.3288,-6.3288,-6.3288,-6.3288,-6.3288,-6.3288,-6.2762,-6.2101,-6.2101,-6.1524,-6.08,-6.08,-6.08,-6.08,-6.08,-6.08,-6.0804,-6.0856,-6.0963,-6.116,-6.1428,-6.154,-6.1582,-6.1679,-6.1699,-6.1699,-6.1699,-6.1699,-6.1699,-6.1699,-6.1699,-6.1699,-6.1699,-6.1699,-6.1699,-6.1699,-6.1699,-6.1699,-6.1699,-6.1699,-6.1699,-6.1699,-6.1699,-6.1699,-6.1699,-6.1699,-6.1699,-6.1699,-6.1699,-6.1816,-6.207,-6.2695,-6.2812,-6.2461,-6.3086,-6.3066,-6.248,-6.3105,-6.3379,-5.9219,-6.0449,-6.1719,-6.1699,-6.0944,-6.0022,-5.9354,-5.8403,-5.7738,-5.787,-5.8438,-5.9156,-6.0015,-6.0617,-6.0978,-6.0978,-6.0883,-6.0781,-6.08,-6.08,-6.08,-6.08,-6.08,-6.08,-6.08,-6.08,-6.08,0.0,0.0,0.0,-6.08,-6.08,-6.08,-6.08,-6.08,-6.08,-6.08,-6.08,-6.08,-6.08,-6.08,-6.08,-6.08,-6.08,-6.08,0.0,0.0,0.0,0.0,-6.2974,-6.3288,-6.3288,-6.3288,-6.3288,-6.3288,-6.3288,-6.3288,-6.3288,-6.3288,-6.2762,-6.2101,-6.2101,-6.1524,-6.08,-6.08,-6.08,-6.08,-6.08,-6.08,-6.0831,-6.0953,-6.115,-6.1323,-6.1462,-6.1606,-6.1699,-6.1699,-6.1699,-6.1699,-6.1699,-6.1699,-6.1699,-6.1699,-6.1699,-6.1699,-6.1699,-6.1699,-6.1699,-6.1699,-6.1699,-6.1699,-6.1699,-6.1699,-6.1699,-6.1699,-6.1699,-6.1699,-6.1699,-6.1699,-6.1699,-6.1699,-6.1699,-6.2109,-6.2969,-6.3008,-6.3418,-6.4277,-6.4277,-6.4277,-6.4277,-6.4277,-6.4297,-5.8301,-5.9121,-6.0117,-6.0664,-6.0155,-5.9469,-5.9258,-5.8944,-5.8746,-5.8789,-5.9393,-6.0163,-6.0946,-6.1222,-6.1267,-6.1029,-6.0953,-6.0895,-6.0816,-6.08,-6.08,-6.08,-6.08,-6.08,0.0,0.0,0.0,0.0,0.0,0.0,-6.08,-6.08,-6.08,-6.08,-6.08,-6.08,-6.08,-6.08,-6.08,-6.08,-6.08,-6.08,-6.08,-6.08,0.0,0.0,0.0,0.0,0.0,-6.4474,-6.507,-6.507,-6.507,-6.507,-6.507,-6.507,-6.507,-6.507,-6.507,-6.4512,-6.3705,-6.3108,-6.2358,-6.1581,-6.0973,-6.08,-6.08,-6.08,-6.088,-6.0982,-6.1158,-6.1328,-6.1465,-6.1608,-6.1678,-6.1699,-6.1699,-6.1699,-6.1699,-6.1699,-6.1699,-6.1699,-6.1699,-6.1699,-6.1699,-6.1699,-6.1699,-6.1699,-6.1699,-6.1699,-6.1699,-6.1699,-6.1699,-6.1699,-6.1699,-6.1699,-6.1699,-6.1699,-6.1699,-6.1699,-6.1699,-6.1699,-6.2109,-6.2988,-6.3594,-6.4023,-6.4297,-6.4902,-6.5195,-6.5195,-6.5195,-6.5508,-5.789,-5.8535,-5.9394,-6.0195,-6.0019,-5.9648,-5.9648,-5.9648,-5.9648,-5.9648,-6.0058,-6.0643,-6.1427,-6.1522,-6.1428,-6.1226,-6.1093,-6.0972,-6.0883,-6.0842,-6.08,-6.08,-6.08,0.0,0.0,-6.08,0.0,0.0,0.0,0.0,-6.08,-6.08,-6.08,-6.08,-6.08,-6.08,-6.08,-6.08,-6.08,-6.08,-6.08,-6.08,-6.08,-6.08,0.0,0.0,0.0,0.0,0.0,-6.532,-6.5897,-6.5897,-6.5897,-6.5897,-6.5897,-6.5897,-6.5897,-6.5897,-6.5897,-6.532,-6.4455,-6.3589,-6.2531,-6.1524,-6.0954,-6.08,-6.08,-6.08,-6.0904,-6.1048,-6.1246,-6.1411,-6.1522,-6.1678,-6.1699,-6.1699,-6.1699,-6.1699,-6.1699,-6.1699,-6.1699,-6.1699,-6.1699,-6.1699,-6.1699,-6.1699,-6.1699,-6.1699,-6.1699,-6.1699,-6.1699,-6.1699,-6.1699,-6.1699,-6.1699,-6.1699,-6.1699,-6.1699,-6.1699,-6.1699,-6.1699,-6.2012,-6.2598,-6.3476,-6.4355,-6.4941,-6.5273,-6.582,-6.6094,-6.6094,-6.6094,-6.6387,0.0,-5.8496,-5.9219,-6.0019,-6.0273,-6.0312,-6.0312,-6.041,0.0,-6.041,-6.0449,-6.0742,-6.1543,-6.1606,-6.1509,-6.1504,-6.1232,-6.1023,-6.1006,-6.0873,-6.08,0.0,-6.08,0.0,-6.08,0.0,0.0,0.0,0.0,0.0,-6.08,-6.08,-6.08,-6.08,-6.08,-6.08,-6.08,-6.08,-6.08,-6.08,-6.08,-6.08,-6.08,-6.08,0.0,0.0,0.0,0.0,0.0,-6.5513,-6.5897,-6.5897,-6.5897,-6.5897,-6.5897,-6.5897,-6.5897,-6.5897,-6.5897,-6.5378,-6.4551,-6.3608,-6.2204,-6.0877,-6.0819,-6.08,-6.0812,-6.0816,-6.0905,-6.1073,-6.1265,-6.14,-6.1547,-6.1678,-6.1699,-6.1699,-6.1699,-6.1699,-6.1699,-6.1699,-6.1699,-6.1699,-6.1699,-6.1699,-6.1699,-6.1699,-6.1699,-6.1699,-6.1699,-6.1699,-6.1699,-6.1699,-6.1758,-6.1797,-6.1797,-6.1738,-6.1699,-6.1699,-6.1699,-6.1738,-6.1797,-6.2578,-6.3437,-6.4375,-6.5254,-6.6094,-6.6894,-6.6894,-6.6894,-6.6894,-6.6894,-6.6894,-5.8711,0.0,-5.7422,-5.8262,-5.8984,-5.9473,0.0,-6.0469,-6.1211,-6.0547,-6.0937,-6.1465,-6.166,-6.1679,-6.1612,-6.1512,-6.1354,-6.1179,-6.1023,-6.0873,-6.08,-6.08,-6.08,-6.08,-6.08,0.0,0.0,0.0,0.0,-6.08,-6.08,-6.08,-6.08,-6.08,-6.08,-6.08,-6.08,-6.08,-6.08,-6.08,-6.08,-6.08,-6.08,-6.08,0.0,0.0,0.0,0.0,-6.3724,-6.5263,-6.5897,-6.5897,-6.5897,-6.5897,-6.5897,-6.5897,-6.5897,-6.5897,-6.5897,-6.5763,-6.534,-6.3801,-6.2627,-6.1678,-6.0993,-6.08,-6.0819,-6.0915,-6.1081,-6.1265,-6.1404,-6.1549,-6.1658,-6.1699,-6.1699,-6.1699,-6.1699,-6.1699,-6.1699,-6.1699,-6.1699,-6.1699,-6.1699,-6.1699,-6.1699,-6.1699,-6.1699,-6.1699,-6.1699,-6.1699,-6.1699,-6.1699,-6.2305,-6.2695,-6.2695,-6.207,-6.1699,-6.1699,-6.1699,-6.1992,-6.2676,-6.289,-6.3711,-6.5254,-6.6152,-6.6699,-6.6894,-6.6894,-6.6894,-6.6894,-6.6894,-6.6894,-5.918,-5.8223,-5.748,-5.873,-5.9394,-5.9863,-6.0254,-6.0742,-6.1074,-6.1015,-6.1055,-6.123,-6.1621,-6.1699,-6.1679,-6.1608,-6.1432,-6.122,0.0,0.0,-6.08,-6.08,-6.08,-6.08,0.0,0.0,0.0,0.0,0.0,-6.08,-6.08,-6.08,-6.08,-6.08,-6.08,-6.08,-6.08,-6.08,-6.08,-6.08,-6.08,-6.08,-6.08,-6.08,-6.1012,0.0,0.0,0.0,-6.4012,-6.534,-6.5897,-6.5897,-6.5897,-6.5897,-6.5897,-6.5897,-6.5897,-6.5897,-6.5897,-6.5378,-6.4551,-6.3608,-6.2493,-6.1427,-6.0935,-6.0845,-6.0905,-6.0981,-6.1194,-6.1415,-6.1472,-6.1606,-6.1699,-6.1699,-6.1699,-6.1699,-6.1699,-6.1699,-6.1699,-6.1699,-6.1699,-6.1699,-6.1699,-6.1699,-6.1699,-6.1699,-6.1699,-6.1699,-6.1699,-6.1699,-6.1699,-6.1699,-6.248,-6.3008,-6.3008,-6.293,-6.289,-6.289,-6.289,-6.3105,-6.3574,-6.3984,-6.4824,-6.6172,-6.666,-6.6894,-6.6894,-6.6894,-6.6894,-6.6894,-6.6894,-6.6894,-5.9726,-5.8945,-5.8594,-5.9883,-6.0312,-6.0586,-6.1328,-6.1035,-6.0762,-6.1387,-6.0918,-6.0625,-6.1367,-6.1504,-6.1543,-6.168,-6.1469,0.0,-6.0869,-6.0816,-6.0804,-6.0831,-6.0816,0.0,0.0,0.0,0.0,0.0,0.0,-6.08,-6.08,-6.08,-6.08,-6.08,-6.08,-6.08,-6.08,-6.08,-6.08,-6.08,-6.08,-6.08,-6.08,-6.08,-6.1204,0.0,0.0,0.0,-6.4474,-6.5493,-6.5897,-6.5897,-6.5897,-6.5897,-6.5897,-6.5897,-6.5897,-6.5897,-6.5897,-6.4859,-6.3512,-6.3512,-6.2358,-6.1023,-6.1166,-6.1147,-6.1115,-6.1388,-6.1493,-6.1507,-6.1537,-6.161,-6.1699,-6.1699,-6.1699,-6.1699,-6.1699,-6.1699,-6.1699,-6.1699,-6.1699,-6.1699,-6.1699,-6.1699,-6.1699,-6.1699,-6.1699,-6.1758,-6.1875,-6.1894,-6.1953,-6.207,-6.2871,-6.3398,-6.3398,-6.4199,-6.4707,-6.4707,-6.4453,-6.4355,-6.4492,-6.5332,-6.6152,-6.6894,-6.6894,-6.6894,-6.6894,-6.6894,-6.6894,-6.6894,-6.6894,-6.6894,-6.1152,-6.0683,-5.9902,-5.9492,-5.9902,-6.0449,-6.0566,-6.1074,-6.1328,-6.0723,-6.0488,-6.0449,-6.0566,-6.0605,-6.084,-6.1582,-6.1469,-6.122,0.0,0.0,-6.0845,-6.0963,0.0,0.0,0.0,0.0,0.0,0.0,0.0,0.0,0.0,-6.08,-6.08,-6.08,-6.08,-6.08,-6.08,-6.08,-6.08,-6.08,-6.08,-6.08,-6.08,-6.08,-6.0858,0.0,0.0,-6.3378,-6.3628,-6.5243,-6.5897,-6.5897,-6.5897,-6.5897,-6.5897,-6.5897,-6.5897,-6.5897,-6.5897,-6.5243,-6.4397,-6.4397,-6.3262,-6.2051,-6.2916,-6.2269,-6.1595,-6.3178,-6.2597,-6.1537,-6.1635,-6.1679,-6.1699,-6.1699,-6.1699,-6.1699,-6.1699,-6.1699,-6.1699,-6.1699,-6.1699,-6.1699,-6.1699,-6.1699,-6.1699,-6.1699,-6.1699,-6.1973,-6.2715,-6.2793,-6.3086,-6.3828,-6.4687,-6.5195,-6.5195,-6.5996,-6.6504,-6.6504,-6.5117,-6.4629,-6.5371,-6.623,-6.6758,-6.6894,-6.6894,-6.6894,-6.6894,-6.6894,-6.6894,-6.6894,-6.6894,-6.6894,-6.0898,-6.0703,-6.0312,-5.9941,-6.0488,-6.1094,-6.1094,-6.1055,-6.1015,-6.1094,-6.0371,-5.9883,-6.0312,-6.039,-6.0663,-6.1452,-6.1495,-6.1309,-6.1029,-6.1034,-6.1028,0.0,0.0,0.0,0.0,0.0,0.0,0.0,0.0,0.0,0.0,0.0,-6.08,-6.08,-6.08,-6.08,-6.08,-6.08,-6.08,-6.08,-6.08,-6.08,-6.08,-6.08,-6.08,-6.0896,0.0,-6.3288,-6.3455,-6.5186,-6.5897,-6.5897,-6.5897,-6.5897,-6.5897,-6.5897,-6.5897,-6.5897,-6.5897,-6.532,-6.4609,-6.4609,-6.3762,-6.2841,-6.3429,-6.3169,-6.2861,-6.3826,-6.2898,-6.1729,-6.2265,-6.2051,-6.1699,-6.1699,-6.1699,-6.1699,-6.1699,-6.1699,-6.1699,-6.1699,-6.1699,-6.1699,-6.1699,-6.209,-6.2402,-6.2402,-6.2793,-6.3242,-6.3652,-6.3691,-6.3867,-6.4258,-6.5078,-6.5605,-6.5605,-6.6406,-6.6894,-6.6894,-6.6152,-6.5879,-6.6289,-6.6699,-6.6894,-6.6894,-6.6894,-6.6894,-6.6894,-6.6894,-6.6894,-6.6894,-6.6894,-6.6894,-6.0347,-6.0192,-6.0057,-6.0117,-6.0918,-6.1699,-6.1699,-6.1172,-6.084,-6.1308,-6.0215,-5.9394,-6.0019,-6.0117,-6.0368,-6.1086,-6.1192,-6.1101,-6.0856,-6.0889,-6.0808,0.0,0.0,0.0,0.0,0.0,0.0,0.0,0.0,0.0,0.0,0.0,-6.08,-6.08,-6.08,-6.08,-6.08,-6.08,-6.08,-6.08,-6.08,-6.08,-6.08,-6.08,-6.08,-6.0896,-6.257,-6.3288,-6.3455,-6.5186,-6.5897,-6.5897,-6.5897,-6.5897,-6.5897,-6.5897,-6.5897,-6.5897,-6.5897,-6.532,-6.4628,-6.4839,-6.4215,-6.3483,-6.4075,-6.4077,-6.3979,-6.4596,-6.3566,-6.2422,-6.2871,-6.2344,-6.1699,-6.1699,-6.1699,-6.1699,-6.1699,-6.1699,-6.1699,-6.1699,-6.1699,-6.1758,-6.1973,-6.2558,-6.3066,-6.3262,-6.3867,-6.4375,-6.457,-6.4609,-6.4687,-6.4883,-6.5508,-6.5898,-6.5898,-6.6523,-6.6894,-6.6894,-6.6894,-6.6894,-6.6894,-6.6894,-6.6894,-6.6894,-6.7109,-6.7207,-6.7207,-6.7207,-6.7207,-6.7207,-6.6992,-6.6894,-6.0184,-5.9619,-5.905,-5.9237,-6.0508,-6.1699,-6.1699,-6.164,-6.1387,-6.0644,-5.9805,-5.9219,-5.9277,-5.9297,-5.9509,-6.0185,-6.0291,-6.0288,-6.0256,0.0,0.0,0.0,0.0,0.0,0.0,0.0,0.0,0.0,0.0,0.0,0.0,0.0,0.0,-6.08,-6.08,-6.08,-6.08,-6.08,-6.08,-6.08,-6.08,-6.08,-6.08,-6.08,-6.08,-6.0896,-6.257,-6.3288,-6.3455,-6.5186,-6.5897,-6.5897,-6.5897,-6.5897,-6.5897,-6.5897,-6.5897,-6.5897,-6.5897,-6.532,-6.4724,-6.5532,-6.4809,-6.3909,-6.5678,-6.5212,-6.4442,-6.6207,-6.5449,-6.3945,-6.3183,-6.2344,-6.1699,-6.1699,-6.1699,-6.1699,-6.1699,-6.1699,-6.1699,-6.1699,-6.1699,-6.1953,-6.2773,-6.2969,-6.3262,-6.4082,-6.4258,-6.459,-6.539,-6.5508,-6.582,-6.6621,-6.6777,-6.6816,-6.6816,-6.6855,-6.6894,-6.6894,-6.6894,-6.6894,-6.6894,-6.6894,-6.6894,-6.6894,-6.7695,-6.8105,-6.8105,-6.8105,-6.8105,-6.8086,-6.7285,-6.6894,-5.8895,-5.8527,-5.8296,-5.8379,-5.9277,-6.0273,-6.0781,-6.1308,-6.1601,-6.1289,-6.0547,-5.9785,-5.9297,-5.8769,-5.8652,-5.9446,-5.9581,-5.9533,-5.9419,0.0,0.0,0.0,0.0,0.0,0.0,0.0,0.0,0.0,0.0,0.0,0.0,0.0,0.0,-5.9973,-5.9992,-6.0242,-6.0781,-6.08,-6.08,-6.08,-6.08,-6.08,-6.08,-6.08,-6.08,-6.0858,-6.2031,-6.2839,-6.3397,-6.4609,-6.5416,-6.5897,-6.5897,-6.5897,-6.5897,-6.5897,-6.5897,-6.5897,-6.5897,-6.5686,-6.5455,-6.5782,-6.5553,-6.5303,-6.6139,-6.6045,-6.5833,-6.6678,-6.6035,-6.5039,-6.4707,-6.3574,-6.2519,-6.2519,-6.209,-6.1699,-6.1699,-6.1699,-6.1699,-6.1699,-6.2148,-6.2617,-6.2949,-6.3906,-6.4726,-6.5058,-6.5566,-6.6035,-6.6367,-6.6406,-6.6523,-6.6855,-6.6894,-6.6894,-6.6894,-6.6894,-6.6894,-6.6894,-6.6894,-6.6894,-6.6894,-6.6894,-6.7148,-6.7695,-6.8027,-6.8476,-6.9004,-6.8457,-6.8203,-6.8183,-6.7305,-6.7187,-5.796,-5.7611,-5.7437,-5.748,-5.8144,-5.8926,-5.9492,-6.0488,-6.1289,-6.1289,-6.0605,-5.9687,-5.8574,-5.789,-5.7773,0.0,-5.8789,-5.8748,0.0,0.0,0.0,0.0,0.0,0.0,0.0,0.0,0.0,0.0,0.0,0.0,0.0,0.0,0.0,0.0,-5.9377,-5.9781,-6.0377,-6.0666,-6.08,-6.08,-6.08,-6.08,-6.08,-6.08,-6.08,-6.0839,-6.1716,-6.2397,-6.2993,-6.3839,-6.4705,-6.5513,-6.5782,-6.5897,-6.5897,-6.5897,-6.5897,-6.5897,-6.5897,-6.5897,-6.5897,-6.5897,-6.5978,-6.6136,-6.6334,-6.6493,-6.6634,-6.6833,-6.6465,-6.6015,-6.6015,-6.4512,-6.3008,-6.3008,-6.2324,-6.1699,-6.1699,-6.1699,-6.1777,-6.2051,-6.2598,-6.3164,-6.373,-6.4805,-6.5683,-6.5976,-6.6523,-6.6894,-6.6894,-6.6894,-6.6894,-6.6894,-6.6894,-6.6894,-6.6894,-6.6894,-6.6894,-6.6894,-6.6894,-6.6894,-6.6894,-6.7168,-6.7598,-6.8183,-6.8711,-6.9277,-6.9883,-6.9277,-6.8984,-6.8965,-6.8105,-6.8008,-5.7554,-5.7013,-5.6426,-5.6561,-5.7246,-5.789,-5.789,-5.918,-6.039,-6.039,-5.9746,-5.8652,-5.6933,-5.6601,-5.6875,-5.7754,-5.789,0.0,0.0,0.0,0.0,0.0,0.0,0.0,0.0,0.0,0.0,0.0,0.0,0.0,0.0,0.0,0.0,0.0,-5.9061,-5.9504,-5.9504,-6.0369,-6.0793,-6.0793,-6.0812,-6.0812,-6.08,-6.08,-6.08,-6.0839,-6.1716,-6.2101,-6.2159,-6.2974,-6.382,-6.4698,-6.5564,-6.591,-6.591,-6.5897,-6.5897,-6.5897,-6.5897,-6.5897,-6.5897,-6.5897,-6.5978,-6.6136,-6.6334,-6.6493,-6.6634,-6.6833,-6.6894,-6.6894,-6.6894,-6.4961,-6.3027,-6.3008,-6.2344,-6.1719,-6.1699,-6.1719,-6.1973,-6.2832,-6.3008,-6.3574,-6.5293,-6.5605,-6.5918,-6.6777,-6.6894,-6.6894,-6.6894,-6.6894,-6.6894,-6.6894,-6.6894,-6.6894,-6.6894,-6.6894,-6.6894,-6.6894,-6.6894,-6.6894,-6.6914,-6.7734,-6.8203,-6.8222,-6.9844,-7.0703,-7.0703,-7.0703,-7.0703,-7.0683,-6.9805,-6.9394,-5.7219,-5.6714,-5.6559,-5.6582,-5.6797,-5.6992,-5.6992,-5.832,-5.9551,-5.9551,-5.8887,-5.8125,-5.7617,-5.7012,0.0,-5.6933,-5.6992,0.0,0.0,0.0,0.0,0.0,0.0,0.0,0.0,0.0,0.0,0.0,0.0,0.0,0.0,0.0,0.0,0.0,-5.7899,-5.8617,-5.984,-6.0104,-6.0557,-6.1147,-6.1009,-6.0894,-6.08,-6.08,-6.08,-6.08,-6.1069,-6.1543,-6.2209,-6.3733,-6.4589,-6.5023,-6.5751,-6.6028,-6.6026,-6.5926,-6.5897,-6.5897,-6.5897,-6.5897,-6.5897,-6.5897,-6.5978,-6.6136,-6.6334,-6.6493,-6.6634,-6.6833,-6.6894,-6.6894,-6.6894,-6.5879,-6.4668,-6.4062,-6.3242,-6.2441,-6.1836,-6.2656,-6.3418,-6.3066,-6.3984,-6.498,-6.5508,-6.6113,-6.6601,-6.6855,-6.6894,-6.6894,-6.6894,-6.6894,-6.6894,-6.6894,-6.6894,-6.6894,-6.6894,-6.6894,-6.6894,-6.6894,-6.6894,-6.7168,-6.7793,-6.8066,-6.875,-6.9941,-7.0449,-7.0996,-7.1601,-7.0996,-7.0703,-7.0683,-6.9805,-6.9726,-5.6894,-5.6601,-5.6601,-5.6601,-5.6601,-5.6601,-5.6601,-5.7676,-5.8672,-5.8672,-5.8262,-5.7793,-5.7441,-5.6953,0.0,-5.6601,0.0,0.0,0.0,0.0,0.0,0.0,0.0,0.0,0.0,0.0,0.0,0.0,0.0,0.0,0.0,0.0,0.0,0.0,-5.7237,-5.7898,-5.8962,-5.9643,-6.0266,-6.0797,-6.1004,-6.1076,-6.0993,-6.0856,-6.0831,-6.0882,-6.0819,-6.1089,-6.1709,-6.3122,-6.4,-6.4459,-6.5198,-6.5715,-6.6003,-6.5933,-6.5897,-6.5897,-6.5897,-6.5897,-6.5897,-6.5897,-6.5978,-6.6136,-6.6334,-6.6493,-6.6634,-6.6833,-6.6894,-6.6894,-6.6894,-6.625,-6.5469,-6.4941,-6.414,-6.3379,-6.2851,-6.3555,-6.4258,-6.4062,-6.4883,-6.5703,-6.6055,-6.6543,-6.6894,-6.6894,-6.6894,-6.6894,-6.6894,-6.6894,-6.6894,-6.6894,-6.6894,-6.6894,-6.6894,-6.6894,-6.6894,-6.6894,-6.7226,-6.7812,-6.8672,-6.8691,-6.9316,-7.0664,-7.1035,-7.1484,-7.1992,-7.1465,-7.1211,-7.1191,-7.0683,-7.0703,-5.6621,-5.6601,-5.6601,-5.6601,-5.6601,-5.6601,-5.6601,-5.7207,-5.7773,-5.7773,-5.7773,-5.7539,-5.6758,-5.6601,-5.6601,0.0,0.0,0.0,0.0,0.0,0.0,0.0,0.0,0.0,0.0,0.0,0.0,0.0,0.0,0.0,0.0,0.0,0.0,-5.6232,-5.6948,-5.7371,-5.7429,-5.9021,-5.9897,0.0,-6.0825,-6.1254,-6.1337,-6.1002,-6.0914,-6.1023,-6.0902,-6.0845,-6.0944,-6.1899,-6.272,-6.3483,-6.4328,-6.5203,-6.5936,-6.5765,-6.5811,-6.5926,-6.5844,-6.5851,-6.5916,-6.5891,-6.5986,-6.6128,-6.6346,-6.6483,-6.6625,-6.6833,-6.6894,-6.6894,-6.6894,-6.6308,-6.5723,-6.5723,-6.5058,-6.4394,-6.4316,-6.4414,-6.4746,-6.5469,-6.5664,-6.5976,-6.6758,-6.6894,-6.6894,-6.6894,-6.6894,-6.6894,-6.6894,-6.6894,-6.6894,-6.6894,-6.6894,-6.6894,-6.6894,-6.6894,-6.6933,-6.7012,-6.7754,-6.8613,-6.957,-6.9551,-6.9922,-7.0801,-7.1601,-7.1992,-7.1992,-7.1992,-7.1992,-7.1992,-7.1992,-7.1992,-5.6797,-5.6601,-5.6601,-5.6601,-5.6601,-5.6601,-5.6601,-5.6758,-5.6875,-5.6875,-5.6875,-5.6816,-5.6621,-5.6601,-5.6601,0.0,0.0,0.0,0.0,0.0,0.0,0.0,0.0,0.0,0.0,0.0,0.0,0.0,0.0,0.0,0.0,0.0,0.0,-5.6494,-5.6689,-5.7098,-5.7783,-5.8153,-5.9012,0.0,-6.0394,-6.0846,-6.1608,-6.1328,-6.122,-6.1234,-6.1193,-6.1253,-6.1461,-6.3025,-6.3823,-6.4166,-6.487,-6.5689,-6.6262,-6.4796,-6.5126,-6.6167,-6.5325,-6.5469,-6.6047,-6.5926,-6.5928,-6.5997,-6.631,-6.6412,-6.6512,-6.681,-6.6894,-6.6894,-6.6894,-6.6758,-6.6621,-6.6621,-6.5957,-6.5137,-6.4453,-6.5371,-6.6191,-6.5703,-6.6152,-6.668,-6.6875,-6.6894,-6.6894,-6.6894,-6.6894,-6.6894,-6.6894,-6.6894,-6.6894,-6.6894,-6.6894,-6.6894,-6.6894,-6.6894,-6.7187,-6.7871,-6.8105,-6.8867,-7.0371,-7.043,-7.082,-7.1699,-7.1894,-7.1992,-7.1992,-7.1992,-7.1992,-7.1992,-7.1992,-7.1992,-5.6719,-5.6601,-5.6601,-5.6601,-5.6601,-5.6601,-5.6601,-5.6601,-5.6601,-5.6601,-5.6601,-5.6601,-5.6601,-5.6601,0.0,0.0,0.0,0.0,0.0,0.0,0.0,0.0,0.0,0.0,0.0,0.0,0.0,0.0,0.0,0.0,0.0,-5.5078,-5.5508,-5.5957,-5.6387,-5.6816,-5.7265,-5.7695,-5.834,-5.9219,-5.9953,-6.0794,-6.1699,-6.1498,-6.1354,-6.1303,-6.1303,-6.1328,-6.1474,-6.237,-6.3031,-6.3475,-6.3815,-6.449,-6.5144,-6.4167,-6.439,-6.5077,-6.4524,-6.4582,-6.49,-6.4816,-6.5109,-6.5546,-6.5712,-6.6176,-6.6687,-6.6853,-6.6894,-6.6894,-6.6894,-6.6894,-6.6894,-6.6894,-6.6543,-6.6094,-6.5644,-6.6269,-6.6777,-6.6308,-6.6582,-6.6894,-6.6894,-6.6894,-6.6894,-6.6894,-6.6894,-6.6894,-6.6894,-6.6894,-6.6894,-6.6894,-6.6894,-6.6894,-6.6894,-6.6894,-6.7265,-6.8144,-6.8555,-6.9355,-7.0644,-7.1094,-7.1543,-7.1992,-7.1992,-7.1992,-7.1992,-7.1992,-7.1992,-7.1992,-7.1992,-7.1992,-5.6601,-5.6601,-5.6601,-5.6601,-5.6601,-5.6601,-5.6601,-5.6601,-5.6601,-5.6601,-5.6484,-5.6387,-5.6387,0.0,0.0,0.0,0.0,0.0,0.0,0.0,0.0,0.0,0.0,0.0,0.0,0.0,0.0,0.0,0.0,0.0,-5.3769,-5.4453,-5.498,-5.5293,-5.5996,-5.6445,-5.6601,-5.7324,-5.7754,-5.793,-5.9609,-6.0859,-6.1699,-6.1582,-6.1469,-6.1359,-6.1359,-6.1359,-6.1379,-6.1539,-6.1982,-6.2581,-6.2581,-6.3127,-6.3842,-6.355,-6.3628,-6.3862,-6.3698,-6.3657,-6.3707,-6.3828,-6.4415,-6.5134,-6.532,-6.6067,-6.6854,-6.6894,-6.6894,-6.6894,-6.6894,-6.6894,-6.6894,-6.6894,-6.6894,-6.6894,-6.6894,-6.6894,-6.6894,-6.6894,-6.6894,-6.6894,-6.6894,-6.6894,-6.6894,-6.6894,-6.6894,-6.6894,-6.6894,-6.6894,-6.6894,-6.6894,-6.6894,-6.6953,-6.7109,-6.7129,-6.7558,-6.8574,-6.9258,-7.0019,-7.0898,-7.1621,-7.1992,-7.1992,-7.1992,-7.1992,-7.1992,-7.1992,-7.1992,-7.1992,-7.1992,-7.1992,-5.6601,-5.6601,-5.6601,-5.6601,-5.6601,-5.6601,-5.6601,-5.6601,-5.6601,0.0,-5.5996,-5.5469,0.0,0.0,0.0,0.0,0.0,0.0,0.0,0.0,0.0,0.0,0.0,0.0,0.0,0.0,0.0,0.0,0.0,0.0,-5.2832,-5.2988,-5.373,-5.5254,-5.541,-5.584,-5.6582,-5.6719,-5.7148,-5.793,-5.9609,-6.0859,-6.1699,-6.1679,-6.1658,-6.1656,-6.1656,-6.1656,-6.1714,-6.2456,-6.2847,-6.2925,-6.2925,-6.3472,-6.4058,-6.2534,-6.2945,-6.4112,-6.3243,-6.3421,-6.4138,-6.472,-6.4999,-6.5257,-6.6143,-6.6519,-6.6683,-6.6853,-6.6894,-6.6894,-6.6894,-6.6894,-6.6894,-6.6894,-6.6894,-6.6894,-6.6894,-6.6894,-6.6894,-6.6894,-6.6894,-6.6894,-6.6894,-6.6894,-6.6894,-6.6894,-6.6894,-6.6894,-6.6894,-6.6894,-6.6894,-6.6894,-6.6894,-6.7207,-6.7969,-6.8027,-6.8691,-7.0273,-7.0469,-7.0918,-7.1797,-7.1933,-7.1992,-7.1992,-7.1992,-7.1992,-7.1992,-7.1992,-7.1992,-7.1992,-7.1992,-7.1992,-5.6601,-5.6601,-5.6601,-5.6601,-5.6601,-5.6601,-5.6601,-5.6601,-5.6601,-5.6601,-5.5527,-5.4726,0.0,0.0,0.0,0.0,0.0,0.0,0.0,0.0,0.0,0.0,0.0,0.0,0.0,0.0,0.0,0.0,0.0,-5.1562,-5.1953,-5.2422,-5.3047,-5.3828,-5.4785,-5.5488,-5.5879,-5.6367,-5.7285,-5.8633,-5.9375,-6.043,-6.1699,-6.1699,-6.1699,-6.1699,-6.1699,-6.1699,-6.1738,-6.2109,-6.2265,-6.2265,-6.2265,-6.2519,-6.2754,-6.1973,-6.2187,-6.2773,-6.2336,-6.2393,-6.2685,-6.2992,-6.3403,-6.3982,-6.4928,-6.5592,-6.6163,-6.6738,-6.6894,-6.6894,-6.6894,-6.6894,-6.6894,-6.6894,-6.6894,-6.6894,-6.6894,-6.6894,-6.6894,-6.6894,-6.6894,-6.6894,-6.6894,-6.6894,-6.6894,-6.6894,-6.6894,-6.6894,-6.6894,-6.6894,-6.6894,-6.6894,-6.6894,-6.7246,-6.8125,-6.8203,-6.8926,-7.0586,-7.0703,-7.1094,-7.1953,-7.1992,-7.1992,-7.1992,-7.1992,-7.1992,-7.1992,-7.1992,-7.1992,-7.1992,-7.1992,-7.2265,-5.6601,-5.6601,-5.6601,-5.6601,-5.6601,-5.6601,-5.6601,-5.6601,-5.6601,0.0,-5.5215,0.0,0.0,0.0,0.0,0.0,0.0,0.0,0.0,0.0,0.0,0.0,0.0,0.0,0.0,0.0,0.0,0.0,0.0,-5.1406,-5.1406,-5.2012,-5.2461,-5.2695,-5.3965,-5.4844,-5.5293,-5.6152,-5.7363,-5.8867,-5.9082,-5.9961,-6.1387,-6.1601,-6.1699,-6.1699,-6.1699,-6.1699,-6.1699,-6.1699,-6.1699,-6.1699,-6.1699,-6.1699,-6.1699,-6.1699,-6.1699,-6.1699,-6.1699,-6.1634,-6.1588,-6.1803,-6.231,-6.3054,-6.4147,-6.5011,-6.5781,-6.664,-6.6894,-6.6894,-6.6894,-6.6894,-6.6894,-6.6894,-6.6894,-6.6894,-6.6894,-6.6894,-6.6894,-6.6894,-6.6894,-6.6894,-6.6894,-6.6894,-6.6894,-6.6894,-6.6894,-6.6894,-6.6894,-6.6894,-6.6894,-6.6894,-6.7109,-6.7578,-6.8457,-6.8711,-6.9453,-7.0937,-7.1035,-7.1328,-7.1972,-7.1992,-7.1992,-7.1992,-7.1992,-7.1992,-7.1992,-7.1992,-7.2109,-7.2324,-7.2324,-7.2793,-5.6601,-5.6601,-5.6601,-5.6601,-5.6601,-5.6601,-5.6601,0.0,-5.6601,-5.6601,0.0,0.0,0.0,0.0,0.0,0.0,0.0,0.0,0.0,0.0,0.0,0.0,0.0,0.0,0.0,0.0,0.0,0.0,0.0,-5.1406,-5.1406,-5.1445,-5.1855,-5.2676,-5.2793,-5.3633,-5.5273,-5.6152,-5.7051,-5.7988,-5.8808,-5.9648,-6.0508,-6.1328,-6.1699,-6.1699,-6.1699,-6.1699,-6.1699,-6.1699,-6.1699,-6.1699,-6.1699,-6.1699,-6.1699,-6.1699,-6.1699,-6.1699,-6.1699,-6.1699,-6.1836,-6.2656,-6.2949,-6.33,-6.5019,-6.5566,-6.5781,-6.664,-6.6894,-6.6894,-6.6894,-6.6894,-6.6894,-6.6894,-6.6894,-6.6894,-6.6894,-6.6894,-6.6894,-6.6894,-6.6894,-6.6894,-6.6894,-6.6894,-6.6894,-6.6894,-6.6894,-6.6894,-6.6894,-6.6894,-6.6894,-6.6894,-6.7637,-6.8496,-6.9355,-7.0137,-7.0957,-7.1875,-7.1933,-7.1953,-7.1992,-7.1992,-7.1992,-7.1992,-7.1992,-7.1992,-7.1992,-7.1992,-7.2422,-7.3222,-7.3222,-7.3691,-5.6601,-5.6191,-5.5762,-5.5762,-5.5762,-5.5625,-5.5058,-5.5801,-5.6445,-5.5879,0.0,0.0,0.0,0.0,0.0,0.0,0.0,0.0,0.0,0.0,0.0,0.0,0.0,0.0,0.0,0.0,0.0,0.0,0.0,0.0,-5.1406,-5.1406,-5.1543,-5.1855,-5.2949,-5.4375,-5.6113,-5.6445,-5.7031,-5.791,-5.8789,-5.9629,-6.043,-6.1308,-6.1699,-6.1699,-6.1699,-6.1699,-6.1699,-6.1699,-6.1699,-6.1699,-6.1699,-6.1699,-6.1699,-6.1699,-6.1699,-6.1699,-6.1699,-6.1699,-6.1758,-6.2051,-6.2168,-6.2383,-6.3574,-6.3926,-6.4238,-6.5664,-6.6074,-6.6191,-6.6758,-6.6894,-6.6894,-6.6894,-6.6894,-6.6894,-6.6894,-6.6894,-6.6894,-6.6894,-6.6894,-6.6894,-6.6894,-6.6894,-6.6894,-6.6894,-6.6894,-6.6894,-6.6894,-6.6894,-6.7109,-6.7676,-6.8008,-6.8769,-7.0156,-7.0527,-7.1074,-7.1933,-7.1992,-7.1992,-7.1992,-7.1992,-7.1992,-7.1992,-7.1992,-7.1992,-7.1992,-7.2558,-7.2988,-7.3301,-7.3867,-7.4609,-5.6601,-5.6172,-5.5742,-5.5742,-5.5527,-5.5156,-5.457,-5.5332,-5.5996,-5.543,0.0,0.0,0.0,0.0,0.0,0.0,0.0,0.0,0.0,0.0,0.0,0.0,0.0,0.0,0.0,0.0,0.0,0.0,0.0,0.0,-5.1406,-5.1406,-5.1406,-5.1406,-5.3086,-5.4551,-5.5723,-5.6308,-5.6894,-5.7461,-5.8359,-5.9199,-6.0039,-6.0879,-6.1426,-6.1699,-6.1699,-6.1699,-6.1699,-6.1699,-6.1699,-6.1699,-6.1699,-6.1699,-6.1699,-6.1699,-6.1699,-6.1699,-6.1699,-6.1699,-6.1699,-6.1699,-6.1699,-6.1855,-6.2734,-6.3008,-6.3359,-6.5117,-6.5605,-6.5801,-6.668,-6.6894,-6.6894,-6.6894,-6.6894,-6.6894,-6.6894,-6.6894,-6.6894,-6.6894,-6.6894,-6.6894,-6.6894,-6.6894,-6.6894,-6.6894,-6.6894,-6.6894,-6.6894,-6.7168,-6.7558,-6.8144,-6.8691,-6.9492,-7.0605,-7.0976,-7.1387,-7.1953,-7.1992,-7.1992,-7.1992,-7.1992,-7.1992,-7.1992,-7.1992,-7.2148,-7.2441,-7.3027,-7.3457,-7.3769,-7.4629,-7.5508,0.0,0.0,0.0,-5.6562,-5.5918,-5.5254,-5.5234,0.0,-5.5293,0.0,0.0,0.0,0.0,0.0,0.0,0.0,0.0,0.0,0.0,0.0,0.0,0.0,0.0,0.0,0.0,0.0,0.0,0.0,0.0,-5.1406,-5.1406,-5.1406,-5.1406,-5.1445,-5.3105,-5.4004,-5.4043,-5.5742,-5.6601,-5.6601,-5.748,-5.834,-5.9199,-6.0019,-6.0859,-6.166,-6.1699,-6.1699,-6.1699,-6.1699,-6.1699,-6.1699,-6.1699,-6.1699,-6.1699,-6.1699,-6.1699,-6.1699,-6.1699,-6.1699,-6.1699,-6.1699,-6.1699,-6.1855,-6.2715,-6.2988,-6.3359,-6.5078,-6.5586,-6.5801,-6.668,-6.6894,-6.6894,-6.6894,-6.6894,-6.6894,-6.6894,-6.6894,-6.6894,-6.6894,-6.6894,-6.6894,-6.6894,-6.6894,-6.6894,-6.6894,-6.6894,-6.6914,-6.6933,-6.7676,-6.8222,-6.8262,-6.9726,-7.0703,-7.0742,-7.1504,-7.1992,-7.1992,-7.1992,-7.1992,-7.1992,-7.1992,-7.1992,-7.1992,-7.1992,-7.2422,-7.3301,-7.332,-7.3789,-7.4668,-7.5527,-7.6387,-5.6601,0.0,0.0,0.0,0.0,0.0,0.0,0.0,0.0,0.0,0.0,0.0,0.0,0.0,0.0,0.0,0.0,0.0,0.0,0.0,0.0,0.0,0.0,0.0,0.0,0.0,0.0,0.0,-5.1406,-5.1406,-5.1406,-5.1406,-5.1699,-5.2324,-5.3418,-5.4297,-5.4922,-5.6035,-5.6601,-5.6601,-5.748,-5.8027,-5.8301,-5.9746,-6.0527,-6.0781,-6.1426,-6.1699,-6.1699,-6.1699,-6.1699,-6.1699,-6.1699,-6.1699,-6.1699,-6.1699,-6.1699,-6.1699,-6.1699,-6.1699,-6.1699,-6.1699,-6.1699,-6.1738,-6.1992,-6.25,-6.3223,-6.4355,-6.5117,-6.5801,-6.668,-6.6894,-6.6894,-6.6894,-6.6894,-6.6894,-6.6894,-6.6894,-6.6894,-6.6894,-6.6894,-6.6894,-6.6894,-6.6894,-6.6894,-6.6894,-6.6894,-6.7129,-6.7754,-6.8047,-6.8652,-6.9883,-7.043,-7.0957,-7.1582,-7.1855,-7.1992,-7.1992,-7.1992,-7.1992,-7.1992,-7.1992,-7.1992,-7.1992,-7.1992,-7.2422,-7.3301,-7.3926,-7.4687,-7.5566,-7.6426,-7.6972,-5.6601,-5.623,-5.584,-5.584,0.0,0.0,-5.3437,-5.4023,0.0,0.0,0.0,0.0,0.0,0.0,0.0,0.0,0.0,0.0,0.0,0.0,0.0,0.0,0.0,0.0,0.0,0.0,0.0,-5.1406,-5.1406,-5.1406,-5.1406,-5.1406,-5.1797,-5.2676,-5.3555,-5.4414,-5.5293,-5.6152,-5.6601,-5.6601,-5.7109,-5.7558,-5.793,-5.8906,-5.9746,-6.043,-6.0937,-6.1367,-6.1699,-6.1699,-6.1699,-6.1699,-6.1699,-6.1699,-6.1699,-6.1699,-6.1699,-6.1699,-6.1699,-6.1699,-6.1699,-6.1699,-6.1699,-6.1699,-6.1699,-6.2051,-6.2637,-6.3515,-6.4648,-6.5801,-6.668,-6.6894,-6.6894,-6.6894,-6.6894,-6.6894,-6.6894,-6.6894,-6.6894,-6.6894,-6.6894,-6.6894,-6.6894,-6.6894,-6.6894,-6.6894,-6.6894,-6.7207,-6.8086,-6.8515,-6.9258,-7.0566,-7.1035,-7.1445,-7.1953,-7.1992,-7.1992,-7.1992,-7.1992,-7.1992,-7.1992,-7.1992,-7.1992,-7.1992,-7.2363,-7.3144,-7.4394,-7.4531,-7.5234,-7.6445,-7.6953,-7.7207,-5.6601,-5.6601,-5.6601,-5.6601,-5.5937,0.0,-5.4316,-5.4141,-5.3906,0.0,0.0,0.0,0.0,0.0,0.0,0.0,0.0,0.0,0.0,0.0,0.0,0.0,0.0,0.0,-5.1406,-5.1406,-5.1406,-5.1406,-5.1406,-5.1406,-5.1406,-5.1406,-5.1797,-5.2676,-5.3555,-5.4414,-5.5293,-5.6152,-5.6601,-5.6601,-5.6601,-5.7012,-5.7754,-5.7851,-5.8769,-6.0273,-6.0351,-6.0898,-6.1699,-6.1699,-6.1699,-6.1699,-6.1699,-6.1699,-6.1699,-6.1699,-6.1699,-6.1699,-6.1699,-6.1699,-6.1699,-6.1699,-6.1699,-6.1699,-6.1699,-6.1777,-6.2031,-6.289,-6.4336,-6.5781,-6.6543,-6.6836,-6.6894,-6.6894,-6.6894,-6.6894,-6.6894,-6.6894,-6.6894,-6.6894,-6.6894,-6.6894,-6.6894,-6.6894,-6.6894,-6.6894,-6.6972,-6.7363,-6.8222,-6.9082,-6.9941,-7.0762,-7.1543,-7.1992,-7.1992,-7.1992,-7.1992,-7.1992,-7.1992,-7.1992,-7.1992,-7.1992,-7.1992,-7.1992,-7.2949,-7.4258,-7.5898,-7.5215,-7.5683,-7.7207,-7.7207,-7.7207,-5.6601,-5.6601,-5.6601,-5.6601,-5.5937,0.0,-5.5098,-5.5058,-5.4805,0.0,0.0,0.0,0.0,0.0,0.0,0.0,0.0,0.0,0.0,0.0,0.0,0.0,0.0,0.0,0.0,-5.1406,-5.1406,-5.1406,-5.1406,-5.1406,-5.1406,-5.1406,-5.1797,-5.2676,-5.3555,-5.4414,-5.5293,-5.6152,-5.6601,-5.6601,-5.6601,-5.6699,-5.6875,-5.7578,-5.8457,-5.9473,-6.0117,-6.0898,-6.1699,-6.1699,-6.1699,-6.1699,-6.1699,-6.1699,-6.1699,-6.1699,-6.1699,-6.1699,-6.1699,-6.1699,-6.1699,-6.1699,-6.1699,-6.1699,-6.1699,-6.2187,-6.293,-6.3808,-6.4805,-6.5644,-6.5801,-6.6367,-6.6894,-6.6894,-6.6894,-6.6894,-6.6894,-6.6894,-6.6894,-6.6894,-6.6894,-6.6894,-6.6894,-6.6894,-6.6894,-6.6894,-6.75,-6.8242,-6.9062,-6.9922,-7.0781,-7.164,-7.1894,-7.1992,-7.1992,-7.1992,-7.1992,-7.1992,-7.1992,-7.1992,-7.1992,-7.1992,-7.1992,-7.1992,-7.3535,-7.4863,-7.5898,-7.6426,-7.6875,-7.7207,-7.7207,-7.7207,-5.6601,-5.6601,-5.6601,-5.6601,-5.6269,0.0,0.0,-5.5293,-5.5058,0.0,0.0,0.0,0.0,0.0,0.0,0.0,0.0,0.0,0.0,0.0,0.0,0.0,0.0,0.0,0.0,-5.1406,-5.1406,-5.1406,-5.1406,-5.1406,-5.1406,-5.1406,-5.1992,-5.3301,-5.3769,-5.4629,-5.5937,-5.6387,-5.6601,-5.6601,-5.6601,-5.6601,-5.6601,-5.7051,-5.7734,-5.8594,-5.9433,-6.0273,-6.1094,-6.1523,-6.1699,-6.1699,-6.1699,-6.1699,-6.1699,-6.1699,-6.1699,-6.1699,-6.1699,-6.1699,-6.1699,-6.1699,-6.1699,-6.1699,-6.1699,-6.2012,-6.2539,-6.3418,-6.4277,-6.5058,-6.5488,-6.625,-6.6894,-6.6894,-6.6894,-6.6894,-6.6894,-6.6894,-6.6894,-6.6894,-6.6894,-6.6894,-6.6894,-6.6894,-6.7051,-6.748,-6.793,-6.8652,-6.9883,-7.043,-7.1035,-7.1914,-7.1992,-7.1992,-7.1992,-7.1992,-7.1992,-7.1992,-7.1992,-7.1992,-7.1992,-7.1992,-7.2402,-7.3281,-7.457,-7.5683,-7.6543,-7.6992,-7.7207,-7.7207,-7.7207,-7.7207,-5.6601,-5.6601,-5.664,-5.6816,-5.6719,-5.6465,0.0,0.0,0.0,0.0,0.0,0.0,0.0,0.0,0.0,0.0,0.0,0.0,0.0,0.0,0.0,0.0,0.0,0.0,0.0,-5.1406,-5.1406,-5.1406,-5.1406,-5.1406,-5.1406,-5.1562,-5.2363,-5.3945,-5.416,-5.5019,-5.6582,-5.6601,-5.6601,-5.6601,-5.6601,-5.6601,-5.6601,-5.6601,-5.707,-5.7949,-5.8633,-5.9492,-6.0449,-6.1152,-6.1543,-6.1699,-6.1699,-6.1699,-6.1699,-6.1699,-6.1699,-6.1699,-6.1699,-6.1699,-6.1699,-6.1699,-6.1699,-6.1699,-6.1699,-6.1699,-6.1855,-6.2558,-6.3379,-6.4258,-6.5117,-6.5996,-6.6699,-6.6855,-6.6894,-6.6894,-6.6894,-6.6894,-6.6894,-6.6894,-6.6894,-6.6894,-6.6894,-6.6894,-6.7207,-6.8066,-6.834,-6.9004,-7.0508,-7.0859,-7.1211,-7.1914,-7.1992,-7.1992,-7.1992,-7.1992,-7.1992,-7.1992,-7.1992,-7.1992,-7.1992,-7.2168,-7.3066,-7.4824,-7.5547,-7.6328,-7.7207,-7.7207,-7.7207,-7.7207,-7.7207,-7.7207,-5.6601,-5.6601,-5.6797,0.0,-5.7168,-5.6777,0.0,0.0,-5.6426,-5.6328,0.0,0.0,0.0,0.0,0.0,0.0,0.0,0.0,0.0,0.0,0.0,0.0,0.0,0.0,0.0,0.0,-5.1406,-5.1406,-5.1406,-5.1406,-5.1406,-5.2129,-5.3008,-5.3965,-5.4746,-5.5625,-5.6582,-5.6601,-5.6601,-5.6601,-5.6601,-5.6601,-5.6601,-5.6601,-5.707,-5.791,-5.8008,-5.8945,-6.041,-6.0508,-6.0996,-6.1699,-6.1699,-6.1699,-6.1699,-6.1699,-6.1699,-6.1699,-6.1699,-6.1699,-6.1699,-6.1699,-6.1699,-6.1699,-6.1699,-6.1699,-6.1719,-6.1816,-6.248,-6.3359,-6.4219,-6.5098,-6.5937,-6.6719,-6.6894,-6.6894,-6.6894,-6.6894,-6.6894,-6.6894,-6.6894,-6.6894,-6.6894,-6.6894,-6.7207,-6.8066,-6.8867,-6.9687,-7.0586,-7.1367,-7.1894,-7.1992,-7.1992,-7.1992,-7.1992,-7.1992,-7.1992,-7.1992,-7.1992,-7.1992,-7.1992,-7.2734,-7.3965,-7.5722,-7.5859,-7.6328,-7.7207,-7.7207,-7.7207,-7.7207,-7.7207,-7.7207,-5.6465,0.0,0.0,0.0,0.0,0.0,-5.7051,0.0,-5.7344,0.0,0.0,0.0,0.0,0.0,0.0,0.0,-5.5019,0.0,0.0,0.0,0.0,0.0,0.0,0.0,0.0,0.0,0.0,0.0,-5.2441,-5.2383,-5.2871,-5.3262,-5.3848,-5.4726,-5.5117,-5.5723,-5.6582,-5.6601,-5.6601,-5.6601,-5.6601,-5.6601,-5.6601,-5.6601,-5.6797,-5.7168,-5.7676,-5.8594,-5.9746,-6.0215,-6.0918,-6.1699,-6.1699,-6.1699,-6.1699,-6.1699,-6.1699,-6.1699,-6.1699,-6.1699,-6.1699,-6.1699,-6.1699,-6.1699,-6.1699,-6.1699,-6.1699,-6.1699,-6.2324,-6.3086,-6.3457,-6.457,-6.5683,-6.6055,-6.6523,-6.6894,-6.6894,-6.6894,-6.6894,-6.6894,-6.6894,-6.6894,-6.6894,-6.6894,-6.7344,-6.8691,-6.9238,-6.9961,-7.1289,-7.1777,-7.1992,-7.1992,-7.1992,-7.1992,-7.1992,-7.1992,-7.1992,-7.1992,-7.1992,-7.2226,-7.2734,-7.3594,-7.4648,-7.5879,-7.6406,-7.6836,-7.7207,-7.7207,-7.7207,-7.7207,-7.7207,-7.7207,-5.6426,0.0,0.0,0.0,0.0,0.0,0.0,0.0,0.0,0.0,0.0,0.0,0.0,0.0,-5.5781,-5.5058,0.0,-5.6426,0.0,0.0,0.0,0.0,0.0,0.0,0.0,0.0,0.0,-5.3262,-5.293,-5.2988,-5.3613,-5.4101,-5.4648,-5.5273,-5.5527,-5.5957,-5.6582,-5.6601,-5.6601,-5.6601,-5.6601,-5.6601,-5.6601,-5.6601,-5.6601,-5.664,-5.7265,-5.8047,-5.8906,-5.9726,-6.0566,-6.1367,-6.1601,-6.1699,-6.1699,-6.1699,-6.1699,-6.1699,-6.1699,-6.1699,-6.1699,-6.1699,-6.1699,-6.1699,-6.1699,-6.1699,-6.1699,-6.1699,-6.2168,-6.2695,-6.2949,-6.4121,-6.5293,-6.5547,-6.6269,-6.6894,-6.6894,-6.6894,-6.6894,-6.6894,-6.6894,-6.6894,-6.6894,-6.6894,-6.7461,-6.914,-6.9433,-7.0078,-7.1777,-7.1992,-7.1992,-7.1992,-7.1992,-7.1992,-7.1992,-7.1992,-7.1992,-7.1992,-7.1992,-7.25,-7.3613,-7.4258,-7.5117,-7.623,-7.6875,-7.7207,-7.7207,-7.7207,-7.7207,-7.7207,-7.7207,-7.7207,0.0,0.0,0.0,-5.7656,0.0,0.0,0.0,0.0,-5.789,0.0,0.0,0.0,0.0,-5.7832,-5.6992,-5.4453,-5.5488,0.0,0.0,0.0,0.0,0.0,0.0,0.0,0.0,0.0,0.0,-5.1543,-5.2246,-5.2715,-5.2734,-5.4336,-5.5273,-5.5293,-5.6113,-5.6562,-5.6601,-5.6601,-5.6601,-5.6601,-5.6601,-5.6601,-5.6601,-5.6601,-5.6601,-5.6601,-5.6621,-5.7148,-5.8008,-5.8887,-5.9707,-6.0527,-6.1367,-6.1699,-6.1699,-6.1699,-6.1699,-6.1699,-6.1699,-6.1699,-6.1699,-6.1699,-6.1699,-6.1699,-6.1699,-6.1699,-6.1699,-6.1699,-6.1719,-6.1933,-6.2773,-6.3672,-6.4551,-6.539,-6.6269,-6.6894,-6.6894,-6.6894,-6.6894,-6.6894,-6.6894,-6.6894,-6.6894,-6.6894,-6.7461,-6.914,-6.9394,-7.0039,-7.1777,-7.1992,-7.1992,-7.1992,-7.1992,-7.1992,-7.1992,-7.1992,-7.1992,-7.1992,-7.1992,-7.2773,-7.4492,-7.459,-7.541,-7.7129,-7.7187,-7.7207,-7.7207,-7.7207,-7.7207,-7.7207,-7.7207,-7.7207,0.0,0.0,-5.668,-5.6973,0.0,0.0,0.0,0.0,0.0,0.0,0.0,0.0,0.0,-5.8281,-5.7422,-5.5957,-5.6211,-5.6387,0.0,0.0,0.0,0.0,0.0,0.0,0.0,0.0,0.0,-5.3965,-5.3183,-5.3203,-5.4355,-5.498,-5.5566,-5.6133,-5.6445,-5.6601,-5.6601,-5.6601,-5.6601,-5.6601,-5.6601,-5.6601,-5.6601,-5.6601,-5.6601,-5.6601,-5.6601,-5.709,-5.793,-5.8223,-5.914,-6.043,-6.0723,-6.1191,-6.1699,-6.1699,-6.1699,-6.1699,-6.1699,-6.1699,-6.1699,-6.1699,-6.1699,-6.1699,-6.1699,-6.1699,-6.1699,-6.1699,-6.2129,-6.2637,-6.293,-6.3652,-6.4512,-6.539,-6.582,-6.6191,-6.6777,-6.6894,-6.6894,-6.6894,-6.6894,-6.6894,-6.6894,-6.6894,-6.748,-6.9219,-6.9472,-7.0078,-7.1777,-7.1992,-7.1992,-7.1992,-7.1992,-7.1992,-7.1992,-7.1992,-7.1992,-7.1992,-7.1992,-7.2773,-7.4531,-7.4609,-7.543,-7.7168,-7.7207,-7.7207,-7.7207,-7.7207,-7.7207,-7.7207,-7.7207,-7.7207,-5.6445,-5.6601,0.0,-5.6601,-5.6601,0.0,-5.6601,0.0,0.0,0.0,0.0,0.0,0.0,-5.8281,-5.7617,-5.6738,-5.6601,-5.6601,0.0,-5.6601,0.0,0.0,0.0,0.0,0.0,0.0,-5.3984,-5.3926,-5.3164,-5.332,0.0,0.0,-5.5703,-5.6562,-5.6601,-5.6601,-5.6601,-5.6601,-5.6601,-5.6601,-5.6601,-5.6601,-5.6601,-5.6601,-5.6601,-5.6601,-5.6601,-5.6914,-5.7461,-5.7773,-5.8535,-5.957,-6.0176,-6.0742,-6.1289,-6.1582,-6.1699,-6.1699,-6.1699,-6.1699,-6.1699,-6.1699,-6.1699,-6.1699,-6.1699,-6.1699,-6.1699,-6.1699,-6.2109,-6.2539,-6.2539,-6.3183,-6.4062,-6.4922,-6.5371,-6.584,-6.6719,-6.6894,-6.6894,-6.6894,-6.6894,-6.6894,-6.6894,-6.6894,-6.748,-6.9219,-6.9453,-7.0078,-7.1777,-7.1992,-7.1992,-7.1992,-7.1992,-7.1992,-7.1992,-7.1992,-7.1992,-7.1992,-7.1992,-7.2637,-7.4082,-7.4433,-7.5273,-7.6719,-7.7031,-7.7207,-7.7207,-7.7207,-7.7207,-7.7207,-7.7207,-7.7207]},{"header":{"parameterUnit":"m.s-1","parameterCategory":1,"la1":30.6,"la2":29.2853,"lo1":-89.7004,"lo2":-87.6739,"dy":0.0162,"dx":0.0183,"nx":112,"ny":82,"refTime":"2023-03-24T06:00:00:Z","depth":0,"parameterNumber":3,"parameterNumberName":"V-component_of_WINDS"},"data":[0.0,0.0,0.0,0.0,0.0,0.0,0.0,0.0,0.0,0.0,0.0,0.0,0.0,0.0,0.0,0.0,0.0,0.0,0.0,0.0,0.0,0.0,0.0,0.0,0.0,0.0,0.0,0.0,0.0,0.0,0.0,0.0,0.0,0.0,0.0,0.0,0.0,0.0,0.0,0.0,0.0,0.0,0.0,0.0,0.0,0.0,0.0,0.0,0.0,0.0,0.0,0.0,0.0,0.0,0.0,0.0,0.0,0.0,0.0,0.0,0.0,0.0,0.0,0.0,0.0,0.0,0.0,0.0,0.0,0.0,0.0,0.0,0.0,0.0,0.0,0.0,0.0,0.0,0.0,0.0,0.0,0.0,0.0,0.0,0.0,0.0,0.0,0.0,0.0,0.0,-0.7988,-0.7988,-0.8157,-0.8235,-0.8235,-0.8343,-0.8306,-0.8005,0.0,0.0,0.0,0.0,0.0,0.0,0.0,0.0,0.0,0.0,0.0,0.0,0.0,0.0,0.0,0.0,0.0,0.0,0.0,0.0,0.0,0.0,0.0,0.0,0.0,0.0,0.0,0.0,0.0,0.0,0.0,0.0,0.0,0.0,0.0,0.0,0.0,0.0,0.0,0.0,0.0,0.0,0.0,0.0,0.0,0.0,0.0,0.0,0.0,0.0,0.0,0.0,0.0,0.0,0.0,0.0,0.0,0.0,0.0,0.0,0.0,0.0,0.0,0.0,0.0,0.0,0.0,0.0,0.0,0.0,0.0,0.0,0.0,0.0,0.0,0.0,0.0,0.0,0.0,0.0,0.0,0.0,0.0,0.0,0.0,0.0,0.0,0.0,0.0,0.0,0.0,0.0,0.0,0.0,0.0,0.0,0.0,0.0,0.0,0.0,0.0,0.0,0.0,0.0,-0.7988,-0.7988,-0.8012,-0.8025,-0.8025,-0.8046,-0.8035,-0.7992,0.0,0.0,0.0,0.0,0.0,0.0,0.0,0.0,0.0,0.0,0.0,0.0,0.0,0.0,0.0,0.0,0.0,0.0,0.0,0.0,0.0,0.0,0.0,0.0,0.0,0.0,0.0,0.0,0.0,0.0,0.0,0.0,0.0,0.0,0.0,0.0,0.0,0.0,0.0,0.0,0.0,0.0,0.0,0.0,0.0,0.0,0.0,0.0,0.0,0.0,0.0,0.0,0.0,0.0,0.0,0.0,0.0,0.0,0.0,0.0,0.0,0.0,0.0,0.0,0.0,0.0,0.0,0.0,0.0,0.0,0.0,0.0,0.0,0.0,0.0,0.0,0.0,0.0,0.0,0.0,0.0,0.0,0.0,0.0,0.0,0.0,0.0,0.0,0.0,0.0,0.0,0.0,0.0,0.0,0.0,0.0,0.0,0.0,0.0,0.0,0.0,0.0,0.0,-0.7988,-0.7988,-0.7988,-0.7988,-0.7988,-0.7988,-0.7988,-0.7988,-0.7988,-0.8106,0.0,0.0,0.0,0.0,0.0,0.0,0.0,0.0,0.0,0.0,0.0,0.0,0.0,0.0,0.0,0.0,0.0,0.0,0.0,0.0,0.0,0.0,0.0,0.0,0.0,0.0,0.0,0.0,0.0,0.0,0.0,0.0,0.0,0.0,0.0,0.0,0.0,0.0,0.0,0.0,0.0,0.0,0.0,0.0,0.0,0.0,0.0,0.0,0.0,0.0,0.0,0.0,0.0,0.0,0.0,0.0,0.0,0.0,0.0,0.0,0.0,0.0,0.0,0.0,0.0,0.0,0.0,0.0,0.0,0.0,0.0,0.0,0.0,0.0,0.0,0.0,0.0,0.0,0.0,0.0,0.0,0.0,0.0,0.0,0.0,0.0,0.0,0.0,0.0,0.0,0.0,0.0,0.0,0.0,0.0,0.0,0.0,0.0,0.0,0.0,0.0,0.0,-0.7988,-0.7988,-0.7988,-0.7988,-0.7988,-0.7988,-0.7988,-0.7988,-0.7988,-0.7988,0.0,0.0,0.0,0.0,0.0,0.0,0.0,0.0,0.0,0.0,0.0,0.0,0.0,0.0,0.0,0.0,0.0,0.0,0.0,0.0,0.0,0.0,0.0,0.0,0.0,0.0,0.0,0.0,0.0,0.0,0.0,0.0,0.0,0.0,0.0,0.0,0.0,0.0,0.0,0.0,0.0,0.0,0.0,0.0,0.0,0.0,0.0,0.0,0.0,0.0,0.0,0.0,0.0,0.0,0.0,0.0,0.0,0.0,0.0,0.0,0.0,0.0,0.0,0.0,0.0,0.0,0.0,0.0,0.0,0.0,0.0,0.0,0.0,0.0,0.0,0.0,0.0,0.0,0.0,0.0,0.0,0.0,0.0,0.0,0.0,0.0,0.0,0.0,0.0,0.0,0.0,0.0,0.0,0.0,0.0,0.0,0.0,0.0,0.0,0.0,0.0,0.0,-0.7988,-0.7988,-0.7988,-0.7988,-0.7988,-0.7988,-0.7988,-0.7988,-0.7988,-0.7988,0.0,0.0,0.0,0.0,0.0,0.0,0.0,0.0,0.0,0.0,0.0,0.0,0.0,0.0,0.0,0.0,0.0,0.0,0.0,0.0,0.0,0.0,0.0,0.0,0.0,0.0,0.0,0.0,0.0,0.0,0.0,0.0,0.0,0.0,0.0,0.0,0.0,0.0,0.0,0.0,0.0,0.0,0.0,0.0,0.0,0.0,0.0,0.0,0.0,0.0,0.0,0.0,0.0,0.0,0.0,0.0,0.0,0.0,0.0,0.0,0.0,0.0,0.0,0.0,0.0,0.0,0.0,0.0,0.0,0.0,0.0,0.0,0.0,0.0,0.0,0.0,0.0,0.0,0.0,0.0,0.0,0.0,0.0,0.0,0.0,0.0,0.0,0.0,0.0,0.0,0.0,0.0,0.0,0.0,0.0,0.0,0.0,0.0,0.0,0.0,0.0,0.0,-0.7988,-0.7988,-0.7988,-0.7988,-0.7988,-0.7988,-0.7988,-0.7988,-0.7988,0.0,0.0,0.0,0.0,0.0,0.0,0.0,0.0,0.0,0.0,0.0,0.0,0.0,0.0,0.0,0.0,0.0,0.0,0.0,0.0,0.0,0.0,0.0,0.0,0.0,0.0,0.0,0.0,0.0,0.0,0.0,0.0,0.0,0.0,0.0,0.0,0.0,0.0,0.0,0.0,0.0,0.0,0.0,0.0,0.0,0.0,0.0,0.0,0.0,0.0,0.0,0.0,0.0,0.0,0.0,0.0,0.0,0.0,0.0,0.0,0.0,0.0,0.0,0.0,0.0,0.0,0.0,0.0,0.0,0.0,0.0,0.0,0.0,0.0,0.0,0.0,0.0,0.0,0.0,0.0,0.0,0.0,0.0,0.0,0.0,0.0,0.0,0.0,0.0,0.0,0.0,0.0,0.0,0.0,0.0,0.0,0.0,0.0,0.0,0.0,0.0,0.0,-0.7988,-0.7988,-0.7988,0.0,-0.7988,-0.7988,-0.7988,-0.7988,-0.7988,-0.7988,0.0,0.0,0.0,0.0,0.0,0.0,0.0,0.0,0.0,0.0,0.0,0.0,0.0,0.0,0.0,0.0,0.0,0.0,0.0,0.0,0.0,0.0,0.0,0.0,0.0,0.0,0.0,0.0,0.0,0.0,0.0,0.0,0.0,0.0,0.0,0.0,0.0,0.0,0.0,0.0,0.0,0.0,0.0,0.0,0.0,0.0,0.0,0.0,0.0,0.0,0.0,0.0,0.0,0.0,0.0,0.0,0.0,0.0,0.0,0.0,0.0,0.0,0.0,0.0,0.0,0.0,0.0,0.0,0.0,0.0,0.0,0.0,0.0,0.0,0.0,0.0,0.0,0.0,0.0,0.0,0.0,0.0,0.0,0.0,0.0,0.0,0.0,0.0,0.0,0.0,0.0,0.0,0.0,0.0,0.0,0.0,0.0,0.0,0.0,0.0,0.0,0.0,-0.7988,-0.7988,-0.7988,-0.7988,-0.7988,-0.7988,-0.7988,-0.7988,-0.7988,0.0,0.0,0.0,0.0,0.0,0.0,0.0,0.0,0.0,0.0,0.0,0.0,0.0,0.0,0.0,0.0,0.0,0.0,0.0,0.0,0.0,0.0,0.0,0.0,0.0,0.0,0.0,0.0,0.0,0.0,0.0,0.0,0.0,0.0,0.0,0.0,0.0,0.0,0.0,0.0,0.0,0.0,0.0,0.0,0.0,0.0,0.0,0.0,0.0,0.0,0.0,0.0,0.0,0.0,0.0,0.0,0.0,0.0,0.0,0.0,0.0,0.0,0.0,0.0,0.0,0.0,0.0,0.0,0.0,0.0,0.0,0.0,0.0,0.0,0.0,0.0,0.0,0.0,0.0,0.0,0.0,0.0,0.0,0.0,0.0,0.0,0.0,0.0,0.0,0.0,0.0,0.0,0.0,0.0,0.0,0.0,0.0,0.0,0.0,0.0,0.0,0.0,0.0,-0.7988,-0.7988,-0.7988,-0.7988,-0.7988,-0.7988,-0.7988,-0.7988,-0.7988,-0.7988,0.0,0.0,0.0,0.0,0.0,0.0,0.0,0.0,0.0,0.0,0.0,0.0,0.0,0.0,0.0,0.0,0.0,0.0,0.0,0.0,0.0,0.0,0.0,0.0,0.0,0.0,0.0,0.0,0.0,0.0,0.0,0.0,0.0,0.0,0.0,0.0,0.0,0.0,0.0,0.0,0.0,0.0,0.0,0.0,0.0,0.0,0.0,0.0,0.0,0.0,0.0,0.0,0.0,0.0,0.0,0.0,0.0,0.0,0.0,0.0,0.0,0.0,0.0,0.0,0.0,0.0,0.0,0.0,0.0,0.0,0.0,0.0,0.0,0.0,0.0,0.0,0.0,0.0,0.0,0.0,0.0,0.0,0.0,0.0,0.0,0.0,0.0,0.0,0.0,0.0,0.0,0.0,0.0,0.0,0.0,0.0,0.0,0.0,0.0,0.0,0.0,0.0,-0.7988,-0.7988,-0.7988,-0.7988,-0.7988,-0.7988,-0.7988,-0.7988,-0.7988,-0.7988,0.0,0.0,0.0,0.0,0.0,0.0,0.0,0.0,0.0,0.0,0.0,0.0,0.0,0.0,0.0,0.0,0.0,0.0,0.0,0.0,0.0,0.0,0.0,0.0,0.0,0.0,0.0,0.0,0.0,0.0,0.0,0.0,0.0,0.0,0.0,0.0,0.0,0.0,0.0,0.0,0.0,0.0,0.0,0.0,0.0,0.0,0.0,0.0,0.0,0.0,0.0,0.0,0.0,0.0,0.0,0.0,0.0,0.0,0.0,0.0,0.0,0.0,0.0,0.0,0.0,0.0,0.0,0.0,0.0,0.0,0.0,0.0,0.0,0.0,0.0,0.0,0.0,0.0,0.0,0.0,0.0,0.0,0.0,0.0,0.0,0.0,0.0,0.0,0.0,0.0,0.0,0.0,0.0,0.0,0.0,0.0,0.0,0.0,0.0,0.0,0.0,0.0,-0.7988,-0.7988,-0.7988,-0.7988,-0.7988,-0.7988,-0.7988,-0.7988,-0.7988,-0.7988,0.0,0.0,0.0,0.0,0.0,0.0,0.0,0.0,0.0,0.0,0.0,0.0,0.0,0.0,0.0,0.0,0.0,0.0,0.0,0.0,0.0,0.0,0.0,0.0,0.0,0.0,0.0,0.0,0.0,0.0,0.0,0.0,0.0,0.0,0.0,0.0,0.0,0.0,0.0,0.0,0.0,0.0,0.0,0.0,0.0,0.0,0.0,0.0,0.0,0.0,0.0,0.0,0.0,0.0,0.0,0.0,0.0,0.0,0.0,0.0,-1.4772,0.0,0.0,0.0,0.0,0.0,0.0,0.0,0.0,0.0,0.0,0.0,0.0,0.0,0.0,0.0,0.0,0.0,0.0,0.0,0.0,0.0,0.0,0.0,0.0,0.0,0.0,0.0,0.0,0.0,0.0,0.0,0.0,0.0,0.0,0.0,0.0,0.0,0.0,0.0,0.0,0.0,-0.7988,-0.7988,-0.7988,-0.7988,-0.7988,-0.7988,-0.7988,-0.7988,-0.7988,-0.7988,-0.6478,0.0,0.0,0.0,0.0,0.0,0.0,0.0,0.0,0.0,0.0,0.0,0.0,0.0,0.0,0.0,0.0,0.0,0.0,0.0,0.0,0.0,0.0,0.0,0.0,0.0,0.0,0.0,0.0,0.0,0.0,0.0,0.0,0.0,0.0,0.0,0.0,0.0,0.0,0.0,0.0,0.0,0.0,0.0,0.0,0.0,0.0,0.0,0.0,0.0,0.0,0.0,0.0,0.0,0.0,0.0,0.0,0.0,0.0,0.0,0.0,-1.5304,0.0,0.0,0.0,0.0,0.0,0.0,0.0,0.0,0.0,0.0,0.0,0.0,0.0,0.0,0.0,0.0,0.0,0.0,0.0,0.0,0.0,0.0,0.0,0.0,0.0,0.0,0.0,0.0,0.0,0.0,0.0,0.0,0.0,0.0,0.0,0.0,0.0,0.0,0.0,0.0,-0.7988,-0.7988,-0.7988,-0.7988,-0.7988,-0.7988,-0.7988,-0.7988,-0.7988,-0.7988,-0.6126,0.0,0.0,0.0,0.0,0.0,0.0,0.0,0.0,0.0,0.0,0.0,0.0,0.0,0.0,0.0,0.0,0.0,0.0,0.0,0.0,0.0,0.0,0.0,0.0,0.0,0.0,0.0,0.0,0.0,0.0,0.0,0.0,0.0,0.0,0.0,0.0,0.0,0.0,0.0,0.0,0.0,0.0,0.0,0.0,0.0,0.0,0.0,0.0,0.0,0.0,0.0,0.0,0.0,-1.4958,-1.5909,-1.7509,-1.7509,-1.8232,-1.9336,-1.6954,-1.6785,-1.8088,-1.6221,0.0,0.0,0.0,0.0,0.0,0.0,0.0,0.0,0.0,0.0,0.0,0.0,0.0,0.0,0.0,0.0,0.0,0.0,0.0,0.0,0.0,0.0,0.0,0.0,-1.0259,-1.0205,0.0,0.0,0.0,0.0,0.0,0.0,0.0,0.0,0.0,0.0,0.0,0.0,-0.7988,-0.7988,-0.7988,-0.7988,-0.7988,-0.7988,-0.7988,-0.7988,-0.7988,-0.7988,-0.5922,-0.497,0.0,0.0,0.0,0.0,0.0,0.0,0.0,0.0,0.0,0.0,0.0,0.0,0.0,0.0,0.0,0.0,0.0,0.0,0.0,0.0,0.0,0.0,0.0,0.0,0.0,0.0,0.0,0.0,0.0,0.0,0.0,0.0,-0.9265,-0.9364,0.0,0.0,0.0,0.0,0.0,0.0,0.0,0.0,0.0,0.0,0.0,0.0,0.0,-1.2286,-1.2548,-1.2526,-1.3315,-1.4948,-1.6331,-1.7846,-1.9437,-1.9437,-1.9555,-1.976,-1.9552,0.0,-1.9423,-1.7793,0.0,0.0,0.0,0.0,0.0,0.0,0.0,0.0,0.0,0.0,0.0,0.0,0.0,0.0,0.0,0.0,0.0,0.0,0.0,0.0,0.0,0.0,-1.028,-1.028,-1.0178,-1.0011,0.0,-0.9869,-0.9774,-0.9612,-0.9473,0.0,0.0,0.0,0.0,0.0,0.0,0.0,-0.7988,-0.7988,-0.7988,-0.7988,-0.7988,-0.7988,-0.7988,-0.7988,-0.7988,-0.7988,-0.7686,-0.6526,-0.4368,-0.5022,0.0,0.0,0.0,0.0,0.0,0.0,0.0,0.0,0.0,0.0,0.0,0.0,0.0,0.0,0.0,0.0,0.0,0.0,0.0,0.0,0.0,0.0,0.0,0.0,0.0,0.0,0.0,0.0,0.0,-0.9242,-0.9367,-0.9602,-0.9422,-0.9306,0.0,0.0,0.0,0.0,0.0,0.0,0.0,0.0,0.0,-1.2157,-1.2213,-1.2633,-1.3531,-1.4475,-1.5294,-1.6121,-1.7742,-1.8404,-1.822,-1.822,-1.7742,-1.6858,-1.7173,-1.7219,-1.7187,-1.8433,-1.796,-1.6247,0.0,0.0,0.0,0.0,-1.1396,-1.1547,-1.1615,-1.175,0.0,-1.0902,0.0,0.0,0.0,0.0,0.0,0.0,0.0,0.0,0.0,0.0,0.0,-1.028,-1.0161,-0.9963,-0.9879,-0.9869,-0.9778,0.0,-0.9486,-0.9306,-0.9072,0.0,0.0,0.0,0.0,-0.7988,-0.7988,-0.7988,-0.7988,-0.7988,-0.7988,-0.7686,-0.6933,-0.6883,-0.6528,-0.5822,-0.502,-0.442,-0.4016,-0.3118,-0.2164,0.0,0.0,0.0,0.0,0.0,0.0,0.0,0.0,0.0,0.0,0.0,0.0,0.0,0.0,0.0,0.0,0.0,0.0,0.0,0.0,0.0,0.0,0.0,0.0,0.0,0.0,0.0,0.0,-0.9357,-0.9479,-0.9737,-0.9574,-0.9439,0.0,0.0,0.0,0.0,0.0,0.0,-0.9815,-1.0179,-1.0959,-1.2157,-1.2573,-1.3168,-1.4009,-1.5187,-1.5779,-1.5779,-1.6973,-1.7155,-1.6374,-1.6374,-1.5725,-1.4614,-1.4897,-1.4988,-1.5186,-1.781,-1.7605,-1.5511,-1.4514,-1.2781,-1.085,-1.0953,-1.104,-1.1149,-1.1164,-1.1272,-1.1306,-1.085,0.0,-1.049,-1.049,0.0,0.0,0.0,0.0,-1.0351,-1.0419,-1.0331,-1.0212,-1.0171,-1.0076,-0.9899,-0.9846,-0.9822,-0.9788,0.0,-0.951,-0.931,-0.9089,0.0,0.0,0.0,0.0,-0.8032,-0.7995,-0.7988,-0.7988,-0.7988,-0.7988,-0.7434,-0.6129,-0.5979,-0.5425,-0.4066,-0.3065,-0.2815,-0.3465,-0.1913,-0.1159,-0.146,0.0,0.0,0.0,0.0,0.0,0.0,0.0,0.0,0.0,0.0,0.0,0.0,0.0,0.0,0.0,0.0,0.0,0.0,0.0,0.0,0.0,0.0,0.0,0.0,0.0,0.0,0.0,0.0,0.0,-0.9602,-0.9608,0.0,0.0,0.0,0.0,-0.9588,-0.9605,-0.9673,-0.9815,-1.1257,-1.2097,-1.2213,-1.3706,-1.3765,-1.2333,-1.2393,-1.2453,-1.2453,-1.2513,-1.3347,-1.4718,-1.4718,-1.4663,-1.4614,-1.4897,-1.4988,-1.4993,-1.5186,-1.5253,-1.5097,-1.3094,-1.2344,-1.2349,-1.2649,-1.2783,-1.2838,-1.3059,-1.3185,-1.2869,-1.1244,-1.0616,-1.049,-1.049,-1.0487,0.0,0.0,-1.048,-1.0453,-1.0324,-1.0178,-0.9963,-0.988,-0.9839,-0.9829,-0.9822,-0.9822,-0.9819,0.0,-0.9578,-0.9374,-0.9361,0.0,-0.8648,-0.8492,-0.835,-0.8208,-0.8008,-0.7988,-0.7988,-0.7988,-0.7988,-0.7434,-0.6129,-0.5979,-0.5425,-0.4066,-0.3915,-0.3364,-0.2163,-0.3215,-0.2614,-0.0151,-0.1357,0.0,0.0,0.0,0.0,0.0,0.0,0.0,0.0,0.0,0.0,0.0,0.0,0.0,0.0,0.0,0.0,0.0,0.0,0.0,0.0,0.0,0.0,0.0,0.0,0.0,0.0,0.0,0.0,-0.9727,-0.9666,0.0,-0.9608,-0.9469,-0.9445,-0.9598,-0.9608,-0.9673,-0.9815,-1.0361,-1.066,-1.066,-1.1197,-1.1257,-1.066,-1.1675,-1.2213,-1.2213,-1.4292,-1.5069,-1.4663,-1.5666,-1.5607,-1.4609,-1.4685,-1.4175,-1.3212,-1.3212,-1.4014,-1.5221,-1.4253,-1.3375,-1.2733,-1.2864,-1.2331,-1.1478,-1.1593,-1.1633,-1.1501,-1.0916,-1.0683,-1.0639,-1.0639,-1.0639,-1.0639,-1.0639,-1.0568,-1.048,-1.0429,-1.0232,-0.9974,-0.992,-0.9893,-0.9822,-0.9822,-0.9822,-0.9822,-0.9822,-0.9585,-0.9381,-0.9381,-0.9008,-0.8693,-0.8635,-0.8425,-0.8252,-0.8197,-0.8102,-0.7988,-0.7988,-0.7988,-0.7129,-0.492,-0.4718,-0.3768,-0.1561,-0.1411,-0.1209,-0.0756,-0.1172,-0.0975,0.0,-0.1382,-0.1407,0.0,0.0,0.0,0.0,0.0,0.0,0.0,0.0,0.0,0.0,0.0,0.0,0.0,0.0,0.0,0.0,0.0,0.0,0.0,0.0,0.0,0.0,0.0,0.0,0.0,-0.9513,-0.9646,-0.9737,-0.9707,-0.968,-0.968,-0.9588,-0.9571,-0.9673,-0.968,-0.9724,-0.9815,-0.9822,-0.9822,-0.9822,-1.0301,-1.0361,-0.9822,-1.1916,-1.2753,-1.2213,-1.4351,-1.4831,-1.383,-1.4351,-1.3994,-1.2988,-1.2988,-1.2393,-1.1378,-1.1378,-1.2577,-1.4256,-1.3437,-1.2719,-1.2085,-1.203,-1.1412,-1.0649,-1.0704,-1.0721,-1.0721,-1.0721,-1.0721,-1.0721,-1.0721,-1.0721,-1.0721,-1.0721,-1.0575,-1.0422,-1.0422,-1.0195,-0.9909,-0.9909,-0.9893,-0.9822,-0.9822,-0.9822,-0.9822,-0.9822,-0.9585,-0.9381,-0.9381,-0.9052,-0.8771,-0.8716,-0.8543,-0.8401,-0.8347,-0.8252,-0.817,-0.8123,-0.7708,-0.652,-0.4218,-0.3565,-0.2363,-0.0151,0.0,0.0,0.0,0.0,0.0,0.0,-0.0958,-0.0981,0.0,0.0,0.0,0.0,0.0,0.0,0.0,0.0,0.0,0.0,0.0,0.0,0.0,0.0,0.0,0.0,0.0,0.0,0.0,0.0,0.0,0.0,0.0,0.0,-0.9429,-0.952,-0.9615,-0.9615,-0.9737,-0.9822,-0.9822,-0.9822,-0.9822,-0.9822,-0.9822,-0.9822,-0.9822,-0.9822,-0.9822,-0.9822,-1.1318,-1.1378,-0.9822,-1.2873,-1.3646,-1.2157,-1.2157,-1.2213,-1.2153,-1.0664,-0.9947,-0.9947,-0.9954,-0.9954,-0.9893,-0.9893,-1.0832,-1.2192,-1.0551,-1.0163,-1.0538,-1.0401,-1.0442,-1.0521,-1.067,-1.0721,-1.0721,-1.0721,-1.0721,-1.0721,-1.0721,-1.0721,-1.0721,-1.0721,-1.051,-1.0287,-1.0283,-1.0056,-0.9825,-0.9822,-0.9822,-0.9822,-0.9822,-0.9822,-0.9822,-0.9822,-0.9588,-0.9388,-0.9381,-0.914,-0.8838,-0.874,-0.8713,0.0,-0.8509,-0.8486,-0.8428,-0.8344,-0.7129,-0.5688,-0.413,-0.277,-0.1413,-0.0101,0.0,0.0,0.0,0.0,0.0,0.0,0.0,0.0,0.0,0.0,0.0,0.0,0.0,0.0,0.0,0.0,0.0,0.0,0.0,0.0,0.0,0.0,0.0,0.0,0.0,0.0,0.0,0.0,0.0,0.0,-0.973,-0.9758,-0.9571,-0.9673,-0.9764,-0.9764,-0.9798,-0.9822,-0.9822,-0.9822,-0.9822,-0.9822,-0.9822,-0.9822,-0.9822,-0.9822,-0.9822,-0.9822,-1.024,-1.024,-0.9822,-1.066,-1.0899,-1.0479,-1.1615,-1.2213,-1.2217,-1.3072,-1.3438,-1.3447,-1.3533,-1.292,-1.1872,-1.1872,-1.1544,-1.104,-1.1503,-1.1932,-1.2214,-1.217,-1.1557,-1.0663,-1.0707,-1.0721,-1.0721,-1.0721,-1.0721,-1.0721,-1.0721,-1.0721,-1.0721,-1.0721,-1.0582,-1.0412,-1.0307,-1.0134,-0.9896,-0.9846,-0.9822,-0.9822,-0.9822,-0.9822,-0.9822,-0.9822,-0.9673,-0.951,-0.9401,-0.9222,-0.9045,-0.8899,-0.8781,0.0,-0.8652,-0.855,-0.8469,-0.8428,-0.7154,-0.5723,-0.4287,-0.2825,-0.1415,-0.0105,0.0,0.0,0.0,0.0,0.0,0.0,0.0,0.0,0.0,0.0,0.0,0.0,0.0,0.0,0.0,0.0,0.0,0.0,0.0,0.0,0.0,0.0,0.0,0.0,0.0,0.0,0.0,0.0,0.0,0.0,-0.9768,-0.9791,-0.971,-0.9771,-0.9822,-0.9822,-0.9822,-0.9822,-0.9822,-0.9822,-0.9822,-0.9822,-0.9822,-0.9822,-0.9822,-0.9822,-0.9822,-0.9822,-0.9822,-0.9822,-0.9822,-1.0479,-1.0838,-1.0842,-1.1736,-1.2255,-1.2279,-1.262,-1.2838,0.0,-1.297,-1.2523,-1.1712,-1.1712,-1.1243,0.0,0.0,0.0,0.0,0.0,-1.1421,-1.0721,-1.0721,-1.0721,-1.0721,-1.0721,-1.0721,-1.0721,-1.0721,-1.0721,-1.0721,-1.0721,-1.0609,-1.0473,-1.0388,-1.0259,-1.0107,-0.9954,-0.9856,-0.9897,-0.9836,-0.9822,-0.9822,-0.9822,-0.9754,0.0,-0.9503,-0.9354,-0.918,-0.9042,-0.8899,-0.8804,-0.8804,-0.818,-0.7725,-0.7671,-0.5841,-0.4224,-0.3346,-0.1967,0.0,0.0,0.0,0.0,0.0,0.0,0.0,0.0,0.0,0.0,0.0,0.0,0.0,0.0,-0.1851,-0.2259,0.0,0.0,0.0,0.0,0.0,0.0,0.0,0.0,0.0,0.0,0.0,0.0,0.0,0.0,0.0,0.0,-0.9822,-0.9822,-0.9822,-0.9822,-0.9822,-0.9822,-0.9822,-0.9822,-0.9822,-0.9822,-0.9822,-0.9822,-0.9822,-0.9822,-0.9822,0.0,0.0,0.0,0.0,-0.9822,-0.9822,-1.1201,-1.1916,-1.1916,-1.1937,-1.2032,-1.2073,-1.0699,-1.0175,-1.0304,-1.0324,-1.0331,-1.0331,-1.0331,-1.0405,-1.0507,-1.0378,-1.049,-1.0721,-1.0721,-1.0721,-1.0721,-1.0721,0.0,0.0,-1.0721,-1.0721,-1.0721,-1.0721,-1.0721,-1.0721,-1.0721,-1.0622,-1.0514,-1.0497,-1.0399,-1.0266,-1.0048,-1.0,-0.995,-0.9876,-0.9832,-0.9822,-0.9822,-0.9822,-0.9781,-0.9656,-0.9381,-0.9234,-0.9234,-0.9042,-0.8888,-0.8905,-0.7604,-0.6661,-0.6559,0.0,0.0,-0.2035,-0.0803,0.0,0.0,0.0,0.0,0.0,0.0,0.0,0.0,0.0,0.0,0.0,0.0,0.0,-0.006,-0.1366,-0.1239,0.0,0.0,0.0,0.0,0.0,0.0,0.0,0.0,0.0,0.0,0.0,0.0,0.0,0.0,0.0,-0.9815,-0.9822,-0.9822,-0.9822,-0.9822,-0.9822,-0.9822,-0.9822,-0.9822,-0.9822,-0.9822,-0.9822,-0.9822,-0.9822,-0.9822,-0.9822,-0.9822,-0.9822,-0.9822,-0.9822,-0.9822,-0.9822,-1.0119,-1.024,-1.024,0.0,0.0,-1.0488,-1.0421,-1.0422,-1.046,-1.0582,-1.0636,-1.0636,-1.0636,-1.0653,-1.0673,-1.0646,-1.067,-1.0721,-1.0721,-1.0721,-1.0721,-1.0721,-1.0721,-1.0721,-1.0721,-1.0721,-1.0721,-1.0721,-1.0721,0.0,-1.0721,-1.07,-1.0649,-1.0524,-1.047,-1.0415,-1.027,-1.0141,-0.9977,-0.995,-0.9849,-0.9822,-0.9822,-0.9822,-0.9812,-0.9785,-0.9534,-0.9337,-0.9337,-0.911,-0.8981,-0.9096,-0.7712,-0.6692,-0.6672,-0.4001,-0.2166,-0.216,-0.0832,0.0,0.0,0.0,0.0,0.0,0.0,0.0,0.0,0.0,0.0,0.0,0.0,0.0,0.0,-0.0302,-0.0302,0.0,0.0,0.0,0.0,0.0,0.0,0.0,0.0,0.0,0.0,0.0,-0.9737,-0.9808,0.0,-0.9737,-0.9808,-0.9886,-0.9849,-0.9832,-0.9886,-0.9872,-0.9872,-0.9872,-0.9872,-0.9872,-0.9872,-0.9842,-0.9825,-0.9822,-0.9822,-0.9822,-0.9822,-0.9822,-0.9822,-0.9893,-0.9897,-0.9822,-0.9975,-1.0012,-0.9876,-1.009,-1.0202,-1.0276,-1.0426,-1.0534,-1.0609,-1.0687,-1.0721,-1.0721,-1.0721,-1.0721,-1.0721,-1.0721,-1.0721,-1.0721,-1.0721,-1.0721,-1.0721,-1.0721,-1.0721,-1.0721,-1.0721,-1.0721,-1.0721,-1.0721,-1.0721,-1.0721,-1.0721,-1.0721,-1.0704,-1.0626,-1.0605,-1.0568,-1.0422,-1.0273,-1.0144,-1.0004,-0.9869,-0.9822,-0.9822,-0.9822,-0.9822,-0.9822,-0.9639,-0.9496,-0.9496,-0.9303,-0.8871,-0.8121,-0.6692,-0.5362,-0.4526,-0.2452,-0.109,-0.109,-0.0402,0.0,0.0,0.0,0.0,0.0,0.0,0.0,0.0,0.0,0.0,0.0,0.0,0.0,0.0,0.0,0.0,0.0,0.0,0.0,0.0,0.0,0.0,0.0,-0.9822,-0.9822,-0.9822,-0.973,-0.9686,-0.9798,-0.9727,-0.9696,-0.9842,-0.9906,-0.9943,-0.9883,-0.9909,-0.9987,-0.9987,-0.996,-0.9943,-0.9943,-0.9943,-0.9893,-0.9829,-0.9822,-0.9822,-0.9822,-0.9849,-0.9866,-0.9866,-0.9953,-1.0036,-0.991,-1.0158,-1.0219,-1.0034,-1.0249,-1.0382,-1.0493,-1.0524,-1.0605,-1.0721,-1.0721,-1.0721,-1.0721,-1.0721,-1.0721,-1.0721,-1.0721,-1.0721,-1.0721,-1.0721,-1.0721,-1.0721,-1.0721,-1.0721,-1.0721,-1.0721,-1.0721,-1.0721,-1.0721,-1.0721,-1.0721,-1.0721,-1.0721,-1.0721,-1.0721,-1.0721,-1.0687,-1.0565,-1.0426,-1.028,-1.0127,-0.9998,-0.9893,-0.9832,-0.9846,-0.9856,-0.9825,-0.9727,-0.9649,-0.9649,-0.9199,-0.8408,-0.7109,-0.5358,-0.3676,-0.2364,-0.0876,0.0,0.0,0.0,0.0,0.0,0.0,0.0,0.0,0.0,0.0,0.0,0.0,0.0,0.0,0.0,0.0,0.0,0.0,0.0,-0.4523,-0.5794,-0.7463,-0.9072,-0.9615,-0.9802,0.0,-0.9822,-0.9822,-0.9822,-0.9808,-0.9802,-0.9819,-0.9808,-0.9846,-0.9936,-0.9977,-0.998,-0.9963,-0.9977,-0.9987,-0.9987,-0.9869,-0.9846,-0.9846,-0.9846,-0.9839,-0.9822,-0.9822,-0.9822,-0.9822,-0.9886,-0.996,-0.996,-1.0175,-1.0246,-1.0229,-1.0263,-1.0273,-1.0256,-1.0399,-1.0477,-1.0497,-1.0633,-1.0704,-1.0721,-1.0721,-1.0721,-1.0721,-1.0721,-1.0721,-1.0721,-1.0721,-1.0721,-1.0721,-1.0721,-1.0721,-1.0721,-1.0721,-1.0721,-1.0721,-1.0721,-1.0721,-1.0721,-1.0721,-1.0721,-1.0721,-1.0721,-1.0721,-1.0721,-1.0721,-1.0721,-1.0717,-1.07,-1.0578,-1.0429,-1.0287,-1.0243,-1.0148,-0.9873,-0.9869,-0.992,-0.9842,-0.9808,-0.9798,-0.9798,-0.8299,-0.7179,-0.7092,-0.4372,-0.2406,-0.2226,-0.0881,0.0,0.0,0.0,0.0,0.0,0.0,0.0,0.0,0.0,0.0,0.0,0.0,0.0,0.0,0.0,0.0,0.0,0.0,0.0,-0.4203,-0.6543,-0.8654,-0.9413,-0.973,-0.9822,-0.9822,-0.9822,-0.9822,-0.9822,-0.9822,-0.9822,-0.9822,-0.9893,-0.9913,-0.9977,-1.0132,-1.0246,-1.0011,-0.9987,-0.9923,-0.9815,-0.9737,-0.9764,-0.9876,-0.9893,-0.9856,-0.9829,-0.9822,-0.9859,-0.9886,-0.9953,-1.0027,-1.0181,-1.0327,-1.0365,-1.028,-1.0449,-1.049,-1.0405,-1.0555,-1.0626,-1.0626,-1.069,-1.0721,-1.0721,-1.0721,-1.0721,-1.0721,-1.0721,-1.0721,-1.0721,-1.0721,-1.0721,-1.0721,-1.0721,-1.0721,-1.0721,-1.0721,-1.0721,-1.0721,-1.0721,-1.0721,-1.0721,-1.0721,-1.0721,-1.0721,-1.0721,-1.0721,-1.0721,-1.0721,-1.0721,-1.0721,-1.0721,-1.0602,-1.0477,-1.0415,-1.0337,-1.0243,-1.0114,-1.0066,-0.9967,-0.9903,-0.988,-0.9451,-0.8526,-0.7706,-0.6856,-0.5943,-0.3793,-0.1993,-0.1028,-0.0363,0.0,0.0,0.0,0.0,0.0,0.0,0.0,0.0,0.0,0.0,0.0,0.0,0.0,0.0,0.0,0.0,0.0,0.0,0.0,-0.4073,-0.6776,-0.891,-0.9576,-0.9791,-0.9822,-0.9822,-0.9822,-0.9822,-0.9822,-0.9822,-0.9822,-0.9822,-0.9852,-0.9953,-1.01,-1.0293,-1.0358,-1.0144,-1.0014,-0.9893,-0.9696,-0.9635,-0.9707,-0.9899,-0.9923,-0.9879,-0.9829,-0.9859,-0.9869,-0.998,-1.0065,-1.0222,-1.0334,-1.048,-1.0507,-1.0402,-1.0612,-1.0663,-1.0558,-1.0666,-1.0721,-1.0721,-1.0721,-1.0721,-1.0721,-1.0721,-1.0721,-1.0721,-1.0721,-1.0721,-1.0721,-1.0721,-1.0721,-1.0721,-1.0721,-1.0721,-1.0721,-1.0721,-1.0721,-1.0721,-1.0721,-1.0721,-1.0721,-1.0721,-1.0721,-1.0721,-1.0721,-1.0721,-1.0721,-1.0721,-1.0721,-1.0721,-1.0721,-1.0636,-1.0544,-1.05,-1.0443,-1.0378,-1.0297,-1.0222,-1.0081,-1.0,-0.952,-0.8757,-0.7609,-0.6625,-0.5624,-0.4419,-0.2812,-0.1356,-0.0123,0.0,0.0,0.0,0.0,0.0,0.0,0.0,0.0,0.0,0.0,0.0,0.0,0.0,0.0,0.0,0.0,0.0,0.0,0.0,0.0,-0.4221,-0.5907,-0.7588,-0.9216,-0.972,-0.9822,-0.9822,-0.9822,-0.9822,-0.9822,-0.9822,-0.9822,-0.9822,-0.9825,-0.9924,-1.0226,-1.028,-1.0283,-1.0276,-1.0144,-0.993,-0.9832,-0.9693,-0.9666,0.0,-0.9829,-0.9825,-0.9822,-0.9896,-0.998,-0.9987,-1.0321,-1.048,-1.0483,-1.0633,-1.0711,-1.0707,-1.0714,-1.0717,-1.0714,-1.0717,-1.0721,-1.0721,-1.0721,-1.0721,-1.0721,-1.0721,-1.0721,-1.0721,-1.0721,-1.0721,-1.0721,-1.0721,-1.0721,-1.0721,-1.0721,-1.0721,-1.0721,-1.0721,-1.0721,-1.0721,-1.0721,-1.0721,-1.0721,-1.0721,-1.0721,-1.0721,-1.0721,-1.0721,-1.0721,-1.0721,-1.0721,-1.0721,-1.0721,-1.0717,-1.0673,-1.0524,-1.0605,-1.0622,-1.0337,-1.0388,-1.0388,-1.0038,-0.8723,-0.7614,-0.7439,-0.4668,-0.2647,-0.2584,-0.1109,-0.0062,0.0,0.0,0.0,0.0,0.0,0.0,0.0,0.0,0.0,0.0,0.0,0.0,0.0,0.0,0.0,0.0,0.0,0.0,0.0,0.0,0.0,-0.5828,-0.7412,-0.8789,-0.9566,-0.9785,-0.9822,-0.9822,-0.9822,-0.9822,-0.9822,-0.9747,-0.968,-0.968,-0.9758,-0.9856,-0.9958,-1.0226,-1.0351,-1.0154,-1.0017,-0.9896,-0.971,-0.9639,-0.9629,-0.9676,0.0,0.0,-0.9822,-0.9903,-1.0031,-1.0198,-1.0385,-1.0538,-1.0639,-1.0694,-1.0721,-1.0721,-1.0721,-1.0721,-1.0721,-1.0721,-1.0721,-1.0721,-1.0721,-1.0721,-1.0721,-1.0721,-1.0721,-1.0721,-1.0721,-1.0721,-1.0721,-1.0721,-1.0721,-1.0721,-1.0721,-1.0721,-1.0721,-1.0721,-1.0721,-1.0721,-1.0721,-1.0721,-1.0721,-1.0721,-1.0721,-1.0721,-1.0721,-1.0721,-1.0721,-1.0721,-1.0721,-1.0721,-1.0721,-1.0721,-1.0707,-1.0656,-1.0683,-1.069,-1.0592,-0.9543,-0.8697,-0.8548,-0.6995,-0.5434,-0.431,-0.3227,-0.2126,-0.1001,-0.0379,0.0,0.0,0.0,0.0,0.0,0.0,0.0,0.0,0.0,0.0,0.0,0.0,0.0,0.0,0.0,0.0,0.0,0.0,0.0,0.0,0.0,0.0,-0.6807,-0.8239,-0.952,-0.9761,-0.9822,-0.9822,-0.9822,-0.9822,-0.9805,-0.9754,-0.9673,-0.9608,-0.9608,-0.9683,-0.9781,-0.9886,-1.0144,-1.0266,-1.0014,-0.994,-0.9835,-0.9707,-0.9642,-0.9629,-0.968,-0.9768,0.0,-0.9822,-1.0015,-1.0175,-1.0276,-1.0466,-1.0619,-1.0717,-1.0721,-1.0721,-1.0721,-1.0721,-1.0721,-1.0721,-1.0721,-1.0721,-1.0721,-1.0721,-1.0721,-1.0721,-1.0721,-1.0721,-1.0721,-1.0721,-1.0721,-1.0721,-1.0721,-1.0721,-1.0721,-1.0721,-1.0721,-1.0721,-1.0721,-1.0721,-1.0721,-1.0721,-1.0721,-1.0721,-1.0721,-1.0721,-1.0721,-1.0721,-1.0721,-1.0721,-1.0721,-1.0721,-1.0721,-1.0721,-1.0721,-1.0721,-1.0721,-1.0721,-1.0518,-0.9845,-0.8709,-0.7651,-0.6958,-0.5274,-0.3472,-0.1881,-0.1585,-0.1212,-0.0126,0.0,0.0,0.0,0.0,0.0,0.0,0.0,0.0,0.0,0.0,0.0,0.0,0.0,0.0,0.0,0.0,0.0,0.0,0.0,0.0,0.0,0.0,0.0,-0.719,-0.8378,-0.9656,-0.9808,-0.9839,-0.9832,-0.9832,-0.9825,-0.9781,-0.9639,-0.9608,-0.9608,-0.9598,-0.9605,-0.9703,-0.993,-0.9987,-1.0,-1.0,-0.9934,-0.9842,-0.9842,-0.972,-0.969,-0.9829,-0.9842,0.0,-0.9842,0.0,-1.0283,-1.029,-1.0565,-1.0721,-1.0721,-1.0721,-1.0721,-1.0721,-1.0721,-1.0721,-1.0721,-1.0721,-1.0721,-1.0721,-1.0721,-1.0721,-1.0721,-1.0721,-1.0721,-1.0721,-1.0721,-1.0721,-1.0721,-1.0721,-1.0721,-1.0721,-1.0721,-1.0721,-1.0721,-1.0721,-1.0721,-1.0721,-1.0721,-1.0721,-1.0721,-1.0721,-1.0721,-1.0721,-1.0721,-1.0721,-1.0721,-1.0721,-1.0721,-1.0721,-1.0721,-1.0721,-1.0721,-1.0721,-1.0654,-1.0047,-0.8366,-0.7828,-0.7131,-0.5196,-0.3441,-0.1804,-0.0258,0.0,0.0,0.0,0.0,0.0,0.0,0.0,0.0,0.0,0.0,0.0,0.0,0.0,0.0,0.0,0.0,0.0,0.0,0.0,0.0,0.0,0.0,0.0,0.0,0.0,0.0,-0.8731,-0.9433,-0.9832,-1.0097,-1.0076,-0.993,-0.993,-0.9842,-0.9781,-0.9639,-0.9608,-0.9574,-0.9459,-0.9534,-0.9669,-0.9849,-1.0073,-1.0222,-1.0222,-1.0188,-1.0164,-1.0164,-1.0029,-0.9998,-1.0148,-1.0164,-1.0164,0.0,-1.0236,-1.0327,-1.0432,-1.0616,-1.0721,-1.0721,-1.0721,-1.0721,-1.0721,-1.0721,-1.0721,-1.0721,-1.0721,-1.0721,-1.0721,-1.0721,-1.0721,-1.0721,-1.0721,-1.0721,-1.0721,-1.0721,-1.0721,-1.0721,-1.0721,-1.0721,-1.0721,-1.0721,-1.0721,-1.0721,-1.0721,-1.0721,-1.0721,-1.0721,-1.0721,-1.0721,-1.0721,-1.0721,-1.0721,-1.0721,-1.0721,-1.0721,-1.0721,-1.0721,-1.0721,-1.0721,-1.0721,-1.0721,-1.0721,-0.9643,-0.8568,-0.8097,-0.5893,-0.3471,-0.1648,-0.0919,-0.0522,-0.0065,0.0,0.0,0.0,0.0,0.0,0.0,0.0,0.0,0.0,0.0,0.0,0.0,0.0,0.0,0.0,0.0,0.0,0.0,0.0,0.0,0.0,0.0,0.0,0.0,0.0,0.0,-0.9609,-0.9971,-1.0066,-1.0239,-1.0164,-0.9987,-0.9987,-0.9869,-0.9781,-0.9639,-0.9608,-0.9585,-0.9496,-0.9602,-0.9751,-0.9897,-1.0124,-1.028,-1.028,-1.028,-1.028,-1.028,-1.0205,-1.0185,-1.0273,-1.028,-1.0307,0.0,-1.0375,-1.0409,-1.0487,-1.0636,-1.0721,-1.0721,-1.0721,-1.0721,-1.0721,-1.0721,-1.0721,-1.0721,-1.0721,-1.0721,-1.0721,-1.0721,-1.0721,-1.0721,0.0,-1.0721,-1.0721,-1.0721,-1.0721,-1.0721,-1.0721,-1.0721,-1.0721,-1.0721,-1.0721,-1.0721,-1.0721,-1.0721,-1.0721,-1.0721,-1.0721,-1.0721,-1.0721,-1.0721,-1.0721,-1.0721,-1.0721,-1.0721,-1.0721,-1.0721,-1.0721,-1.0721,-1.0721,-1.0721,-1.0721,-0.9308,-0.7562,-0.596,-0.3421,-0.1207,-0.02,0.0,0.0,0.0,0.0,0.0,0.0,0.0,0.0,0.0,0.0,0.0,0.0,0.0,0.0,0.0,0.0,0.0,0.0,0.0,0.0,0.0,0.0,0.0,0.0,0.0,0.0,0.0,0.0,0.0,-1.0,-1.0205,-1.0314,-1.0334,-1.0209,-1.0017,-1.0017,-0.9759,-0.9533,-0.9579,-0.9443,-0.939,-0.9552,-0.9727,-0.9876,-0.999,-1.0195,-1.0293,-1.0334,-1.0321,-1.0317,-1.0337,-1.0321,-1.0317,-1.0337,-1.0337,-1.0388,-1.0514,-1.0521,-1.0521,-1.0521,-1.0649,-1.0721,-1.0721,-1.0721,-1.0721,-1.0721,-1.0721,-1.0721,-1.0721,-1.0721,-1.0721,-1.0721,-1.0721,-1.0721,-1.0721,0.0,0.0,-1.0721,-1.0721,-1.0721,-1.0721,-1.0721,-1.0721,-1.0721,-1.0721,-1.0721,-1.0721,-1.0721,-1.0721,-1.0721,-1.0721,-1.0721,-1.0721,-1.0721,-1.0721,-1.0721,-1.0721,-1.0721,-1.0721,-1.0721,-1.0721,-1.0721,-1.0721,-1.0721,-1.0651,-1.0382,-0.877,-0.6293,-0.302,-0.1075,0.0,0.0,0.0,0.0,0.0,0.0,0.0,0.0,0.0,0.0,0.0,0.0,0.0,0.0,0.0,0.0,0.0,0.0,0.0,0.0,0.0,0.0,0.0,0.0,0.0,0.0,0.0,0.0,0.0,0.0,0.0,-1.0341,-1.0436,-1.0483,-1.0612,-1.0439,-1.0239,-1.0239,-0.9016,-0.8187,-0.9337,-0.8609,-0.8159,-0.9387,-0.9727,-0.9914,-1.0195,-1.0263,-1.0365,-1.0609,-1.0534,-1.0504,-1.0629,-1.0531,-1.0504,-1.0633,-1.0643,-1.0653,0.0,-1.068,-1.068,-1.068,-1.0707,-1.0721,-1.0721,-1.0721,-1.0721,-1.0721,-1.0721,-1.0721,-1.0721,-1.0721,-1.0721,-1.0721,-1.0721,-1.0721,-1.0721,-1.0721,0.0,-1.0721,-1.0721,-1.0721,-1.0721,-1.0721,-1.0721,-1.0721,-1.0721,-1.0721,-1.0721,-1.0721,-1.0721,-1.0721,-1.0721,-1.0721,-1.0721,-1.0721,-1.0721,-1.0721,-1.0721,-1.0721,-1.0721,-1.0721,-1.0721,-1.0721,-1.0721,-1.0721,-1.0316,-0.8767,-0.5893,-0.3019,-0.0874,-0.0202,0.0,0.0,0.0,0.0,0.0,0.0,0.0,0.0,0.0,0.0,0.0,0.0,0.0,0.0,0.0,0.0,0.0,0.0,0.0,0.0,0.0,0.0,0.0,0.0,0.0,0.0,0.0,0.0,0.0,0.0,0.0,-0.9422,-0.9244,-0.9332,-0.9325,-0.9098,-0.8942,-0.9006,-0.8154,-0.7591,-0.8328,-0.7925,-0.7971,-0.9439,-0.9907,-1.011,-1.0256,-1.0341,-1.0466,-1.0687,-1.0656,-1.0636,-1.0711,-1.0656,-1.0639,-1.0714,-1.0721,-1.0721,-1.0721,-1.0721,-1.0721,-1.0721,-1.0721,-1.0721,-1.0721,-1.0721,-1.0721,-1.0721,-1.0721,-1.0721,-1.0721,-1.0721,-1.0721,-1.0721,-1.0721,-1.0721,-1.0721,-1.0721,0.0,-1.0721,-1.0721,-1.0721,-1.0721,-1.0721,-1.0721,-1.0721,-1.0721,-1.0721,-1.0721,-1.0721,-1.0721,-1.0721,-1.0721,-1.0721,-1.0721,-1.0721,-1.0721,-1.0721,-1.0721,-1.0721,-1.0721,-1.0721,-1.0721,-1.0721,-1.0721,-0.9978,-0.8568,-0.5826,-0.389,-0.2149,-0.0336,0.0,0.0,0.0,0.0,0.0,0.0,0.0,0.0,0.0,0.0,0.0,0.0,0.0,0.0,0.0,0.0,0.0,0.0,0.0,0.0,0.0,0.0,0.0,0.0,0.0,0.0,0.0,0.0,0.0,0.0,0.0,0.0,-0.7766,-0.7535,-0.7639,-0.7471,-0.7537,-0.755,-0.7271,-0.7024,-0.6872,-0.6872,-0.6955,-0.7503,-0.9023,-0.984,-1.029,-1.0321,-1.0419,-1.0544,-1.07,-1.0721,-1.0721,-1.0721,-1.0721,-1.0721,-1.0721,-1.0721,0.0,-1.0721,-1.0721,0.0,-1.0721,-1.0721,-1.0721,-1.0721,-1.0721,-1.0721,-1.0721,-1.0721,-1.0721,-1.0721,-1.0721,-1.0721,-1.0721,-1.0721,-1.0721,-1.0721,-1.0721,0.0,0.0,-1.0721,-1.0721,-1.0721,-1.0721,-1.0721,-1.0721,-1.0721,-1.0721,-1.0721,-1.0721,-1.0721,-1.0721,-1.0721,-1.0721,-1.0721,-1.0721,-1.0721,-1.0721,-1.0721,-1.0721,-1.0721,-1.0721,-1.0721,-1.0585,-1.0183,-0.8435,-0.6093,-0.3287,-0.2417,-0.168,-0.0269,0.0,0.0,0.0,0.0,0.0,0.0,0.0,0.0,0.0,0.0,0.0,0.0,0.0,0.0,0.0,0.0,0.0,0.0,0.0,0.0,0.0,0.0,0.0,0.0,0.0,0.0,0.0,0.0,0.0,0.0,0.0,0.0,-0.5631,-0.5653,-0.5649,-0.5633,-0.6631,-0.7198,-0.5714,-0.5209,-0.51,-0.51,-0.5222,-0.5835,-0.7518,-0.9145,-1.0324,-1.0453,-1.0483,-1.0544,-1.07,-1.0721,-1.0721,-1.0721,-1.0721,-1.0721,-1.0721,-1.0721,-1.0721,-1.0721,0.0,0.0,-1.0721,-1.0721,-1.0721,-1.0721,-1.0721,-1.0721,-1.0721,-1.0721,-1.0721,-1.0721,-1.0721,-1.0721,-1.0721,-1.0721,-1.0721,-1.0721,-1.0721,0.0,0.0,-1.0721,-1.0721,-1.0721,-1.0721,-1.0721,-1.0721,-1.0721,-1.0721,-1.0721,-1.0721,-1.0721,-1.0721,-1.0721,-1.0721,-1.0721,-1.0721,-1.0721,-1.0721,-1.0721,-1.0721,-1.0721,-1.0721,-1.0721,-1.0316,-0.8634,-0.5626,-0.3087,-0.2752,-0.1411,-0.0202,0.0,0.0,0.0,0.0,0.0,0.0,0.0,0.0,0.0,0.0,0.0,0.0,0.0,0.0,0.0,0.0,0.0,0.0,0.0,0.0,0.0,0.0,0.0,0.0,0.0,0.0,0.0,0.0,0.0,0.0,0.0,0.0,0.0,-0.4064,-0.383,-0.3905,-0.3773,-0.4162,-0.435,-0.3797,-0.3581,-0.3454,-0.3485,-0.3532,-0.4456,-0.7124,-0.8242,-0.9189,-1.0285,-1.049,-1.0544,-1.07,-1.0721,-1.0721,-1.0721,-1.0721,-1.0721,-1.0721,0.0,-1.0721,-1.0721,0.0,0.0,-1.0721,-1.0721,-1.0721,-1.0721,-1.0721,-1.0721,-1.0721,-1.0721,-1.0721,-1.0721,-1.0721,-1.0721,-1.0721,-1.0721,-1.0721,-1.0724,-1.0816,0.0,0.0,-1.0951,-1.0985,-1.0985,-1.0985,-1.0985,-1.0985,-1.0985,-1.0985,-1.0985,-1.0985,-1.0931,-1.0789,-1.0789,-1.0795,-1.0721,-1.0721,-1.0721,-1.0721,-1.0721,-1.0721,-1.0721,-1.0721,-0.9911,-0.8366,-0.5492,-0.3755,-0.2417,-0.1277,-0.0538,0.0,0.0,0.0,0.0,0.0,0.0,0.0,0.0,0.0,0.0,0.0,0.0,0.0,0.0,0.0,0.0,0.0,0.0,0.0,0.0,0.0,0.0,0.0,0.0,0.0,0.0,0.0,0.0,0.0,0.0,0.0,0.0,0.0,0.0,-0.2222,-0.195,-0.1997,-0.1958,-0.2192,-0.2423,-0.2001,-0.221,-0.2363,-0.1886,-0.2293,-0.341,-0.5744,-0.7059,-0.8249,-0.9565,-1.0228,-1.0599,-1.0704,-1.0721,-1.0721,-1.0721,-1.0721,-1.0721,-1.0721,-1.0721,-1.0721,-1.0721,0.0,0.0,-1.0721,-1.0721,-1.0721,-1.0721,-1.0721,-1.0721,-1.0721,-1.0721,-1.0721,-1.0721,-1.0721,-1.0721,-1.0721,-1.0721,-1.0721,-1.0727,0.0,0.0,0.0,-1.1104,-1.1231,-1.1231,-1.1231,-1.1231,-1.1231,-1.1231,-1.1231,-1.1231,-1.1231,-1.1067,-1.088,-1.088,-1.0779,-1.0721,-1.0721,-1.0721,-1.0721,-1.0721,-1.0721,-1.0585,-1.0047,-0.8568,-0.6496,-0.3421,-0.2283,-0.1545,-0.0269,0.0,0.0,0.0,0.0,0.0,0.0,0.0,0.0,0.0,0.0,0.0,0.0,0.0,0.0,0.0,0.0,0.0,0.0,0.0,0.0,0.0,0.0,0.0,0.0,0.0,0.0,0.0,0.0,0.0,0.0,0.0,0.0,0.0,0.0,0.0,-0.0065,0.0,0.0,0.0,-0.1263,-0.2096,-0.0388,-0.1338,-0.2016,-0.0379,-0.1466,-0.2712,-0.2752,-0.5637,-0.8028,-0.8028,-0.9507,-1.0717,-1.0721,-1.0721,-1.0721,-1.0721,-1.0721,-1.0721,-1.0721,-1.0721,-1.0721,0.0,0.0,0.0,-1.0721,-1.0721,-1.0721,-1.0721,-1.0721,-1.0721,-1.0721,-1.0721,-1.0721,-1.0721,-1.0721,-1.0721,-1.0721,-1.0721,-1.0721,0.0,0.0,0.0,0.0,-1.1104,-1.1231,-1.1231,-1.1231,-1.1231,-1.1231,-1.1231,-1.1231,-1.1231,-1.1231,-1.1067,-1.088,-1.088,-1.0779,-1.0721,-1.0721,-1.0721,-1.0721,-1.0721,-1.0721,-1.0316,-0.8499,-0.6765,-0.4961,-0.3154,-0.1344,0.0,0.0,0.0,0.0,0.0,0.0,0.0,0.0,0.0,0.0,0.0,0.0,0.0,0.0,0.0,0.0,0.0,0.0,0.0,0.0,0.0,0.0,0.0,0.0,0.0,0.0,0.0,0.0,0.0,0.0,0.0,0.0,0.0,0.0,0.0,0.0,0.0,0.0,0.0,0.0,0.0,-0.0394,-0.0649,-0.0129,-0.0386,-0.0641,-0.0128,-0.0454,-0.1247,-0.2461,-0.361,-0.5158,-0.7629,-0.8499,-0.9305,-1.0518,-1.0721,-1.0721,-1.0721,-1.0721,-1.0721,0.0,0.0,0.0,0.0,0.0,0.0,-1.0721,-1.0721,-1.0721,-1.0721,-1.0721,-1.0721,-1.0721,-1.0721,-1.0721,-1.0721,-1.0721,-1.0721,-1.0721,-1.0721,0.0,0.0,0.0,0.0,0.0,-1.1369,-1.1474,-1.1474,-1.1474,-1.1474,-1.1474,-1.1474,-1.1474,-1.1474,-1.1474,-1.1375,-1.1233,-1.1128,-1.0995,-1.0789,-1.0751,-1.0721,-1.0721,-1.0721,-0.9779,-0.8435,-0.6698,-0.4894,-0.3087,-0.1277,-0.0404,0.0,0.0,0.0,0.0,0.0,0.0,0.0,0.0,0.0,0.0,0.0,0.0,0.0,0.0,0.0,0.0,0.0,0.0,0.0,0.0,0.0,0.0,0.0,0.0,0.0,0.0,0.0,0.0,0.0,0.0,0.0,0.0,0.0,0.0,0.0,0.0,0.0,0.0,0.0,0.0,0.0,0.0,0.0,0.0,0.0,0.0,0.0,0.0,-0.0331,-0.1474,-0.2216,-0.3421,-0.5626,-0.7096,-0.8366,-0.9507,-1.025,-1.0721,-1.0721,-1.0721,0.0,0.0,-1.0721,0.0,0.0,0.0,0.0,-1.0721,-1.0721,-1.0721,-1.0721,-1.0721,-1.0721,-1.0721,-1.0721,-1.0721,-1.0721,-1.0721,-1.0721,-1.0721,-1.0721,0.0,0.0,0.0,0.0,0.0,-1.1518,-1.1619,-1.1619,-1.1619,-1.1619,-1.1619,-1.1619,-1.1619,-1.1619,-1.1619,-1.1518,-1.1365,-1.1212,-1.1026,-1.0779,-1.0748,-1.0721,-1.0721,-1.0721,-0.9374,-0.7631,-0.583,-0.4025,-0.2216,-0.0404,0.0,0.0,0.0,0.0,0.0,0.0,0.0,0.0,0.0,0.0,0.0,0.0,0.0,0.0,0.0,0.0,0.0,0.0,0.0,0.0,0.0,0.0,0.0,0.0,0.0,0.0,0.0,0.0,0.0,0.0,0.0,0.0,0.0,0.0,0.0,0.0,0.0,0.0,0.0,0.0,0.0,0.0,0.0,0.0,0.0,0.0,0.0,0.0,0.0,0.0,0.0,-0.1344,-0.2551,-0.2685,-0.5559,-0.7831,-0.7964,-0.9573,-1.0721,0.0,-1.0721,0.0,-1.0721,0.0,0.0,0.0,0.0,0.0,-1.0721,-1.0721,-1.0721,-1.0721,-1.0721,-1.0721,-1.0721,-1.0721,-1.0721,-1.0721,-1.0721,-1.0721,-1.0721,-1.0721,0.0,0.0,0.0,0.0,0.0,-1.1552,-1.1619,-1.1619,-1.1619,-1.1619,-1.1619,-1.1619,-1.1619,-1.1619,-1.1619,-1.1528,-1.1382,-1.1216,-1.0968,-1.0734,-1.0724,-1.0721,-1.0654,-1.0518,-0.9238,-0.7431,-0.5629,-0.389,-0.2082,-0.0404,0.0,0.0,0.0,0.0,0.0,0.0,0.0,0.0,0.0,0.0,0.0,0.0,0.0,0.0,0.0,0.0,0.0,0.0,0.0,0.0,0.0,0.0,0.0,0.0,0.0,0.0,0.0,0.0,0.0,0.0,0.0,0.0,0.0,0.0,0.0,0.0,0.0,0.0,0.0,0.0,0.0,0.0,0.0,0.0,0.0,0.0,0.0,0.0,0.0,0.0,0.0,-0.0336,-0.1075,-0.2484,-0.4559,-0.6498,-0.7831,-0.9573,-1.0721,-1.0721,-1.0721,-1.0721,-1.0721,0.0,0.0,0.0,0.0,-1.0721,-1.0721,-1.0721,-1.0721,-1.0721,-1.0721,-1.0721,-1.0721,-1.0721,-1.0721,-1.0721,-1.0721,-1.0721,-1.0721,-1.0721,0.0,0.0,0.0,0.0,-1.1236,-1.1508,-1.1619,-1.1619,-1.1619,-1.1619,-1.1619,-1.1619,-1.1619,-1.1619,-1.1619,-1.1596,-1.1521,-1.125,-1.1043,-1.0806,-1.0755,-1.0721,-1.0382,-0.9036,-0.7365,-0.5629,-0.3823,-0.2015,-0.0538,-0.0135,0.0,0.0,0.0,0.0,0.0,0.0,0.0,0.0,0.0,0.0,0.0,0.0,0.0,0.0,0.0,0.0,0.0,0.0,0.0,0.0,0.0,0.0,0.0,0.0,0.0,0.0,0.0,0.0,0.0,0.0,0.0,0.0,0.0,0.0,0.0,0.0,0.0,0.0,0.0,0.0,0.0,0.0,0.0,0.0,0.0,0.0,0.0,0.0,0.0,0.0,0.0,0.0,-0.0336,-0.1277,-0.369,-0.6299,0.0,0.0,-1.0721,-1.0721,-1.0721,-1.0721,0.0,0.0,0.0,0.0,0.0,-1.0721,-1.0721,-1.0721,-1.0721,-1.0721,-1.0721,-1.0721,-1.0721,-1.0721,-1.0721,-1.0721,-1.0721,-1.0721,-1.0721,-1.0721,-1.0758,0.0,0.0,0.0,-1.1287,-1.1521,-1.1619,-1.1619,-1.1619,-1.1619,-1.1619,-1.1619,-1.1619,-1.1619,-1.1619,-1.1528,-1.1382,-1.1216,-1.1019,-1.0762,-1.0744,-1.0114,-0.9238,-0.8299,-0.6162,-0.3958,-0.2953,-0.1344,0.0,0.0,0.0,0.0,0.0,0.0,0.0,0.0,0.0,0.0,0.0,0.0,0.0,0.0,0.0,0.0,0.0,0.0,0.0,0.0,0.0,0.0,0.0,0.0,0.0,0.0,0.0,0.0,0.0,0.0,0.0,0.0,0.0,0.0,0.0,0.0,0.0,0.0,0.0,0.0,0.0,0.0,0.0,0.0,0.0,0.0,0.0,0.0,0.0,0.0,0.0,0.0,0.0,0.0,0.0,0.0,-0.302,0.0,-0.9845,-1.0518,-1.0585,-1.0316,-1.0518,0.0,0.0,0.0,0.0,0.0,0.0,-1.0721,-1.0721,-1.0721,-1.0721,-1.0721,-1.0721,-1.0721,-1.0721,-1.0721,-1.0721,-1.0721,-1.0721,-1.0721,-1.0721,-1.0721,-1.0792,0.0,0.0,0.0,-1.1369,-1.1548,-1.1619,-1.1619,-1.1619,-1.1619,-1.1619,-1.1619,-1.1619,-1.1619,-1.1619,-1.1436,-1.1199,-1.1199,-1.0995,-1.0691,-1.0442,-0.907,-0.7572,-0.7266,-0.5042,-0.2618,-0.2351,-0.1143,0.0,0.0,0.0,0.0,0.0,0.0,0.0,0.0,0.0,0.0,0.0,0.0,0.0,0.0,0.0,0.0,0.0,0.0,0.0,0.0,0.0,0.0,0.0,0.0,0.0,0.0,0.0,0.0,0.0,0.0,0.0,0.0,0.0,0.0,0.0,0.0,0.0,0.0,0.0,0.0,0.0,0.0,0.0,0.0,0.0,0.0,0.0,0.0,0.0,0.0,0.0,0.0,0.0,0.0,0.0,0.0,-0.302,-0.6097,0.0,0.0,-1.0114,-0.8568,0.0,0.0,0.0,0.0,0.0,0.0,0.0,0.0,0.0,-1.0721,-1.0721,-1.0721,-1.0721,-1.0721,-1.0721,-1.0721,-1.0721,-1.0721,-1.0721,-1.0721,-1.0721,-1.0721,-1.0731,0.0,0.0,-1.1175,-1.1219,-1.1504,-1.1619,-1.1619,-1.1619,-1.1619,-1.1619,-1.1619,-1.1619,-1.1619,-1.1619,-1.1504,-1.1355,-1.1355,-1.1155,-1.0593,-0.9122,-0.7301,-0.5457,-0.3933,-0.3144,-0.2351,-0.0807,-0.0202,0.0,0.0,0.0,0.0,0.0,0.0,0.0,0.0,0.0,0.0,0.0,0.0,0.0,0.0,0.0,0.0,0.0,0.0,0.0,0.0,0.0,0.0,0.0,0.0,0.0,0.0,0.0,0.0,0.0,0.0,0.0,0.0,0.0,0.0,0.0,0.0,0.0,0.0,0.0,0.0,0.0,0.0,0.0,0.0,0.0,0.0,0.0,0.0,0.0,0.0,0.0,0.0,0.0,0.0,-0.0331,-0.1274,-0.2887,-0.4892,-0.7629,-0.79,-0.8238,0.0,0.0,0.0,0.0,0.0,0.0,0.0,0.0,0.0,0.0,0.0,-1.0721,-1.0721,-1.0721,-1.0721,-1.0721,-1.0721,-1.0721,-1.0721,-1.0721,-1.0721,-1.0721,-1.0721,-1.0721,-1.0738,0.0,-1.1231,-1.1189,-1.1494,-1.1619,-1.1619,-1.1619,-1.1619,-1.1619,-1.1619,-1.1619,-1.1619,-1.1619,-1.1518,-1.1392,-1.1392,-1.1243,-1.0727,-0.8844,-0.6988,-0.5085,-0.3205,-0.199,-0.1077,-0.0204,0.0,0.0,0.0,0.0,0.0,0.0,0.0,0.0,0.0,0.0,0.0,0.0,0.0,0.0,0.0,0.0,0.0,0.0,0.0,0.0,0.0,0.0,0.0,0.0,0.0,0.0,0.0,0.0,0.0,0.0,0.0,0.0,0.0,0.0,0.0,0.0,0.0,0.0,0.0,0.0,0.0,0.0724,0.0591,0.0459,0.0066,0.0,0.0,0.0,0.0,0.0,0.0,0.0,0.0,0.0,0.0,-0.0593,-0.24,-0.2672,-0.367,-0.6396,-0.6265,-0.666,0.0,0.0,0.0,0.0,0.0,0.0,0.0,0.0,0.0,0.0,0.0,-1.0721,-1.0721,-1.0721,-1.0721,-1.0721,-1.0721,-1.0721,-1.0721,-1.0721,-1.0721,-1.0721,-1.0721,-1.0721,-1.0738,-1.1033,-1.1231,-1.1189,-1.1494,-1.1619,-1.1619,-1.1619,-1.1619,-1.1619,-1.1619,-1.1619,-1.1619,-1.1619,-1.1518,-1.1396,-1.1433,-1.1034,-1.0197,-0.8293,-0.6382,-0.4544,-0.2609,-0.104,0.0,0.0,0.0,0.0,0.0,0.0,0.0,0.0,0.0,0.0,0.0,0.0,0.0,0.0,0.0,0.0,0.0,0.0,0.0,0.0,0.0,0.0,0.0,0.0,0.0,0.0,0.0,0.0,0.0,0.0,0.0,0.0,0.0,0.0,0.0,0.0,0.0,0.0,0.0,0.0,0.0,0.0,0.0,0.2891,0.2408,0.1933,0.0388,0.0,0.0,0.0,0.0,0.0,0.0,0.0,0.0,0.0,0.0,-0.0584,-0.243,-0.2698,-0.2764,-0.3026,0.0,0.0,0.0,0.0,0.0,0.0,0.0,0.0,0.0,0.0,0.0,0.0,0.0,0.0,-1.0721,-1.0721,-1.0721,-1.0721,-1.0721,-1.0721,-1.0721,-1.0721,-1.0721,-1.0721,-1.0721,-1.0721,-1.0738,-1.1033,-1.1231,-1.1189,-1.1494,-1.1619,-1.1619,-1.1619,-1.1619,-1.1619,-1.1619,-1.1619,-1.1619,-1.1619,-1.1518,-1.1413,-1.1555,-1.0192,-0.8201,-0.6469,-0.456,-0.2532,-0.0722,-0.0071,0.0,0.0,0.0,0.0,0.0,0.0,0.0,0.0,0.0,0.0,0.0,0.0,0.0,0.0,0.0,0.0,0.0,0.0,0.0,0.0,0.0,0.0,0.0,0.0,0.0,0.0,0.0,0.0,0.0,0.0,0.0,0.0,0.0,0.0,0.0,0.0,0.0,0.0,0.0,0.0,0.0,0.0,0.0,0.1157,0.0958,0.0763,0.0127,0.0,0.0,0.0,0.0,0.0,0.0,0.0,0.0,0.0,0.0,-0.0256,-0.0908,-0.104,-0.1429,-0.2529,0.0,0.0,0.0,0.0,0.0,0.0,0.0,0.0,0.0,0.0,0.0,0.0,0.0,0.0,-1.0575,-1.0578,-1.0622,-1.0717,-1.0721,-1.0721,-1.0721,-1.0721,-1.0721,-1.0721,-1.0721,-1.0721,-1.0731,-1.0938,-1.108,-1.1179,-1.1392,-1.1535,-1.1619,-1.1619,-1.1619,-1.1619,-1.1619,-1.1619,-1.1619,-1.1619,-1.1582,-1.1541,-1.1599,-1.0236,-0.8235,-0.6368,-0.4401,-0.2443,-0.0509,0.0,0.0,0.0,0.0,0.0,0.0,0.0,0.0,0.0,0.0,0.0,0.0,0.0,0.0,0.0,0.0,0.0,0.0,0.0,0.0,0.0,0.0,0.0,0.0,0.0,0.0,0.0,0.0,0.0,0.0,0.0,0.0,0.0,0.0,0.0,0.0,0.0,0.0,0.0,0.0,0.0,0.0,0.0,0.0,0.1012,0.0817,0.0689,0.0125,0.0,0.0,0.0,0.0,0.0,0.0,0.0,0.0,0.0,0.0,0.0,0.0,0.0,-0.0449,0.0,0.0,0.0,0.0,0.0,0.0,0.0,0.0,0.0,0.0,0.0,0.0,0.0,0.0,0.0,0.0,-1.047,-1.0541,-1.0646,-1.0697,-1.0721,-1.0721,-1.0721,-1.0721,-1.0721,-1.0721,-1.0721,-1.0727,-1.0813,-1.1002,-1.1107,-1.1257,-1.1409,-1.1552,-1.1599,-1.1619,-1.1619,-1.1619,-1.1619,-1.1619,-1.1619,-1.1619,-1.1619,-1.1619,-1.0302,-0.834,-0.6387,-0.4431,-0.2472,-0.0583,0.0,0.0,0.0,0.0,0.0,0.0,0.0,0.0,0.0,0.0,0.0,0.0,0.0,0.0,0.0,0.0,0.0,0.0,0.0,0.0,0.0,0.0,0.0,0.0,0.0,0.0,0.0,0.0,0.0,0.0,0.0,0.0,0.0,0.0,0.0,0.0,0.0,0.0,0.0,0.0,0.0,0.0,0.0,0.0,0.3079,0.2552,0.2094,0.0432,0.0,0.0,0.0,0.0,0.0,0.0,0.0,0.0,0.0,0.0,0.0,0.0,0.0,0.0,0.0,0.0,0.0,0.0,0.0,0.0,0.0,0.0,0.0,0.0,0.0,0.0,0.0,0.0,0.0,0.0,-1.0348,-1.0425,-1.0425,-1.0577,-1.0651,-1.0651,-1.0654,-1.0654,-1.0721,-1.0721,-1.0721,-1.0727,-1.0813,-1.088,-1.089,-1.1104,-1.1253,-1.1335,-1.1487,-1.1548,-1.1548,-1.1619,-1.1619,-1.1619,-1.1619,-1.1619,-1.1619,-1.1619,-1.0302,-0.834,-0.6387,-0.4431,-0.2472,-0.0583,0.0,0.0,0.0,0.0,0.0,0.0,0.0,0.0,0.0,0.0,0.0,0.0,0.0,0.0,0.0,0.0,0.0,0.0,0.0,0.0,0.0,0.0,0.0,0.0,0.0,0.0,0.0,0.0,0.0,0.0,0.0,0.0,0.0,0.0,0.0,0.0,0.0,0.0,0.0,0.0,0.0,0.0,0.0,0.0,0.0936,0.0742,0.0617,0.0123,0.0,0.0,0.0,0.0,0.0,0.0,0.0,0.0,0.0,0.0,0.0,0.0,0.0,0.0,0.0,0.0,0.0,0.0,0.0,0.0,0.0,0.0,0.0,0.0,0.0,0.0,0.0,0.0,0.0,0.0,-0.6661,-0.6743,-0.6884,-0.6981,-0.6967,-0.6967,-0.8235,-0.944,-1.0721,-1.0721,-1.0721,-1.0721,-1.0768,-1.0782,-1.0829,-0.9738,-0.8575,-0.7624,-0.9021,-0.9574,-0.972,-1.1106,-1.1619,-1.1619,-1.1619,-1.1619,-1.1619,-1.1619,-1.0302,-0.834,-0.6387,-0.4431,-0.2472,-0.0583,0.0,0.0,0.0,0.0,0.0,0.0,0.0,0.0,0.0,0.0,0.0,0.0,0.0,0.0,0.0,0.0,0.0,0.0,0.0,0.0,0.0,0.0,0.0,0.0,0.0,0.0,0.0,0.0,0.0,0.0,0.0,0.0,0.0,0.0,0.0,0.0,0.0,0.0,0.0,0.0,0.0,0.0,0.0,0.0,0.0,0.0,0.0,0.0,0.0,0.0,0.0,0.0,0.0,0.0,0.0,0.0,0.0,0.0,0.0,0.0,0.0,0.0,0.0,0.0,0.0,0.0,0.0,0.0,0.0,0.0,0.0,0.0,0.0,0.0,0.0,0.0,0.0,0.0,-0.507,-0.5129,-0.5288,-0.5349,-0.5405,-0.5386,-0.6479,-0.7567,-0.864,-1.0047,-1.0316,-0.9643,-1.0382,-1.0772,-1.0742,-0.9856,-0.8852,-0.8057,-0.9308,-0.9821,-1.0011,-1.1181,-1.1619,-1.1619,-1.1619,-1.1619,-1.1619,-1.1619,-1.0302,-0.834,-0.6387,-0.4431,-0.2472,-0.0583,0.0,0.0,0.0,0.0,0.0,0.0,0.0,0.0,0.0,0.0,0.0,0.0,0.0,0.0,0.0,0.0,0.0,0.0,0.0,0.0,0.0,0.0,0.0,0.0,0.0,0.0,0.0,0.0,0.0,0.0,0.0,0.0,0.0,0.0,0.0,0.0,0.0,0.0,0.0,0.0,0.0,0.0,0.0,0.0,0.0,0.0,0.0,0.0,0.0,0.0,0.0,0.0,0.0,0.0,0.0,0.0,0.0,0.0,0.0,0.0,0.0,0.0,0.0,0.0,0.0,0.0,0.0,0.0,0.0,0.0,0.0,0.0,0.0,0.0,0.0,0.0,0.0,-0.4426,-0.4544,-0.4641,-0.4646,-0.4839,-0.4911,0.0,-0.5054,-0.509,-0.5029,-0.8573,-0.9308,-0.7831,-0.951,-1.0114,-0.9994,-1.0081,-1.0144,-1.0197,-1.0476,-1.0692,-1.0812,-1.1005,-1.1087,-1.1106,-1.124,-1.1315,-1.14,-1.1544,-1.0377,-0.8559,-0.6461,-0.4576,-0.2691,-0.0583,0.0,0.0,0.0,0.0,0.0,0.0,0.0,0.0,0.0,0.0,0.0,0.0,0.0,0.0,0.0,0.0,0.0,0.0,0.0,0.0,0.0,0.0,0.0,0.0,0.0,0.0,0.0,0.0,0.0,0.0,0.0,0.0,0.0,0.0,0.0,0.0,0.0,0.0,0.0,0.0,0.0,0.0,0.0,0.0,0.0,0.0,0.0,0.0,0.0,0.0,0.0,0.0,0.0,0.0,0.0,0.0,0.0,0.0,0.0,0.0,0.0,0.0,0.0,0.0,0.0,0.0,0.0,0.0,0.0,0.0,0.0,0.0,0.0,0.0,0.0,0.0,0.0,-0.1048,-0.1051,-0.1121,-0.1072,-0.1142,-0.1159,0.0,-0.2571,-0.2524,-0.1277,-0.4894,-0.6299,-0.5964,-0.6364,-0.5763,-0.4433,-0.4476,-0.3624,-0.2591,-0.411,-0.4737,-0.4924,-0.6453,-0.7061,-0.7246,-0.8818,-0.9347,-0.9576,-1.1106,-1.1329,-1.0305,-0.6823,-0.5518,-0.4432,-0.0947,0.0,0.0,0.0,0.0,0.0,0.0,0.0,0.0,0.0,0.0,0.0,0.0,0.0,0.0,0.0,0.0,0.0,0.0,0.0,0.0,0.0,0.0,0.0,0.0,0.0,0.0,0.0,0.0,0.0,0.0,0.0,0.0,0.0,0.0,0.0,0.0,0.0,0.0,0.0,0.0,0.0,0.0,0.0,0.0,0.0,0.0,0.0,0.0,0.0,0.0,0.0,0.0,0.0,0.0,0.0,0.0,0.0,0.0,0.0,0.0,0.0,0.0,0.0,0.0,0.0,0.0,0.0,0.0,0.0,0.0,0.0,0.0,0.0,0.0,0.0,0.0,0.0,0.0,0.0,0.0,0.0,0.0,0.0,0.0,-0.0981,-0.0928,-0.0067,-0.2819,-0.4559,-0.5431,-0.5431,-0.4894,-0.3962,-0.402,-0.3441,-0.2771,-0.3763,-0.4227,-0.4412,-0.5402,-0.5775,-0.598,-0.6995,-0.7858,-0.876,-0.9759,-0.9513,-0.8338,-0.6327,-0.4482,-0.262,-0.0583,0.0,0.0,0.0,0.0,0.0,0.0,0.0,0.0,0.0,0.0,0.0,0.0,0.0,0.0,0.0,0.0,0.0,0.0,0.0,0.0,0.0,0.0,0.0,0.0,0.0,0.0,0.0,0.0,0.0,0.0,0.0,0.0,0.0,0.0,0.0,0.0,0.0,0.0,0.0,0.0,0.0,0.0,0.0,0.0,0.0,0.0,0.0,0.0,0.0,0.0,0.0,0.0,0.0,0.0,0.0,0.0,0.0,0.0,0.0,0.0,0.0,0.0,0.0,0.0,0.0,0.0,0.0,0.0,0.0,0.0,0.0,0.0,0.0,0.0,0.0,0.0,0.0,0.0,0.0,0.0,0.0,0.0,0.0,0.0,0.0,0.0,-0.0067,-0.1545,-0.302,-0.4492,-0.4492,-0.4492,-0.4494,-0.4438,-0.4538,-0.4651,-0.4651,-0.4691,-0.4814,-0.4792,-0.4798,-0.4816,-0.5153,-0.627,-0.7611,-0.7908,-0.6912,-0.5555,-0.5212,-0.2957,-0.0438,-0.0073,0.0,0.0,0.0,0.0,0.0,0.0,0.0,0.0,0.0,0.0,0.0,0.0,0.0,0.0,0.0,0.0,0.0,0.0,0.0,0.0,0.0,0.0,0.0,0.0,0.0,0.0,0.0,0.0,0.0,0.0,0.0,0.0,0.0,0.0,0.0,0.0,0.0,0.0,0.0,0.0,0.0,0.0,0.0,0.0,0.0,0.0,0.0,0.0,0.0,0.0,0.0,0.0,0.0,0.0,0.0,0.0,0.0,0.0,0.0,0.0,0.0,0.0,0.0,0.0,0.0,0.0,0.0,0.0,0.0,0.0,0.0,0.0,0.0,0.0,0.0,0.0,0.0,0.0,0.0,0.0,0.0,0.0,0.0,0.0,0.0,0.0,0.0,-0.0269,-0.0471,-0.074,-0.074,-0.074,-0.0741,-0.0749,-0.0754,-0.0755,-0.0755,-0.0762,-0.0769,-0.075,-0.0755,-0.1049,-0.2692,-0.3463,-0.3923,-0.5591,-0.5973,-0.5494,-0.3756,-0.2904,-0.2183,-0.051,0.0,0.0,0.0,0.0,0.0,0.0,0.0,0.0,0.0,0.0,0.0,0.0,0.0,0.0,0.0,0.0,0.0,0.0,0.0,0.0,0.0,0.0,0.0,0.0,0.0,0.0,0.0,0.0,0.0,0.0,0.0,0.0,0.0,0.0,0.0,0.0,0.0,0.0,0.0,0.0,0.0,0.0,0.0,0.0,0.0,0.0,0.0,0.0,0.0,0.0,0.0,0.0,0.0,0.0,0.0,0.0,0.0,0.0,0.0,0.0,0.0,0.0,0.0,0.0,0.0,0.0,0.0,0.0,0.0,0.0,0.0,0.0,0.0,0.0,0.0,0.0,0.0,0.0,0.0,0.0,0.0,0.0,0.0,0.0,0.0,0.0,0.0,0.0,0.0,0.0,0.0,0.0,0.0,0.0,0.0,0.0,0.0,0.0,0.0,0.0,0.0,-0.0137,-0.0952,-0.1906,-0.2942,-0.3784,-0.4086,-0.3913,-0.3048,-0.2076,-0.1083,-0.0218,0.0,0.0,0.0,0.0,0.0,0.0,0.0,0.0,0.0,0.0,0.0,0.0,0.0,0.0,0.0,0.0,0.0,0.0,0.0,0.0,0.0,0.0,0.0,0.0,0.0,0.0,0.0,0.0,0.0,0.0,0.0,0.0,0.0,0.0,0.0,0.0,0.0,0.0,0.0,0.0,0.0,0.0,0.0,0.0,0.0,0.0,0.0,0.0,0.0,0.0,0.0,0.0,0.0,0.0,0.0,0.0,0.0,0.0,0.0,0.0,0.0,0.0,0.0,0.0,0.0,0.0,0.0,0.0,0.0,0.0,0.0,0.0,0.0,0.0,0.0,0.0,0.0,0.0,0.0,0.0,0.0,0.0,0.0,0.0,0.0,0.0,0.0,0.0,0.0,0.0,0.0,0.0,0.0,0.0,0.0,0.0,0.0,0.0,0.0,0.0,0.0,0.0,0.0,-0.0874,-0.2016,-0.2023,-0.204,-0.1995,-0.203,-0.1064,0.0,0.0,0.0,0.0,0.0,0.0,0.0,0.0,0.0,0.0,0.0,0.0,0.0,0.0,0.0,0.0,0.0,0.0,0.0,0.0,0.0,0.0,0.0,0.0,0.0,0.0,0.0,0.0,0.0,0.0,0.0,0.0,0.0,0.0,0.0,0.0,0.0,0.0,0.0,0.0,0.0,0.0,0.0,0.0,0.0,0.0,0.0,0.0,0.0,0.0,0.0,0.0,0.0,0.0,0.0,0.0,0.0,0.0,0.0,0.0,0.0,0.0,0.0,0.0,0.0,0.0,0.0,0.0,0.0,0.0,0.0,0.0,0.0,0.0,0.0,0.0,0.0,0.0,0.0,0.0,0.0,0.0,0.0,0.0,0.0,0.0,0.0,0.0,0.0,0.0,0.0,0.0,0.0,0.0,0.0,0.0,0.0,0.0,0.0,0.0,0.0,0.0,0.0,0.0,0.0,-0.0067,-0.0135,-0.0137,-0.0137,-0.0138,-0.0142,-0.0072,0.0,0.0,0.0,0.0,0.0,0.0,0.0,0.0,0.0,0.0,0.0,0.0,0.0,0.0,0.0,0.0,0.0,0.0,0.0,0.0,0.0,0.0,0.0,0.0,0.0,0.0,0.0,0.0,0.0,0.0,0.0,0.0,0.0,0.0,0.0,0.0,0.0,0.0,0.0,0.0,0.0,0.0,0.0,0.0,0.0,0.0,0.0,0.0,0.0,0.0,0.0,0.0,0.0,0.0,0.0,0.0,0.0,0.0,0.0,0.0,0.0,0.0,0.0,0.0,0.0,0.0,0.0,0.0,0.0,0.0,0.0,0.0,0.0,0.0,0.0,0.0,0.0,0.0,0.0,0.0,0.0,0.0,0.0,0.0,0.0,0.0,0.0,0.0,0.0,0.0,0.0,0.0,0.0,0.0,0.0,0.0,0.0,0.0,0.0,0.0,0.0,0.0,0.0,0.0,0.0,0.0,0.0,0.0,0.0,0.0,0.0,0.0,0.0,0.0,0.0,0.0,0.0,0.0,0.0,0.0,0.0,0.0,0.0,0.0,0.0,0.0,0.0,0.0,0.0,0.0,0.0,0.0,0.0,0.0,0.0,0.0,0.0,0.0,0.0,0.0,0.0,0.0,0.0,0.0,0.0,0.0,0.0,0.0,0.0,0.0,0.0,0.0,0.0,0.0,0.0,0.0,0.0,0.0,0.0,0.0,0.0,0.0,0.0,0.0,0.0,0.0,0.0,0.0,0.0,0.0,0.0,0.0,0.0,0.0,0.0,0.0,0.0,0.0,0.0,0.0,0.0,0.0,0.0,0.0,0.0,0.0,0.0,0.0,0.0,0.0,0.0,0.0,0.0,0.0,0.0,0.0,0.0,0.0,0.0,0.0,0.0,0.0,0.0,0.0,0.0,0.0,0.0,0.0,0.0,0.0,0.0,0.0,0.0,0.0,0.0,0.0,0.0,0.0,0.0,0.0,0.0,0.0,0.0,0.0,0.0,0.0,0.0,0.0,0.0,0.0,0.0,0.0,0.0,0.0,0.0,0.0,0.0,0.0,0.0,0.0,0.0,0.0,0.0,0.0,0.0,0.0,0.0,0.0,0.0,0.0,0.0,0.0,0.0,0.0,0.0,0.0,0.0,0.0,0.0,0.0,0.0,0.0,0.0,0.0,0.0,0.0,0.0,0.0,0.0,0.0,0.0,0.0,0.0,0.0,0.0,0.0,0.0,0.0,0.0,0.0,0.0,0.0,0.0,0.0,0.0,0.0,0.0,0.0,0.0,0.0,0.0,0.0,0.0,0.0,0.0,0.0,0.0,0.0,0.0,0.0,0.0,0.0,0.0,0.0,0.0,0.0,0.0,0.0,0.0,0.0,0.0,0.0,0.0,0.0,0.0,0.0,0.0,0.0,0.0,0.0,0.0,0.0,0.0,0.0,0.0,0.0,0.0,0.0,0.0,0.0,0.0,0.0,0.0,0.0,0.0,0.0,0.0,0.0,0.0,0.0,0.0,0.0,0.0,0.0,0.0,0.0,0.0,0.0,0.0,0.0,0.0,0.0,0.0,0.0,0.0,0.0,0.0,0.0,0.0,0.0,0.0,0.0,0.0,0.0,0.0,0.0,0.0,0.0,0.0,0.0,0.0,0.0,0.0,0.0,0.0,0.0,0.0,0.0,0.0,0.0,0.0,0.0,0.0,0.0,0.0,0.0,0.0,0.0,0.0,0.0,0.0,0.0,0.0,0.0,0.0,0.0,0.0,0.0,0.0,0.0,0.0,0.0,0.0,0.0,0.0,0.0,0.0,0.0,0.0,0.0,0.0,0.0,0.0,0.0,0.0,0.0,0.0,0.0,0.0,0.0,0.0,0.0,0.0,0.0,0.0,0.0,0.0,0.0,0.0,0.0,0.0,0.0,0.0,0.0,0.0,0.0,0.0,0.0,0.0,0.0,0.0,0.0,0.0,0.0,0.0,0.0,0.0,0.0,0.0,0.0,0.0,0.0,0.0,0.0,0.0,0.0,0.0,0.0,0.0,0.0,0.0,0.0,0.0,0.0,0.0,0.0,0.0,0.0,0.0,0.0,0.0,0.0,0.0,0.0,0.0,0.0,0.0,0.0,0.0,0.0,0.0,0.0,0.0,0.0,0.0,0.0,0.0,0.0,0.0,0.0,0.0,0.0,0.0,0.0,0.0,0.0,0.0,0.0,0.0,0.0,0.0,0.0,0.0,0.0,0.0,0.0,0.0,0.0,0.0,0.0,0.0,0.0,0.0,0.0,0.0,0.0,0.0,0.0,0.0,0.0,0.0,0.0,0.0,0.0,0.0,0.0,0.0,0.0,0.0,0.0,0.0,0.0,0.0,0.0,0.0,0.0,0.0,0.0,0.0,0.0,0.0,0.0,0.0,0.0,0.0,0.0,0.0,0.0,0.0,0.0,0.0,0.0,0.0,0.0,0.0,0.0,0.0,0.0,0.0,0.0,0.0,0.0,0.0,0.0,0.0,0.0,0.0,0.0,0.0,0.0,0.0,0.0,0.0,0.0,0.0,0.0,0.0,0.0,0.0,0.0,0.0,0.0,0.0,0.0,0.0,0.0,0.0,0.0,0.0,0.0,0.0,0.0,0.0,0.0,0.0,0.0,0.0,0.0,0.0,0.0,0.0,0.0,0.0,0.0,0.0,0.0,0.0,0.0,0.0,0.0,0.0,0.0,0.0,0.0,0.0,0.0,0.0,0.0,0.0,0.0,0.0,0.0,0.0,0.0,0.0,0.0,0.0,0.0,0.0,0.0,0.0,0.0,0.0,0.0,0.0,0.0,0.0,0.0,0.0,0.0,0.0,0.0,0.0,0.0,0.0,0.0,0.0,0.0,0.0,0.0,0.0,0.0,0.0,0.0,0.0,0.0,0.0,0.0,0.0,0.0,0.0,0.0,0.0,0.0,0.0,0.0,0.0,0.0,0.0,0.0,0.0,0.0,0.0,0.0,0.0,0.0,0.0,0.0,0.0,0.0,0.0,0.0,0.0,0.0,0.0,0.0,0.0,0.0,0.0,0.0,0.0,0.0,0.0,0.0,0.0,0.0,0.0,0.0,0.0,0.0,0.0,0.0,0.0,0.0,0.0,0.0,0.0,0.0,0.0,0.0,0.0,0.0,0.0,0.0,0.0,0.0,0.0,0.0,0.0,0.0,0.0,0.0,0.0,0.0,0.0,0.0,0.0,0.0,0.0,0.0,0.0,0.0,0.0,0.0,0.0,0.0,0.0,0.0,0.0,0.0,0.0,0.0,0.0,0.0,0.0,0.0,0.0,0.0,0.0,0.0,0.0,0.0,0.0,0.0,0.0,0.0,0.0,0.0,0.0,0.0,0.0,0.0,0.0,0.0,0.0,0.0,0.0,0.0,0.0,0.0,0.0,0.0,0.0,0.0,0.0,0.0,0.0,0.0,0.0,0.0,0.0,0.0,0.0,0.0,0.0,0.0,0.0,0.0,0.0,0.0,0.0,0.0,0.0,0.0,0.0,0.0,0.0,0.0,0.0,0.0,0.0,0.0,0.0,0.0,0.0,0.0,0.0,0.0,0.0,0.0,0.0,0.0,0.0,0.0,0.0,0.0,0.0,0.0,0.0,0.0,0.0,0.0,0.0,0.0,0.0,0.0,0.0,0.0,0.0,0.0,0.0,0.0,0.0,0.0,0.0,0.0,0.0,0.0,0.0,0.0,0.0,0.0,0.0,0.0,0.0,0.0,0.0,0.0,0.0,0.0,0.0,0.0,0.0,0.0,0.0,0.0,0.0,0.0,0.0,0.0,0.0,0.0,0.0,0.0,0.0,0.0,0.0,0.0,0.0,0.0,0.0,0.0,0.0,0.0,0.0,0.0,0.0,0.0,0.0,0.0,0.0,0.0,0.0,0.0,0.0,0.0,0.0,0.0,0.0,0.0,0.0,0.0,0.0,0.0,0.0,0.0,0.0,0.0,0.0,0.0,0.0,0.0,0.0,0.0,0.0,0.0,0.0,0.0,0.0,0.0,0.0,0.0,0.0,0.0,0.0,0.0,0.0,0.0,0.0,0.0,0.0,0.0,0.0,0.0,0.0,0.0,0.0,0.0,0.0,0.0,0.0,0.0,0.0,0.0,0.0,0.0,0.0,0.0,0.0,0.0,0.0,0.0,0.0,0.0,0.0,0.0,0.0,0.0,0.0,0.0,0.0,0.0,0.0,0.0,0.0,0.0,0.0,0.0,0.0,0.0,0.0,0.0,0.0,0.0,0.0,0.0,0.0,0.0,0.0,0.0,0.0,0.0,0.0,0.0,0.0,0.0,0.0,0.0,0.0,0.0,0.0,0.0,0.0,0.0,0.0,0.0,0.0,0.0,0.0,0.0,0.0,0.0,0.0,0.0,0.0,0.0,0.0,0.0,0.0,0.0,0.0,0.0,0.0,0.0,0.0,0.0,0.0,0.0,0.0,0.0,0.0,0.0,0.0,0.0,0.0,0.0,0.0,0.0,0.0,0.0,0.0,0.0,0.0,0.0,0.0,0.0,0.0,0.0,0.0,0.0,0.0,0.0,0.0,0.0,0.0,0.0,0.0,0.0,0.0,0.0,0.0,0.0,0.0,0.0,0.0,0.0,0.0,0.0,0.0,0.0,0.0,0.0,0.0,0.0,0.0,0.0,0.0,0.0,0.0,0.0,0.0,0.0,0.0,0.0,0.0,0.0,0.0,0.0,0.0,0.0,0.0,0.0,0.0,0.0,0.0,0.0,0.0,0.0,0.0,0.0,0.0,0.0,0.0,0.0,0.0,0.0,0.0,0.0,0.0,0.0,0.0,0.0,0.0,0.0,0.0,0.0,0.0,0.0,0.0,0.0,0.0,0.0,0.0,0.0,0.0,0.0,0.0,0.0,0.0,0.0,0.0,0.0,0.0,0.0,0.0,0.0,0.0,0.0,0.0,0.0,0.0,0.0,0.0,0.0,0.0,0.0,0.0,0.0,0.0,0.0,0.0,0.0,0.0,0.0,0.0,0.0,0.0,0.0,0.0,0.0,0.0,0.0,0.0,0.0,0.0,0.0,0.0,0.0,0.0,0.0,0.0,0.0,0.0,0.0,0.0,0.0,0.0,0.0,0.0,0.0,0.0,0.0,0.0,0.0,0.0,0.0,0.0,0.0,0.0,0.0,0.0,0.0,0.0,0.0,0.0,0.0,0.0,0.0,0.0,0.0,0.0,0.0,0.0,0.0,0.0,0.0,0.0,0.0,0.0,0.0,0.0,0.0,0.0,0.0,0.0,0.0,0.0,0.0,0.0,0.0,0.0,0.0,0.0,0.0,0.0,0.0,0.0,0.0,0.0,0.0,0.0,0.0,0.0,0.0,0.0,0.0,0.0,0.0,0.0,0.0,0.0,0.0,0.0,0.0,0.0,0.0,0.0,0.0,0.0,0.0,0.0,0.0,0.0,0.0,0.0,0.0,0.0,0.0,0.0,0.0,0.0,0.0,0.0,0.0,0.0,0.0,0.0,0.0,0.0,0.0,0.0,0.0,0.0,0.0,0.0,0.0,0.0,0.0,0.0,0.0,0.0,0.0,0.0,0.0,0.0,0.0,0.0,0.0,0.0,0.0,0.0,0.0,0.0,0.0,0.0,0.0,0.0,0.0,0.0,0.0,0.0,0.0,0.0,0.0,0.0,0.0,0.0,0.0,0.0,0.0,0.0,0.0,0.0,0.0,0.0,0.0,0.0,0.0,0.0,0.0,0.0,0.0,0.0,0.0,0.0,0.0,0.0,0.0,0.0,0.0,0.0,0.0,0.0,0.0,0.0,0.0,0.0,0.0,0.0,0.0,0.0,0.0,0.0,0.0,0.0,0.0,0.0,0.0,0.0,0.0,0.0,0.0,0.0,0.0,0.0,0.0,0.0,0.0,0.0,0.0,0.0,0.0,0.0,0.0,0.0,0.0,0.0,0.0,0.0,0.0,0.0,0.0,0.0,0.0,0.0,0.0,0.0,0.0,0.0,0.0,0.0,0.0,0.0,0.0,0.0,0.0,0.0,0.0,0.0,0.0,0.0,0.0,0.0,0.0,0.0,0.0,0.0,0.0,0.0,0.0,0.0,0.0,0.0,0.0,0.0,0.0,0.0,0.0,0.0,0.0,0.0,0.0,0.0,0.0,0.0,0.0,0.0,0.0,0.0,0.0,0.0,0.0,0.0,0.0,0.0,0.0,0.0,0.0,0.0,0.0,0.0,0.0,0.0,0.0,0.0,0.0,0.0,0.0,0.0,0.0,0.0,0.0,0.0,0.0,0.0,0.0,0.0,0.0,0.0,0.0,0.0,0.0,0.0,0.0,0.0,0.0,0.0,0.0,0.0,0.0,0.0,0.0,0.0,0.0,0.0,0.0,0.0,0.0,0.0,0.0,0.0,0.0,0.0,0.0,0.0,0.0,0.0,0.0,0.0,0.0,0.0,0.0,0.0,0.0,0.0,0.0,0.0,0.0,0.0,0.0,0.0,0.0,0.0,0.0,0.0,0.0,0.0,0.0,0.0,0.0,0.0,0.0,0.0,0.0,0.0,0.0,0.0,0.0,0.0,0.0,0.0,0.0,0.0,0.0,0.0,0.0,0.0,0.0,0.0,0.0,0.0,0.0,0.0,0.0,0.0,0.0,0.0,0.0,0.0,0.0,0.0,0.0,0.0,0.0,0.0,0.0,0.0,0.0,0.0,0.0,0.0,0.0,0.0,0.0,0.0,0.0,0.0,0.0,0.0,0.0,0.0,0.0,0.0,0.0,0.0,0.0,0.0,0.0,0.0,0.0,0.0,0.0,0.0,0.0,0.0,0.0,0.0,0.0,0.0,0.0,0.0,0.0,0.0,0.0,0.0,0.0,0.0,0.0,0.0,0.0,0.0,0.0,0.0,0.0,0.0,0.0,0.0,0.0,0.0,0.0,0.0,0.0,0.0,0.0,0.0,0.0,0.0,0.0,0.0,0.0,0.0,0.0,0.0,0.0,0.0,0.0,0.0,0.0,0.0,0.0,0.0,0.0,0.0,0.0,0.0,0.0,0.0,0.0,0.0,0.0,0.0,0.0,0.0,0.0,0.0,0.0,0.0,0.0,0.0,0.0,0.0,0.0,0.0,0.0,0.0,0.0,0.0,0.0,0.0,0.0,0.0,0.0,0.0,0.0,0.0,0.0,0.0,0.0,0.0,0.0,0.0,0.0,0.0,0.0,0.0,0.0,0.0,0.0,0.0,0.0,0.0,0.0,0.0,0.0,0.0,0.0,0.0,0.0,0.0,0.0,0.0,0.0,0.0,0.0,0.0,0.0,0.0,0.0,0.0,0.0,0.0,0.0,0.0,0.0,0.0,0.0,0.0,0.0,0.0,0.0,0.0,0.0,0.0,0.0,0.0,0.0,0.0,0.0,0.0,0.0,0.0,0.0,0.0,0.0,0.0,0.0,0.0,0.0,0.0,0.0,0.0,0.0,0.0,0.0,0.0,0.0,0.0,0.0,0.0,0.0,0.0,0.0,0.0,0.0,0.0,0.0,0.0,0.0,0.0,0.0,0.0,0.0,0.0,0.0,0.0,0.0,0.0,0.0,0.0,0.0,0.0,0.0,0.0,0.0,0.0,0.0]}]]